[[{"header":{"parameterUnit":"m.s-1","parameterCategory":1,"la1":30.6,"la2":28.766,"lo1":-90.7593,"lo2":-88.6598,"dy":0.0162,"dx":0.0183,"nx":116,"ny":114,"refTime":"2024-05-28T12:00:00:Z","depth":0,"parameterNumber":2,"parameterNumberName":"U-component_of_WINDS"},"data":[0.0,0.0,0.0,0.0,0.0,0.0,0.0,0.0,0.0,0.0,0.0,0.0,0.0,0.0,0.0,0.0,0.0,0.0,0.0,0.0,0.0,0.0,0.0,0.0,0.0,0.0,0.0,0.0,0.0,0.0,0.0,0.0,0.0,0.0,0.0,0.0,0.0,0.0,0.0,0.0,0.0,0.0,0.0,0.0,0.0,0.0,0.0,0.0,0.0,0.0,0.0,0.0,0.0,0.0,0.0,0.0,0.0,0.0,0.0,0.0,0.0,0.0,0.0,0.0,0.0,0.0,0.0,0.0,0.0,0.0,0.0,0.0,0.0,0.0,0.0,0.0,0.0,0.0,0.0,0.0,0.0,0.0,0.0,0.0,0.0,0.0,0.0,0.0,0.0,0.0,0.0,0.0,0.0,0.0,0.0,0.0,0.0,0.0,0.0,0.0,0.0,0.0,0.0,0.0,0.0,0.0,0.0,0.0,0.0,0.0,0.0,0.0,0.0,0.0,0.0,0.0,0.0,0.0,0.0,0.0,0.0,0.0,0.0,0.0,0.0,0.0,0.0,0.0,0.0,0.0,0.0,0.0,0.0,0.0,0.0,0.0,0.0,0.0,0.0,0.0,0.0,0.0,0.0,0.0,0.0,0.0,0.0,0.0,0.0,0.0,0.0,0.0,0.0,0.0,0.0,0.0,0.0,0.0,0.0,0.0,0.0,0.0,0.0,0.0,0.0,0.0,0.0,0.0,0.0,0.0,0.0,0.0,0.0,0.0,0.0,0.0,0.0,0.0,0.0,0.0,0.0,0.0,0.0,0.0,0.0,0.0,0.0,0.0,0.0,0.0,0.0,0.0,0.0,0.0,0.0,0.0,0.0,0.0,0.0,0.0,0.0,0.0,0.0,0.0,0.0,0.0,0.0,0.0,0.0,0.0,0.0,0.0,0.0,0.0,0.0,0.0,0.0,0.0,0.0,0.0,0.0,0.0,0.0,0.0,0.0,0.0,0.0,0.0,0.0,0.0,0.0,0.0,0.0,0.0,0.0,0.0,0.0,0.0,0.0,0.0,0.0,0.0,0.0,0.0,0.0,0.0,0.0,0.0,0.0,0.0,0.0,0.0,0.0,0.0,0.0,0.0,0.0,0.0,0.0,0.0,0.0,0.0,0.0,0.0,0.0,0.0,0.0,0.0,0.0,0.0,0.0,0.0,0.0,0.0,0.0,0.0,0.0,0.0,0.0,0.0,0.0,0.0,0.0,0.0,0.0,0.0,0.0,0.0,0.0,0.0,0.0,0.0,0.0,0.0,0.0,0.0,0.0,0.0,0.0,0.0,0.0,0.0,0.0,0.0,0.0,0.0,0.0,0.0,0.0,0.0,0.0,0.0,0.0,0.0,0.0,0.0,0.0,0.0,0.0,0.0,0.0,0.0,0.0,0.0,0.0,0.0,0.0,0.0,0.0,0.0,0.0,0.0,0.0,0.0,0.0,0.0,0.0,0.0,0.0,0.0,0.0,0.0,0.0,0.0,0.0,0.0,0.0,0.0,0.0,0.0,0.0,0.0,0.0,0.0,0.0,0.0,0.0,0.0,0.0,0.0,0.0,0.0,0.0,0.0,0.0,0.0,0.0,0.0,0.0,0.0,0.0,0.0,0.0,0.0,0.0,0.0,0.0,0.0,0.0,0.0,0.0,0.0,0.0,0.0,0.0,0.0,0.0,0.0,0.0,0.0,0.0,0.0,0.0,0.0,0.0,0.0,0.0,0.0,0.0,0.0,0.0,0.0,0.0,0.0,0.0,0.0,0.0,0.0,0.0,0.0,0.0,0.0,0.0,0.0,0.0,0.0,0.0,0.0,0.0,0.0,0.0,0.0,0.0,0.0,0.0,0.0,0.0,0.0,0.0,0.0,0.0,0.0,0.0,0.0,0.0,0.0,0.0,0.0,0.0,0.0,0.0,0.0,0.0,0.0,0.0,0.0,0.0,0.0,0.0,0.0,0.0,0.0,0.0,0.0,0.0,0.0,0.0,0.0,0.0,0.0,0.0,0.0,0.0,0.0,0.0,0.0,0.0,0.0,0.0,0.0,0.0,0.0,0.0,0.0,0.0,0.0,0.0,0.0,0.0,0.0,0.0,0.0,0.0,0.0,0.0,0.0,0.0,0.0,0.0,0.0,0.0,0.0,0.0,0.0,0.0,0.0,0.0,0.0,0.0,0.0,0.0,0.0,0.0,0.0,0.0,0.0,0.0,0.0,0.0,0.0,0.0,0.0,0.0,0.0,0.0,0.0,0.0,0.0,0.0,0.0,0.0,0.0,0.0,0.0,0.0,0.0,0.0,0.0,0.0,0.0,0.0,0.0,0.0,0.0,0.0,0.0,0.0,0.0,0.0,0.0,0.0,0.0,0.0,0.0,0.0,0.0,0.0,0.0,0.0,0.0,0.0,0.0,0.0,0.0,0.0,0.0,0.0,0.0,0.0,0.0,0.0,0.0,0.0,0.0,0.0,0.0,0.0,0.0,0.0,0.0,0.0,0.0,0.0,0.0,0.0,0.0,0.0,0.0,0.0,0.0,0.0,0.0,0.0,0.0,0.0,0.0,0.0,0.0,0.0,0.0,0.0,0.0,0.0,0.0,0.0,0.0,0.0,0.0,0.0,0.0,0.0,0.0,0.0,0.0,0.0,0.0,0.0,0.0,0.0,0.0,0.0,0.0,0.0,0.0,0.0,0.0,0.0,0.0,0.0,0.0,0.0,0.0,0.0,0.0,0.0,0.0,0.0,0.0,0.0,0.0,0.0,0.0,0.0,0.0,0.0,0.0,0.0,0.0,0.0,0.0,0.0,0.0,0.0,0.0,0.0,0.0,0.0,0.0,0.0,0.0,0.0,0.0,0.0,0.0,0.0,0.0,0.0,0.0,0.0,0.0,0.0,0.0,0.0,0.0,0.0,0.0,0.0,0.0,0.0,0.0,0.0,0.0,0.0,0.0,0.0,0.0,0.0,0.0,0.0,0.0,0.0,0.0,0.0,0.0,0.0,0.0,0.0,0.0,0.0,0.0,0.0,0.0,0.0,0.0,0.0,0.0,0.0,0.0,0.0,0.0,0.0,0.0,0.0,0.0,0.0,0.0,0.0,0.0,0.0,0.0,0.0,0.0,0.0,0.0,0.0,0.0,0.0,0.0,0.0,0.0,0.0,0.0,0.0,0.0,0.0,0.0,0.0,0.0,0.0,0.0,0.0,0.0,0.0,0.0,0.0,0.0,0.0,0.0,0.0,0.0,0.0,0.0,0.0,0.0,0.0,0.0,0.0,0.0,0.0,0.0,0.0,0.0,0.0,0.0,0.0,0.0,0.0,0.0,0.0,0.0,0.0,0.0,0.0,0.0,0.0,0.0,0.0,0.0,0.0,0.0,0.0,0.0,0.0,0.0,0.0,0.0,0.0,0.0,0.0,0.0,0.0,0.0,0.0,0.0,0.0,0.0,0.0,0.0,0.0,0.0,0.0,0.0,0.0,0.0,0.0,0.0,0.0,0.0,0.0,0.0,0.0,0.0,0.0,0.0,0.0,0.0,0.0,0.0,0.0,0.0,0.0,0.0,0.0,0.0,0.0,0.0,0.0,0.0,0.0,0.0,0.0,0.0,0.0,0.0,0.0,0.0,0.0,0.0,0.0,0.0,0.0,0.0,0.0,0.0,0.0,0.0,0.0,0.0,0.0,0.0,0.0,0.0,0.0,0.0,0.0,0.0,0.0,0.0,0.0,0.0,0.0,0.0,0.0,0.0,0.0,0.0,0.0,0.0,0.0,0.0,0.0,0.0,0.0,0.0,0.0,0.0,0.0,0.0,0.0,0.0,0.0,0.0,0.0,0.0,0.0,0.0,0.0,0.0,0.0,0.0,0.0,0.0,0.0,0.0,0.0,0.0,0.0,0.0,0.0,0.0,0.0,0.0,0.0,0.0,0.0,0.0,0.0,0.0,0.0,0.0,0.0,0.0,0.0,0.0,0.0,0.0,0.0,0.0,0.0,0.0,0.0,0.0,0.0,0.0,0.0,0.0,0.0,0.0,0.0,0.0,0.0,0.0,0.0,0.0,0.0,0.0,0.0,0.0,0.0,0.0,0.0,0.0,0.0,0.0,0.0,0.0,0.0,0.0,0.0,0.0,0.0,0.0,0.0,0.0,0.0,0.0,0.0,0.0,0.0,0.0,0.0,0.0,0.0,0.0,0.0,0.0,0.0,0.0,0.0,0.0,0.0,0.0,0.0,0.0,0.0,0.0,0.0,0.0,0.0,0.0,0.0,0.0,0.0,0.0,0.0,0.0,0.0,0.0,0.0,0.0,0.0,0.0,0.0,0.0,0.0,0.0,0.0,0.0,0.0,0.0,0.0,0.0,0.0,0.0,0.0,0.0,0.0,0.0,0.0,0.0,0.0,0.0,0.0,0.0,0.0,0.0,0.0,0.0,0.0,0.0,0.0,0.0,0.0,0.0,0.0,0.0,0.0,0.0,0.0,0.0,0.0,0.0,0.0,0.0,0.0,0.0,0.0,0.0,0.0,0.0,0.0,0.0,0.0,0.0,0.0,0.0,0.0,0.0,0.0,0.0,0.0,0.0,0.0,0.0,0.0,0.0,0.0,0.0,0.0,0.0,0.0,0.0,0.0,0.0,0.0,0.0,0.0,0.0,0.0,0.0,0.0,0.0,0.0,0.0,0.0,0.0,0.0,0.0,0.0,0.0,0.0,0.0,0.0,0.0,0.0,0.0,0.0,0.0,0.0,0.0,0.0,0.0,0.0,0.0,0.0,0.0,0.0,0.0,0.0,0.0,0.0,0.0,0.0,0.0,0.0,0.0,0.0,0.0,0.0,0.0,0.0,0.0,0.0,0.0,0.0,0.0,0.0,0.0,0.0,0.0,0.0,0.0,0.0,0.0,0.0,0.0,0.0,0.0,0.0,0.0,0.0,0.0,0.0,0.0,0.0,0.0,0.0,0.0,0.0,0.0,0.0,0.0,0.0,0.0,0.0,0.0,0.0,0.0,0.0,0.0,0.0,0.0,0.0,0.0,0.0,0.0,0.0,0.0,0.0,0.0,0.0,0.0,0.0,0.0,0.0,0.0,0.0,0.0,0.0,0.0,0.0,0.0,0.0,0.0,0.0,0.0,0.0,0.0,0.0,0.0,0.0,0.0,0.0,0.0,0.0,0.0,0.0,0.0,0.0,0.0,0.0,0.0,0.0,0.0,0.0,0.0,0.0,0.0,0.0,0.0,0.0,0.0,0.0,0.0,0.0,0.0,0.0,0.0,0.0,0.0,0.0,0.0,0.0,0.0,0.0,0.0,0.0,0.0,0.0,0.0,0.0,0.0,0.0,0.0,0.0,0.0,0.0,0.0,0.0,0.0,0.0,0.0,0.0,0.0,0.0,0.0,0.0,0.0,0.0,0.0,0.0,0.0,0.0,0.0,0.0,0.0,0.0,0.0,0.0,0.0,0.0,0.0,0.0,0.0,0.0,0.0,0.0,0.0,0.0,0.0,0.0,0.0,0.0,0.0,0.0,0.0,0.0,0.0,0.0,0.0,0.0,0.0,0.0,0.0,0.0,0.0,0.0,0.0,0.0,0.0,0.0,0.0,0.0,0.0,0.0,0.0,0.0,0.0,0.0,0.0,0.0,0.0,0.0,0.0,0.0,0.0,0.0,0.0,0.0,0.0,0.0,0.0,0.0,0.0,0.0,0.0,0.0,0.0,0.0,0.0,0.0,0.0,0.0,0.0,0.0,0.0,0.0,0.0,0.0,0.0,0.0,0.0,0.0,0.0,0.0,0.0,0.0,0.0,0.0,0.0,0.0,0.0,0.0,0.0,0.0,0.0,0.0,0.0,0.0,0.0,0.0,0.0,0.0,0.0,0.0,0.0,0.0,0.0,0.0,0.0,0.0,0.0,0.0,0.0,0.0,0.0,0.0,0.0,0.0,0.0,0.0,0.0,0.0,0.0,0.0,0.0,0.0,0.0,0.0,0.0,0.0,0.0,0.0,0.0,0.0,0.0,0.0,0.0,0.0,0.0,0.0,0.0,0.0,0.0,0.0,0.0,0.0,0.0,0.0,0.0,0.3279,0.0,0.0,0.0,0.0,0.0,0.0,0.0,0.0,0.0,0.0,0.0,0.0,0.0,0.0,0.0,0.0,0.0,0.0,0.0,0.0,0.0,0.0,0.0,0.0,-0.1634,-0.1696,-0.1731,-0.1763,-0.1784,-0.1784,0.0,0.0,0.0,0.0,0.0,-0.1634,-0.1564,-0.1629,-0.1841,-0.17,-0.1684,-0.1781,-0.147,-0.1055,-0.0585,0.0,0.0,0.0,0.0,0.0,0.0,0.0,0.0,0.0,0.0,0.0,0.0,0.0,0.0,0.0,0.0,0.0,0.0,0.0,0.0,0.0,0.0,0.0,0.0,0.0,0.0,0.0,0.0,0.0,0.0,0.0,0.0,0.0,0.0,0.0,0.0,0.0,0.0,0.0,0.0,0.0,0.0,0.0,0.0,0.0,0.0,0.0,0.0,0.0,0.0,0.0,0.0,0.0,0.0,0.0,0.0,0.0,0.0,0.0,0.0,0.0,0.0,0.0,0.0,0.0,0.0,0.0,0.0,0.0,0.0,0.0,0.3069,0.0,0.0,0.0,0.0,0.0,0.0,0.0,0.0,0.0,0.0,0.0,0.0,0.0,0.0,0.0,0.0,0.0,0.0,0.0,0.0,0.0,-0.178,-0.1803,-0.1945,-0.2071,-0.2162,-0.2264,-0.2335,-0.2335,-0.2178,0.0,0.0,0.0,-0.1916,-0.2083,-0.2114,-0.2184,-0.2298,-0.2354,-0.2356,-0.2302,-0.2317,-0.1939,-0.124,-0.0977,0.0,0.0,0.0,0.0,0.0,0.0,0.0,0.0,0.0,0.0,0.0,0.0,0.0,0.0,0.0,0.0,0.0,0.0,0.0,0.0,0.0,0.0,0.0,0.0,0.0,0.0,0.0,0.0,0.0,0.0,0.0,0.0,0.0,0.0,0.0,0.0,0.0,0.0,0.0,0.0,0.0,0.0,0.0,0.0,0.0,0.0,0.0,0.0,0.0,0.0,0.0,0.0,0.0,0.0,0.0,0.0,0.0,0.0,0.0,0.0,0.0,0.0,0.0,0.2582,0.2523,0.2407,0.2407,0.2449,0.254,0.2585,0.2592,0.256,0.2457,0.0,0.0,0.0,0.0,0.0,0.0,0.0,0.0,0.0,0.0,0.0,0.0,0.0,0.0,0.0,0.0,0.0,0.0,0.0,-0.2088,-0.2202,-0.2195,-0.2244,-0.2434,-0.2465,-0.2476,-0.2476,-0.2443,0.0,0.0,-0.241,-0.241,-0.2432,-0.2546,-0.2651,-0.2721,-0.2948,-0.3088,-0.3152,-0.3147,-0.296,-0.2606,-0.1828,-0.1305,-0.1016,0.0,0.0,0.0,0.0,0.0,0.0,0.0,0.0,0.0,0.0,0.0,0.0,0.0,0.0,0.0,0.0,0.0,0.0,0.0,0.0,0.0,0.0,0.0,0.0,0.0,0.0,0.0,0.0,0.0,0.0,0.0,0.0,0.0,0.0,0.0,0.0,0.0,0.0,0.0,0.0,0.0,0.0476,0.0552,0.0,0.0,0.0,0.0,0.0,0.0,0.0,0.0,0.0,0.0,0.0,0.0,0.0,0.2112,0.2255,0.2135,0.2141,0.2271,0.2139,0.2072,0.2072,0.2072,0.2006,0.1917,0.1876,0.0,0.2423,0.2239,0.0,0.0,0.0,0.0,0.0,0.0,0.0,0.0,0.0,0.0,0.0,0.0,0.0,0.0,0.0,0.0,0.0,0.0,0.0,0.0,0.0,-0.2727,-0.2891,-0.3051,-0.3134,-0.3149,-0.3071,-0.2956,-0.2838,-0.2735,-0.2655,-0.2698,-0.2892,-0.296,-0.3124,-0.3421,-0.357,-0.3627,-0.3581,-0.3658,-0.3536,-0.3213,-0.281,-0.2259,-0.1646,-0.1409,0.0,0.0,0.0,0.0,0.0,0.0,0.0,0.0,0.0,0.0,0.0,0.0,0.0,0.0,0.0,0.0,0.0,0.0,0.0,0.0,0.0,0.0,0.0,0.0,0.0,0.0,0.0,0.0,0.0,0.0,0.0,0.0,0.0,0.0,0.0,0.0,0.0,0.0,0.0,0.0219,0.0205,0.0175,0.009,0.0045,0.0,0.0,0.0,0.0,0.0,0.0,0.0,0.0,0.0,0.1136,0.1419,0.159,0.1692,0.1759,0.1829,0.1903,0.186,0.1838,0.1839,0.1866,0.1853,0.1794,0.164,0.1695,0.1904,0.1784,0.1679,0.156,0.0,0.0,0.0,0.0,0.0949,0.0653,0.0,0.0,0.0,0.0,0.0,0.0,0.0,0.0,0.0,0.0,0.0,0.0,-0.2928,-0.3163,-0.339,-0.3616,-0.3672,-0.3688,-0.3626,-0.3407,-0.3216,-0.3062,-0.2952,-0.3024,-0.3277,-0.3341,-0.3613,-0.4068,-0.4105,-0.41,-0.4033,-0.4153,-0.4085,-0.3808,-0.3688,-0.3167,-0.2334,-0.2058,-0.1766,0.0,0.0,0.0,0.0,0.0,0.0,0.0,0.0,0.0,0.0,0.0,0.0,0.0,0.0,0.0,0.0,0.0,0.0,0.0,0.0,0.0,0.0,0.0,0.0,0.0,0.0,0.0,0.0,0.0,0.0,0.0,0.0,0.0,0.0,0.0,0.0,0.0,0.0,0.0,-0.0047,-0.0195,-0.0279,-0.0359,0.0,0.0,0.0,0.0,0.0,0.0,0.0407,0.0618,0.0734,0.0734,0.091,0.1055,0.1119,0.1273,0.1368,0.1403,0.1429,0.1402,0.1403,0.1469,0.1481,0.1479,0.1335,0.1286,0.1276,0.1325,0.1343,0.1275,0.1185,0.1031,0.0856,0.0833,0.0584,0.0159,0.0,0.0,0.0,0.0,0.0,0.0,0.0,0.0,0.0,0.0,0.0,-0.2861,-0.3326,-0.3327,-0.3476,-0.3943,-0.3814,-0.377,-0.3959,-0.3663,-0.3486,-0.3478,-0.3469,-0.3473,-0.349,-0.3743,-0.4099,-0.4573,-0.45,-0.4542,-0.466,-0.4783,-0.479,-0.4626,-0.4448,-0.3868,-0.3018,-0.2697,-0.2403,-0.2135,0.0,0.0,0.0,0.0,0.0,0.0,0.0,0.0,0.0,0.0,0.0,0.0,0.0,0.0,0.0,0.0,0.0,0.0,0.0,0.0,0.0,0.0,0.0,0.0,0.0,0.0,0.0,0.0,0.0,0.0,0.0,0.0,0.0,0.0,0.0,0.0,0.0,0.0,0.0,-0.0473,-0.0492,0.0,0.0,0.0,0.0,-0.0292,-0.009,0.0062,0.0192,0.0406,0.0522,0.0522,0.0513,0.0571,0.0625,0.0639,0.0654,0.0669,0.067,0.067,0.067,0.0671,0.0672,0.0672,0.067,0.0628,0.0666,0.0869,0.0963,0.1009,0.08,0.0615,0.0435,0.0446,-0.0035,-0.0664,0.0,0.0,0.0,0.0,0.0,-0.2745,-0.2708,-0.2681,-0.2718,-0.2883,-0.2972,-0.3169,-0.3552,-0.3838,-0.4086,-0.4307,-0.4375,-0.4353,-0.4191,-0.4082,-0.389,-0.364,-0.3632,-0.3756,-0.4008,-0.4353,-0.4612,-0.4799,-0.4766,-0.4778,-0.484,-0.4894,-0.4887,-0.4826,-0.4512,-0.4222,-0.3892,-0.3336,-0.2931,-0.2622,-0.2343,-0.2087,0.0,0.0,0.0,0.0,0.0,0.0,0.0,0.0,0.0,0.0,0.0,0.0,0.0,0.0,0.0,0.0,0.0,0.0,0.0,0.0,0.0,0.0,0.0,0.0,0.0,0.0,0.0,0.0,0.0,0.0,0.0,0.0,0.0,0.0,0.0,0.0,0.0,-0.067,-0.0755,0.0,-0.0831,-0.0783,-0.0737,-0.0693,-0.05,-0.0308,-0.0143,-0.0037,0.0038,0.0193,0.0319,0.0367,0.0411,0.0539,0.0585,0.059,0.0641,0.0646,0.0646,0.0654,0.0658,0.0657,0.0649,0.0559,0.0386,0.0327,0.0395,0.0463,0.0418,0.0075,-0.0373,-0.0376,-0.0877,-0.1659,0.0,0.0,0.0,0.0,-0.2805,-0.2783,-0.2745,-0.2769,-0.2851,-0.3011,-0.3212,-0.3486,-0.3869,-0.4194,-0.4488,-0.4678,-0.4775,-0.4702,-0.449,-0.4363,-0.4188,-0.3911,-0.3939,-0.4157,-0.4563,-0.4823,-0.4989,-0.5082,-0.5071,-0.5079,-0.5058,-0.5078,-0.5067,-0.5067,-0.4778,-0.4559,-0.4445,-0.3946,-0.3473,-0.3043,-0.2818,-0.2594,-0.2356,0.0,0.0,0.0,0.0,0.0,0.0,0.0,0.0,0.0,0.0,0.0,0.0,0.0,0.0,0.0,0.0,0.0,0.0,0.0,0.0,0.0,0.0,0.0,0.0,0.0,0.0,0.0,0.0,0.0,0.0,0.0,0.0,0.0,0.0,0.0,-0.0931,-0.098,-0.1087,-0.1146,-0.1078,-0.1037,-0.099,-0.0898,-0.0805,-0.0637,-0.0465,-0.0357,-0.0285,-0.0125,0.0085,0.0216,0.0218,0.0351,0.0396,0.0396,0.0446,0.0449,0.045,0.0364,0.032,0.032,0.0226,0.0045,-0.0224,-0.0439,-0.0561,-0.0594,-0.0327,-0.0644,-0.1246,-0.1246,-0.1785,-0.2624,0.0,0.0,0.0,-0.2805,-0.2805,-0.2805,-0.2805,-0.2914,-0.3066,-0.3277,-0.3478,-0.3787,-0.4255,-0.4371,-0.46,-0.5061,-0.4922,-0.482,-0.4812,-0.4514,-0.4318,-0.4314,-0.4444,-0.4702,-0.5106,-0.5101,-0.5226,-0.5409,-0.5432,-0.5428,-0.5403,-0.5392,-0.5395,-0.5395,-0.519,-0.4915,-0.46,-0.4478,-0.4044,-0.3429,-0.3418,-0.3135,-0.2737,0.0,0.0,0.0,0.0,0.0,0.0,0.0,0.0,0.0,0.0,0.0,0.0,0.0,0.0,0.0,0.0,0.0,0.0,0.0,0.0,0.0,0.0,0.0,0.0,0.0,0.0,0.0,0.0,0.0,0.0,0.0,0.0,0.0,-0.1522,-0.1434,-0.1402,-0.1344,-0.1451,-0.1425,-0.1242,-0.1198,-0.114,-0.0912,-0.0993,-0.0938,-0.0735,-0.0543,-0.0427,-0.0393,-0.0178,-0.0045,-0.0046,-0.0047,-0.0048,-0.0048,-0.0048,-0.0048,-0.0048,-0.0286,-0.043,-0.043,-0.0715,-0.1001,-0.1238,-0.1447,-0.1852,-0.2164,-0.1428,-0.156,-0.2148,-0.2148,-0.2695,-0.3535,0.0,0.0,-0.2805,-0.2805,-0.2805,-0.2805,-0.2805,-0.2914,-0.3066,-0.3277,-0.3522,-0.3831,-0.4248,-0.4533,-0.4796,-0.5082,-0.5131,-0.5175,-0.5174,-0.5069,-0.4952,-0.4814,-0.4886,-0.5039,-0.5248,-0.5394,-0.5547,-0.5759,-0.5758,-0.5674,-0.5556,-0.5533,-0.5488,-0.5395,-0.519,-0.5034,-0.4963,-0.4772,-0.4525,-0.4219,-0.3626,-0.3438,-0.3474,0.0,0.0,0.0,0.0,0.0,0.0,0.0,0.0,0.0,0.0,0.0,0.0,0.0,0.0,0.0,0.0,0.0,0.0,0.0,0.0,0.0,0.0,0.0,0.0,0.0,0.0,0.0,0.0,0.0,0.0,0.0,0.0,-0.3069,-0.2295,-0.2194,-0.213,-0.1917,-0.1941,-0.1884,-0.154,-0.1518,-0.1472,-0.1228,-0.1261,-0.1204,-0.1004,-0.0937,-0.082,-0.0698,-0.0608,-0.0564,-0.0567,-0.0627,-0.0633,-0.0633,-0.0642,-0.0646,-0.0646,-0.0931,-0.1071,-0.107,-0.1486,-0.181,-0.2094,-0.2555,-0.3021,-0.3385,-0.2693,-0.2732,-0.3216,-0.3345,-0.3915,-0.4618,0.0,-0.2756,-0.2805,-0.2805,-0.2805,-0.2805,-0.2805,-0.298,-0.3167,-0.3293,-0.3597,-0.3946,-0.4265,-0.4531,-0.4743,-0.495,-0.5163,-0.5275,-0.5191,-0.5302,-0.5293,-0.5136,-0.5302,-0.5411,-0.543,-0.5705,-0.5906,-0.6026,-0.6033,-0.5925,-0.5719,-0.565,-0.5521,-0.5399,-0.5322,-0.5248,-0.518,-0.5048,-0.4934,-0.476,-0.4141,-0.3978,-0.4069,-0.3838,-0.3798,-0.3862,-0.3959,-0.3828,-0.3605,-0.3535,0.0,0.0,0.0,0.0,0.0,0.0,0.0,0.0,0.0,0.0,0.0,0.0,0.0,0.0,0.0,0.0,0.0,0.0,0.0,0.0,0.0,0.0,0.0,0.0,-0.402,-0.4091,-0.3763,-0.3411,-0.3051,-0.2622,-0.255,-0.2423,-0.1982,-0.1938,-0.1859,-0.1687,-0.1735,-0.1727,-0.161,-0.1537,-0.1424,-0.1366,-0.1221,-0.1181,-0.12,-0.1264,-0.1271,-0.1271,-0.1285,-0.1343,-0.1446,-0.1737,-0.1983,-0.2235,-0.2611,-0.2983,-0.3354,-0.386,-0.4264,0.0,0.0,0.0,0.0,0.0,-0.4788,-0.5191,0.0,-0.2756,-0.2805,-0.2805,-0.2805,-0.2805,-0.2805,-0.3088,-0.3294,-0.3294,-0.3707,-0.4071,-0.4278,-0.4422,-0.4593,-0.4788,-0.506,-0.5178,-0.5052,-0.5345,-0.5453,-0.5326,-0.5605,-0.5744,-0.564,-0.6004,-0.6219,-0.6208,-0.6237,-0.6115,-0.5888,-0.5719,-0.5564,-0.5426,-0.5562,-0.5492,-0.5363,-0.5363,-0.5281,-0.5142,-0.4832,-0.4643,-0.4552,-0.4532,-0.4432,-0.4333,-0.4479,-0.4432,-0.4275,-0.4275,0.0,0.0,0.0,0.0,0.0,0.0,0.0,0.0,0.0,0.0,0.0,0.0,0.0,0.0,0.0,0.0,0.0,0.0,0.0,0.0,0.0,0.0,0.0,0.0,-0.48,-0.5122,-0.541,-0.4886,-0.4193,-0.3474,-0.3292,-0.3046,-0.2584,-0.2424,-0.235,-0.2305,-0.2348,-0.2401,-0.2353,0.0,0.0,0.0,0.0,-0.1907,-0.1969,-0.2027,-0.2029,-0.2029,-0.2087,-0.225,-0.2465,-0.2727,-0.315,-0.3735,-0.3995,-0.4376,-0.4872,-0.5289,-0.5579,-0.5601,-0.4688,-0.4616,-0.5059,-0.5367,-0.546,-0.5505,0.0,-0.2756,-0.2805,-0.2805,-0.2805,-0.2805,-0.2805,-0.3088,-0.3294,-0.3294,-0.3707,-0.4071,-0.4278,-0.4422,-0.4593,-0.4788,-0.4861,-0.4985,-0.5233,0.0,-0.5567,-0.5544,-0.5611,-0.571,-0.5831,-0.6069,-0.6249,-0.6367,-0.6367,-0.6218,-0.5888,-0.5855,-0.5728,-0.5549,-0.5576,-0.5654,-0.5688,-0.5688,-0.5621,-0.5513,-0.5422,-0.5173,-0.4797,-0.4714,-0.479,-0.4984,-0.4862,-0.4842,-0.4812,-0.4651,-0.453,-0.443,-0.4341,0.0,0.0,0.0,0.0,0.0,0.0,0.0,0.0,0.0,0.0,0.0,0.0,0.0,0.0,0.0,0.0,0.0,0.0,0.0,0.0,-0.4879,-0.5422,-0.5777,-0.5809,-0.599,-0.5739,-0.461,-0.4224,-0.3894,-0.341,-0.3313,-0.3158,-0.2921,-0.3029,-0.2997,-0.2796,-0.308,-0.3088,-0.2848,-0.3056,-0.3171,-0.3194,-0.3451,-0.3584,-0.3584,0.0,0.0,-0.4047,-0.4266,-0.4563,-0.499,-0.5403,-0.5783,-0.6173,-0.6576,-0.6751,-0.6716,-0.6092,-0.6044,-0.6299,-0.6039,-0.5949,-0.5949,-0.2697,-0.2756,-0.2805,-0.2805,-0.2805,-0.2805,-0.2805,-0.2995,-0.3187,-0.3279,-0.354,-0.3781,-0.3972,-0.4065,-0.4172,-0.4371,-0.4701,-0.504,0.0,-0.56,-0.5692,-0.5703,-0.5793,-0.5921,-0.6045,-0.6224,-0.6327,-0.6387,-0.6387,-0.6218,-0.5888,-0.5888,-0.5843,-0.5762,-0.5807,-0.5997,-0.6207,-0.6207,-0.6118,-0.6008,-0.5932,-0.569,-0.537,-0.5226,-0.5213,-0.5295,-0.5373,-0.5302,-0.5185,-0.5159,-0.5042,-0.4886,-0.4821,-0.47,-0.457,0.0,0.0,0.0,0.0,0.0,0.0,0.0,0.0,0.0,0.0,0.0,0.0,0.0,0.0,-0.4327,0.0,0.0,-0.5048,-0.547,-0.587,-0.6218,-0.6394,-0.6528,-0.6294,-0.5466,-0.5093,-0.4772,-0.4412,-0.4286,-0.4166,-0.4018,-0.4163,-0.4198,-0.4043,-0.4216,-0.4274,-0.4151,-0.431,-0.4491,-0.464,-0.4843,-0.4972,-0.5137,-0.5349,-0.5483,-0.5594,-0.5715,-0.6021,-0.6459,-0.6678,-0.6945,-0.7192,-0.7416,-0.7563,-0.766,-0.7232,-0.6942,-0.6777,-0.6575,-0.6502,-0.6459,-0.2702,-0.2745,-0.2783,-0.2805,-0.2805,-0.2805,-0.2805,-0.2914,-0.3066,-0.3277,-0.3372,-0.352,-0.3721,-0.3746,-0.3837,-0.4,-0.4552,-0.5021,0.0,-0.5544,-0.5688,-0.5702,-0.5944,-0.6102,-0.6154,-0.6306,-0.6387,-0.6387,-0.6387,-0.6251,-0.5954,-0.5954,-0.5959,-0.6013,-0.6143,-0.6419,-0.6712,-0.6749,-0.6669,-0.6472,-0.6379,-0.6207,-0.5987,-0.5885,-0.5737,-0.5623,-0.5841,-0.5795,-0.5607,-0.5616,-0.5526,-0.5382,-0.5261,-0.5213,-0.5155,-0.4977,-0.4925,0.0,0.0,0.0,0.0,0.0,0.0,0.0,0.0,0.0,-0.5428,-0.5137,-0.5084,-0.509,-0.5032,-0.5284,-0.5653,-0.6005,-0.6254,-0.6519,-0.6836,-0.6774,-0.6584,-0.6222,-0.5891,-0.5619,-0.5506,-0.5349,-0.5264,-0.5264,-0.5448,-0.5507,-0.5454,-0.5525,-0.5569,-0.5586,-0.5643,-0.5792,-0.6042,-0.6156,-0.6376,-0.6652,-0.676,-0.693,-0.7102,-0.7102,-0.7435,-0.794,-0.7995,-0.8081,-0.8199,-0.8154,-0.8186,-0.8343,-0.7963,-0.7543,-0.7105,-0.7004,-0.6935,-0.6935,0.0,-0.2708,-0.2735,-0.2794,-0.2805,-0.2805,-0.2805,-0.2914,-0.3066,-0.3277,-0.3453,-0.3663,-0.3854,-0.3922,-0.3997,-0.409,-0.4315,0.0,-0.4861,-0.5058,-0.522,-0.5349,-0.5709,-0.5926,-0.5947,-0.6245,-0.6387,-0.6387,-0.6387,-0.6317,-0.6181,-0.6181,-0.6218,-0.635,-0.6544,-0.6805,-0.7153,-0.7341,-0.7182,-0.6841,-0.6821,-0.6617,-0.6383,-0.6651,-0.6568,-0.6282,-0.6115,-0.616,-0.6228,-0.5884,-0.5758,-0.5736,-0.5714,-0.561,-0.544,-0.5414,0.0,-0.524,-0.524,-0.541,-0.5613,-0.5784,-0.6106,-0.6379,0.0,0.0,-0.6181,-0.5765,-0.5596,-0.5518,-0.5445,-0.5693,-0.6005,-0.6212,-0.6593,-0.6829,-0.6879,-0.6994,-0.7078,-0.7215,-0.6675,-0.6384,-0.65,-0.6503,-0.6497,-0.6497,-0.6661,-0.6683,-0.647,-0.6783,-0.6845,-0.6528,-0.6858,-0.703,-0.7043,-0.7487,-0.7768,-0.7823,-0.8371,-0.8644,-0.8644,-0.8644,-0.8871,-0.9213,-0.943,-0.9501,-0.9387,-0.8944,-0.8743,-0.8605,-0.8179,-0.7955,-0.7809,-0.7355,-0.7167,-0.712,0.0,-0.267,-0.2713,-0.2735,-0.2767,-0.2805,-0.2805,-0.2818,-0.2893,-0.3104,-0.3231,-0.3363,-0.3543,-0.3721,-0.3884,-0.4026,-0.4324,-0.4639,-0.4906,-0.511,-0.529,-0.5462,-0.575,-0.5967,-0.6065,-0.6415,-0.6576,-0.6576,-0.6646,-0.6613,-0.6478,-0.6478,-0.6546,-0.6689,-0.6794,-0.7007,-0.7364,-0.747,-0.7389,-0.7251,-0.7251,-0.7226,-0.7162,-0.7269,-0.7286,-0.7162,-0.6804,-0.6595,0.0,0.0,-0.6128,-0.6028,-0.6028,-0.5968,-0.5895,-0.5895,-0.5919,0.0,-0.6216,-0.6486,-0.6708,0.0,-0.6905,-0.7013,-0.7014,-0.7021,-0.6947,-0.6589,-0.6518,-0.6404,-0.6032,-0.6256,-0.6493,0.0,-0.6749,-0.6913,-0.6997,-0.718,-0.7333,-0.7485,-0.7348,-0.7167,-0.713,-0.7155,-0.7249,-0.7249,-0.743,-0.7627,-0.7682,-0.7846,-0.7986,-0.7983,-0.8094,-0.8263,-0.8488,-0.8712,-0.8875,-0.904,-0.9316,-0.9423,-0.9423,-0.9423,-0.9482,-0.9651,-0.9761,-0.9775,-0.9689,-0.927,-0.9019,-0.8781,-0.8381,-0.8137,-0.7975,-0.7749,-0.7654,-0.7608,0.0,-0.2621,-0.2681,-0.2702,-0.2745,-0.2778,-0.2794,-0.2745,-0.2784,-0.2997,-0.3104,-0.3246,-0.3467,-0.3648,-0.3827,-0.3978,-0.4295,-0.4596,-0.4884,-0.5136,-0.536,-0.5561,-0.5806,-0.6022,-0.6178,-0.6508,-0.6696,-0.6761,-0.6915,-0.6942,-0.6839,-0.6839,-0.6876,-0.6988,-0.7027,-0.7272,-0.7593,-0.7628,-0.7657,-0.7646,-0.7709,-0.775,-0.7817,-0.7871,-0.7886,-0.7861,-0.7405,-0.7052,0.0,0.0,-0.6673,-0.6561,-0.6561,-0.6561,-0.6561,-0.6507,-0.6552,-0.6696,-0.6974,0.0,0.0,-0.7568,-0.7651,-0.7772,-0.7764,-0.7733,-0.7649,-0.7284,-0.7241,-0.7143,-0.6652,-0.673,-0.6852,-0.6798,-0.6912,-0.702,-0.7075,-0.7275,-0.7428,-0.7584,-0.7726,-0.7731,-0.7579,-0.7703,-0.7817,-0.7855,-0.8129,-0.8446,-0.8706,-0.8816,-0.8927,-0.9144,-0.9144,-0.9258,-0.9489,-0.9596,-0.9761,-1.0033,-1.0143,-1.0198,-1.0308,-1.0308,-1.0308,-1.0308,-1.0308,-1.0253,-1.012,-0.9728,-0.9377,-0.9131,-0.8654,-0.8382,-0.8233,-0.8233,-0.8137,-0.7992,0.0,0.0,-0.2626,-0.2691,-0.2697,-0.2724,-0.2794,-0.2745,-0.2796,-0.3062,-0.3216,-0.3474,-0.3938,-0.3923,-0.3918,-0.399,-0.4136,-0.4335,-0.4587,-0.4989,-0.5287,-0.5505,-0.5879,-0.6085,-0.6089,-0.6432,-0.6692,-0.689,-0.7076,-0.7199,-0.7167,-0.7167,-0.7176,-0.7189,-0.7407,-0.7584,-0.7801,-0.8009,-0.8027,-0.8006,-0.8209,-0.8206,-0.812,-0.846,-0.8402,-0.8134,-0.7745,0.0,0.0,0.0,-0.7473,-0.7467,-0.7467,-0.7467,0.0,-0.7316,-0.7213,0.0,0.0,0.0,-0.7999,-0.7999,-0.8334,-0.8594,-0.8428,-0.838,-0.8272,-0.7868,-0.7614,-0.7437,-0.7211,-0.712,-0.7086,-0.6998,-0.7116,-0.7189,-0.7119,-0.7275,-0.7428,-0.7584,-0.7726,-0.7868,0.0,-0.818,-0.8336,-0.8472,-0.8895,-0.9215,-0.9372,-0.9596,-0.9761,-0.9761,-0.9761,-0.9761,-0.9816,-1.0091,-1.0417,-1.0692,-1.0966,-1.124,-1.1568,-1.1568,-1.1568,-1.1568,-1.1568,-1.135,-1.0988,-1.0412,-1.0004,-0.9711,-0.9056,-0.8775,-0.8775,-0.8775,-0.8432,-0.7988,0.0,0.0,0.0,-0.2626,-0.267,-0.2713,-0.2735,-0.2713,-0.2728,-0.2821,-0.3106,0.0,0.0,0.0,0.0,0.0,-0.4289,-0.4487,-0.4713,-0.5033,-0.5328,-0.5617,-0.5937,-0.6197,-0.6354,-0.6685,-0.6885,-0.6981,-0.717,-0.7261,-0.7265,-0.7412,-0.7423,-0.7329,-0.7541,-0.7612,-0.7602,-0.7774,-0.7903,-0.8017,-0.812,-0.8311,-0.8569,-0.8534,-0.8474,-0.8381,0.0,0.0,0.0,-0.7785,-0.7754,-0.7817,-0.8021,0.0,0.0,-0.8154,-0.817,-0.8212,-0.8365,0.0,-0.8736,-0.8795,-0.8936,-0.9062,-0.9026,-0.8906,-0.8722,-0.8449,-0.8136,-0.7796,-0.7459,-0.7456,-0.7438,-0.7283,-0.7511,-0.758,-0.739,-0.7591,-0.7679,-0.7594,-0.7814,0.0,0.0,0.0,0.0,-0.8472,-0.8945,-0.9316,-0.9644,-0.9981,-1.0308,-1.0633,-1.0637,-1.0747,-1.0966,-1.1131,-1.1185,-1.1295,-1.1568,-1.1837,-1.2114,-1.2114,-1.2005,-1.1896,-1.1896,-1.1678,-1.1374,-1.094,-1.0577,-1.0279,-0.9812,-0.9472,-0.9327,-0.9327,-0.9229,-0.9031,0.0,0.0,0.0,0.0,0.0,0.0,0.0,0.0,0.0,0.0,0.0,0.0,0.0,0.0,0.0,0.0,0.0,0.0,-0.4787,-0.5123,-0.5465,-0.5799,-0.6047,-0.6253,-0.6416,-0.6813,-0.7024,-0.7116,-0.7415,-0.7523,-0.7469,-0.7623,-0.7563,-0.7379,-0.7496,-0.7492,-0.7424,-0.7523,-0.7686,-0.7928,-0.8081,-0.8361,-0.8681,-0.8611,-0.8571,0.0,0.0,0.0,-0.8074,-0.8059,-0.8114,-0.8226,0.0,0.0,-0.8849,-0.911,-0.9178,-0.9236,-0.942,-0.9466,-0.9494,-0.9439,-0.9487,-0.9479,-0.9406,-0.9239,-0.9055,-0.8858,-0.8471,-0.8075,-0.7816,-0.7869,-0.7872,-0.7661,-0.7914,-0.8048,-0.7701,-0.7962,-0.8059,-0.7738,-0.7955,-0.8112,0.0,0.0,0.0,-0.8472,-0.9048,-0.9479,-0.9809,-1.0308,-1.0747,-1.1072,-1.1291,-1.1514,-1.1732,-1.1841,-1.2005,-1.2223,-1.2599,-1.2871,-1.3034,-1.3034,-1.2925,-1.2762,-1.2659,-1.2441,-1.2195,-1.1751,-1.1363,-1.1009,-1.0687,-1.0371,-1.0167,-1.0167,-1.0167,-1.0068,0.0,0.0,0.0,0.0,0.0,0.0,0.0,0.0,0.0,0.0,0.0,0.0,0.0,0.0,0.0,0.0,0.0,0.0,-0.4765,-0.5224,0.0,-0.5992,-0.6205,-0.6339,-0.6361,-0.679,-0.7101,-0.7305,-0.7727,-0.7867,-0.7755,-0.7736,-0.7565,-0.7264,-0.7274,-0.7284,-0.7294,-0.7299,-0.7507,-0.7809,-0.8099,-0.8311,-0.849,-0.8625,0.0,0.0,0.0,0.0,0.0,0.0,0.0,0.0,0.0,0.0,0.0,-1.0157,-1.0242,-1.0213,-1.0362,-1.0322,-1.0212,-1.0005,-0.9962,-0.9895,-0.9685,-0.9479,-0.928,-0.9062,-0.8628,-0.8303,0.0,0.0,-0.8314,-0.8074,-0.8361,-0.8487,-0.8009,-0.8432,-0.8524,0.0,0.0,0.0,0.0,0.0,0.0,-0.8587,0.0,-0.9691,-0.986,-1.0637,-1.1126,-1.1181,-1.1728,-1.206,-1.2114,-1.2387,-1.2767,-1.3369,-1.3954,-1.4277,-1.4277,-1.4277,-1.4277,-1.4223,-1.3905,-1.3586,-1.3295,-1.2854,-1.2369,-1.1845,-1.1682,-1.1473,-1.1292,-1.1292,-1.1292,-1.1149,0.0,0.0,0.0,0.0,0.0,0.0,0.0,0.0,0.0,0.0,0.0,0.0,0.0,0.0,0.0,0.0,0.0,0.0,0.0,0.0,0.0,0.0,-0.6415,-0.6702,-0.7116,-0.7132,-0.7178,-0.7234,-0.7188,-0.7118,-0.6991,-0.707,-0.6977,-0.6726,-0.6968,-0.7102,-0.7177,-0.7412,-0.7589,-0.7749,0.0,-0.8092,-0.8139,0.0,0.0,0.0,0.0,0.0,0.0,0.0,0.0,0.0,0.0,0.0,-1.11,0.0,0.0,-1.1431,-1.1693,-1.1454,-1.1063,-1.0959,-1.0797,-1.0521,-1.0072,-0.9829,-0.9542,-0.9104,-0.857,-0.8164,0.0,0.0,0.0,-0.8398,-0.8842,0.0,-0.8906,-0.9057,0.0,-0.857,0.0,-0.8932,-0.8874,-0.9145,0.0,0.0,-0.9594,-0.9854,-1.0464,-1.1131,-1.1678,-1.2055,-1.2659,-1.3044,-1.3261,-1.3576,-1.4008,-1.4557,-1.4713,-1.503,-1.5458,-1.5458,-1.5244,-1.4767,-1.4719,-1.439,-1.3938,-1.3657,-1.3372,-1.3038,-1.2849,-1.2618,-1.237,-1.237,-1.237,-1.237,0.0,0.0,0.0,0.0,0.0,0.0,0.0,0.0,0.0,0.0,0.0,0.0,0.0,0.0,0.0,0.0,0.0,0.0,0.0,0.0,0.0,-0.6307,-0.6511,-0.68,-0.7215,-0.7258,-0.7298,-0.7298,0.0,0.0,-0.6996,-0.7051,-0.6953,-0.6765,-0.6968,-0.7076,-0.7152,-0.7342,0.0,0.0,0.0,0.0,0.0,0.0,0.0,0.0,0.0,0.0,0.0,0.0,0.0,-1.0463,-1.0983,-1.1465,-1.1905,-1.2324,0.0,-1.2707,-1.2884,-1.263,-1.2279,-1.1928,-1.1508,-1.1055,-1.0597,-1.0102,-0.9639,-0.9252,-0.8772,0.0,0.0,0.0,0.0,0.0,0.0,0.0,-0.9404,-0.9762,-0.9875,0.0,-0.9636,0.0,-0.9942,-1.0084,-1.0424,0.0,-1.0375,-1.0369,-1.1067,-1.1787,-1.2387,-1.2767,-1.3635,-1.4229,-1.4659,-1.4982,-1.525,-1.5571,-1.5672,-1.5939,-1.6258,-1.6258,-1.6045,-1.5725,0.0,-1.541,-1.5125,-1.4881,-1.4566,-1.4174,-1.4083,-1.3804,-1.3431,-1.3335,-1.3286,-1.3286,0.0,0.0,0.0,0.0,0.0,0.0,0.0,0.0,0.0,0.0,0.0,0.0,0.0,0.0,0.0,0.0,0.0,0.0,0.0,0.0,0.0,-0.6376,-0.6533,-0.6767,-0.7077,-0.7311,-0.7417,0.0,0.0,0.0,0.0,0.0,0.0,0.0,0.0,0.0,0.0,0.0,0.0,0.0,0.0,0.0,0.0,0.0,0.0,0.0,0.0,0.0,0.0,0.0,-1.0655,-1.055,-1.1637,-1.2156,-1.2507,-1.3216,-1.3712,-1.3975,-1.3908,-1.3775,-1.3565,-1.2866,-1.2175,-1.155,-1.1154,-1.0419,-0.9761,-0.946,0.0,-0.8615,-0.8271,-0.846,-0.8651,-0.8632,0.0,-0.9875,-0.9727,-1.041,-1.0738,-1.0334,-1.0608,-1.0911,-1.1108,-1.1114,-1.1441,-1.2141,-1.1455,-1.1295,-1.1787,-1.2604,-1.3261,-1.3689,-1.4659,-1.5464,-1.5992,-1.6264,-1.6377,-1.643,-1.6683,-1.6783,-1.6836,-1.6836,-1.6783,-1.673,-1.653,0.0,-1.6324,-1.6105,-1.57,-1.5257,-1.522,-1.4898,-1.4443,-1.4112,-1.4004,-1.3956,0.0,0.0,0.0,0.0,0.0,0.0,0.0,0.0,0.0,0.0,-0.3832,-0.4047,0.0,0.0,0.0,0.0,0.0,0.0,0.0,0.0,0.0,0.0,-0.6516,-0.6898,-0.7572,0.0,0.0,0.0,0.0,0.0,0.0,0.0,0.0,0.0,0.0,0.0,0.0,0.0,0.0,0.0,0.0,0.0,0.0,0.0,0.0,0.0,0.0,0.0,0.0,0.0,-1.1241,-1.1819,-1.2622,-1.3288,-1.3819,-1.4114,-1.4565,-1.4934,-1.4812,-1.4515,-1.4209,-1.391,-1.3199,-1.2344,-1.1512,-1.1016,0.0,0.0,-0.9147,-0.8781,-0.8293,-0.8379,-0.8607,-0.883,0.0,0.0,0.0,0.0,-1.0854,0.0,0.0,0.0,0.0,0.0,0.0,0.0,0.0,-1.2876,-1.2989,-1.3635,-1.4546,-1.5737,-1.5951,-1.6211,-1.6571,-1.663,-1.6796,-1.7014,-1.7067,-1.7219,-1.7424,-1.7424,-1.7318,-1.712,-1.7067,0.0,-1.663,-1.6577,-1.6388,-1.6073,-1.5846,-1.5557,-1.5242,-1.4726,-1.4544,-1.4544,0.0,0.0,0.0,0.0,0.0,0.0,0.0,-0.2883,-0.3192,-0.3466,-0.37,-0.3917,-0.408,-0.4096,-0.4156,0.0,0.0,0.0,0.0,0.0,0.0,0.0,0.0,-0.7097,0.0,0.0,0.0,0.0,0.0,0.0,0.0,0.0,0.0,0.0,0.0,0.0,0.0,0.0,0.0,0.0,0.0,0.0,0.0,0.0,0.0,0.0,0.0,0.0,0.0,0.0,-1.1462,-1.2022,-1.2791,-1.3413,-1.3917,-1.4417,-1.4852,-1.5202,-1.5196,-1.5187,-1.5057,-1.4583,-1.3852,-1.3009,-1.2145,0.0,0.0,0.0,-0.9587,-0.9159,-0.8599,0.0,0.0,0.0,0.0,0.0,0.0,0.0,0.0,0.0,0.0,0.0,0.0,0.0,0.0,0.0,0.0,-1.439,-1.418,-1.4874,-1.5731,-1.6749,-1.6749,-1.6908,-1.716,-1.7153,-1.7265,-1.7437,-1.7437,-1.7483,-1.7582,-1.7582,-1.7536,-1.7437,-1.7437,0.0,-1.7153,-1.7153,-1.699,-1.6755,-1.6416,-1.613,-1.5849,-1.5316,-1.5022,-1.4885,0.0,0.0,0.0,0.0,0.0,0.0,0.0,-0.2947,-0.3257,-0.3482,-0.3609,-0.3789,-0.4081,-0.4073,-0.4107,0.0,0.0,0.0,0.0,0.0,0.0,0.0,0.0,0.0,0.0,0.0,0.0,0.0,0.0,0.0,0.0,0.0,0.0,0.0,0.0,0.0,0.0,0.0,0.0,0.0,0.0,0.0,0.0,0.0,0.0,0.0,0.0,0.0,0.0,0.0,-1.1576,-1.1995,-1.2626,-1.3172,-1.3682,-1.4322,-1.4859,-1.5295,-1.5341,-1.56,-1.571,-1.5067,-1.4308,-1.3486,-1.2668,-1.184,0.0,0.0,-1.0034,-0.9562,-0.9066,0.0,0.0,0.0,0.0,0.0,0.0,0.0,0.0,0.0,0.0,0.0,0.0,0.0,0.0,0.0,0.0,0.0,-1.5357,-1.6057,-1.6749,-1.7279,-1.7279,-1.7384,-1.7582,-1.7582,-1.7582,-1.7582,-1.7582,-1.7582,-1.7582,-1.7582,-1.7582,-1.7582,-1.7582,0.0,0.0,-1.7582,-1.7501,-1.7266,-1.6914,-1.6627,-1.6333,-1.5792,-1.536,-1.5083,0.0,0.0,0.0,0.0,0.0,0.0,0.0,-0.2968,-0.3293,-0.379,-0.3707,-0.3758,-0.4155,-0.4031,-0.3977,0.0,0.0,0.0,0.0,0.0,0.0,0.0,0.0,0.0,0.0,0.0,0.0,0.0,0.0,0.0,0.0,0.0,0.0,0.0,0.0,0.0,0.0,0.0,0.0,0.0,0.0,0.0,0.0,0.0,0.0,0.0,0.0,0.0,0.0,0.0,0.0,-1.2175,-1.2254,-1.2828,-1.3548,-1.3807,0.0,0.0,-1.527,-1.5462,-1.5643,-1.5261,-1.4588,-1.3762,-1.2745,0.0,0.0,-1.0827,-1.0375,-1.0017,-0.9614,-0.9402,0.0,0.0,0.0,-0.99,0.0,0.0,0.0,0.0,0.0,0.0,0.0,0.0,0.0,0.0,0.0,0.0,-1.6571,-1.6902,-1.7279,-1.7529,-1.7582,-1.7582,-1.7582,-1.7582,-1.7582,-1.7582,-1.7582,-1.7582,-1.7582,-1.7582,-1.7582,-1.7582,-1.7582,0.0,0.0,-1.7582,-1.7569,-1.7515,-1.7273,-1.6927,-1.6577,-1.6081,-1.5528,-1.5083,0.0,0.0,0.0,0.0,0.0,0.0,-0.2756,-0.2971,-0.3231,-0.36,-0.3586,-0.3613,-0.3813,-0.3763,-0.3831,-0.408,0.0,0.0,0.0,0.0,0.0,0.0,0.0,0.0,0.0,0.0,0.0,0.0,0.0,0.0,0.0,0.0,0.0,0.0,0.0,0.0,0.0,0.0,0.0,0.0,0.0,0.0,0.0,0.0,0.0,0.0,0.0,0.0,0.0,0.0,0.0,0.0,-1.1565,-1.2084,0.0,0.0,-1.4224,-1.4735,-1.5351,-1.5343,-1.524,-1.5187,-1.4413,-1.343,-1.2764,0.0,-1.1589,-1.1055,-1.0769,-1.048,-1.0035,-0.9776,-0.9556,-0.9288,-0.9476,-0.9742,-0.9941,0.0,0.0,0.0,0.0,0.0,0.0,0.0,0.0,0.0,0.0,0.0,-1.7206,-1.7371,-1.7483,-1.7582,-1.7582,-1.7582,-1.7582,-1.7582,-1.7582,-1.7582,-1.7582,-1.7582,-1.7582,-1.7582,-1.7582,-1.7582,-1.7582,0.0,0.0,-1.7582,-1.7582,-1.7555,-1.7313,-1.7018,-1.6673,-1.6281,-1.5796,-1.5309,0.0,0.0,0.0,0.0,0.0,-0.2461,-0.2658,-0.288,-0.3144,-0.3428,-0.3455,-0.3509,-0.3672,-0.3638,-0.3733,-0.4047,-0.4204,0.0,0.0,0.0,0.0,0.0,0.0,0.0,0.0,0.0,0.0,0.0,0.0,0.0,0.0,0.0,0.0,0.0,0.0,0.0,0.0,0.0,0.0,0.0,0.0,0.0,0.0,0.0,0.0,0.0,0.0,0.0,0.0,0.0,0.0,0.0,0.0,0.0,0.0,0.0,-1.3823,-1.4278,-1.5099,-1.5165,-1.5044,-1.507,-1.4268,-1.3318,0.0,-1.2166,-1.1546,-1.1226,-1.1049,-1.0845,-1.048,-1.019,-0.9903,-0.9572,-0.9644,-0.9728,-0.98,0.0,0.0,0.0,0.0,0.0,0.0,0.0,0.0,0.0,0.0,0.0,-1.7582,-1.7582,-1.7582,-1.7582,-1.7582,-1.7582,-1.7582,-1.7582,-1.7582,-1.7582,-1.7582,-1.7635,-1.7747,-1.7747,-1.774,-1.7845,-1.7845,0.0,0.0,-1.7747,-1.7687,-1.7562,-1.7414,-1.7146,-1.68,-1.6506,-1.6067,-1.5556,0.0,0.0,0.0,0.0,0.0,0.0,-0.2404,-0.2691,-0.3016,-0.3355,-0.3348,-0.3449,-0.3854,-0.3725,-0.3716,-0.3977,-0.4183,0.0,0.0,0.0,0.0,0.0,0.0,0.0,0.0,0.0,-0.7799,-0.8196,-0.8332,0.0,0.0,0.0,0.0,0.0,0.0,0.0,0.0,0.0,0.0,0.0,0.0,0.0,0.0,0.0,0.0,0.0,0.0,0.0,0.0,0.0,0.0,0.0,0.0,0.0,0.0,0.0,-1.3469,-1.4407,-1.4417,-1.4876,-1.5285,-1.4912,-1.4294,-1.3599,0.0,-1.2188,-1.1704,-1.1378,-1.1192,-1.1074,-1.0922,-1.0667,-1.0334,-0.9873,-0.9908,-0.9942,-0.9832,0.0,0.0,0.0,0.0,0.0,0.0,0.0,0.0,0.0,0.0,0.0,-1.7582,-1.7582,-1.7582,-1.7582,-1.7582,-1.7582,-1.7582,-1.7582,-1.7582,-1.7582,-1.7582,-1.7747,-1.8016,-1.8016,-1.8115,0.0,0.0,0.0,0.0,-1.8016,-1.7852,-1.7582,-1.7582,-1.7454,-1.7159,-1.6807,-1.6365,-1.5872,0.0,0.0,0.0,0.0,0.0,0.0,0.0,-0.2485,-0.2649,-0.2884,-0.3058,-0.3222,-0.3397,-0.3561,-0.3782,-0.4047,-0.4253,0.0,0.0,0.0,0.0,0.0,0.0,0.0,0.0,0.0,-0.7787,-0.8332,-0.8427,-0.8521,0.0,0.0,0.0,0.0,0.0,0.0,0.0,0.0,0.0,0.0,0.0,0.0,0.0,0.0,0.0,0.0,0.0,0.0,0.0,0.0,0.0,0.0,0.0,0.0,0.0,0.0,0.0,0.0,-1.4513,-1.4525,-1.4287,-1.4262,-1.3462,-1.2614,-1.2261,-1.18,-1.1422,-1.1318,-1.1054,-1.0878,-1.1007,-1.0748,-1.0408,-1.0126,-1.0222,0.0,0.0,0.0,0.0,0.0,0.0,0.0,0.0,0.0,0.0,0.0,0.0,0.0,-1.7582,-1.7582,-1.7582,-1.7582,-1.7582,-1.7582,-1.7582,-1.7582,-1.7694,-1.7852,-1.7852,-1.8108,-1.8572,-1.8572,-1.8736,0.0,0.0,0.0,0.0,-1.8572,-1.8265,-1.7852,-1.7852,-1.7624,-1.7166,-1.6814,-1.647,-1.6129,0.0,0.0,0.0,0.0,0.0,0.0,0.0,-0.2347,-0.2457,-0.2602,-0.2831,-0.3017,-0.3119,-0.34,-0.3709,-0.3998,-0.4348,0.0,0.0,0.0,0.0,0.0,0.0,0.0,0.0,-0.7247,-0.7756,-0.8242,-0.8622,-0.8848,-0.8931,-0.8952,-0.8973,0.0,0.0,0.0,0.0,0.0,0.0,0.0,0.0,0.0,0.0,0.0,0.0,0.0,0.0,0.0,0.0,0.0,0.0,0.0,0.0,0.0,0.0,0.0,-1.2658,0.0,0.0,-1.4063,-1.3936,-1.3967,-1.3279,-1.2577,-1.2385,-1.1787,-1.1303,-1.1367,-1.1059,-1.0864,-1.1132,-1.0964,-1.0739,-1.0499,-1.0681,0.0,0.0,0.0,0.0,0.0,0.0,0.0,0.0,0.0,0.0,0.0,0.0,0.0,-1.7582,-1.7582,-1.7582,-1.7582,-1.7582,-1.7635,-1.7747,-1.7747,-1.7957,-1.8325,-1.8325,-1.8632,-1.9294,-1.9294,-1.9517,0.0,0.0,0.0,0.0,-1.9094,-1.8736,-1.8265,-1.8167,-1.7946,-1.7571,-1.7157,-1.6891,-1.6674,0.0,0.0,0.0,0.0,0.0,0.0,0.0,-0.2266,-0.2408,-0.2473,-0.2668,-0.2837,-0.2964,-0.3255,-0.3565,-0.3898,0.0,0.0,0.0,0.0,0.0,0.0,0.0,0.0,-0.6627,-0.7194,-0.7672,-0.8018,-0.889,-0.931,-0.9331,-0.9413,-0.9447,-0.9405,-0.9171,0.0,0.0,0.0,0.0,0.0,0.0,0.0,0.0,0.0,0.0,0.0,0.0,0.0,0.0,0.0,0.0,0.0,0.0,0.0,0.0,0.0,0.0,0.0,0.0,-1.3502,0.0,0.0,-1.3525,-1.3154,-1.2889,-1.2061,0.0,-1.1463,-1.1153,-1.0974,-1.1274,-1.1301,-1.1217,-1.0972,0.0,0.0,0.0,0.0,0.0,0.0,0.0,0.0,0.0,0.0,0.0,0.0,0.0,0.0,-1.7635,-1.7635,-1.7635,-1.7635,-1.7687,-1.7799,-1.8016,-1.8069,-1.8318,-1.8878,-1.8878,-1.9346,-2.0181,-2.0233,-2.0498,0.0,0.0,0.0,0.0,-1.9628,-1.9212,-1.8878,-1.8624,-1.8475,-1.8404,-1.7808,-1.7576,-1.7421,0.0,0.0,0.0,0.0,0.0,0.0,0.0,0.0,0.0,0.0,-0.2541,-0.2751,-0.2843,-0.3362,-0.3838,0.0,0.0,0.0,0.0,0.0,0.0,0.0,0.0,0.0,-0.6834,-0.7316,-0.7784,-0.8231,-0.8998,-0.9431,-0.9542,-0.9916,-0.9912,-0.9645,-0.9677,-0.9485,0.0,0.0,0.0,0.0,0.0,0.0,0.0,0.0,0.0,0.0,0.0,-1.1199,0.0,0.0,0.0,0.0,0.0,0.0,0.0,0.0,-1.2268,-1.2277,-1.2328,0.0,-1.3048,-1.3167,-1.2876,-1.2486,0.0,-1.1813,-1.1422,-1.1304,0.0,-1.0807,-1.1471,-1.134,-1.1162,0.0,0.0,0.0,0.0,0.0,0.0,0.0,0.0,0.0,0.0,0.0,0.0,0.0,0.0,-1.7694,-1.7911,-1.7911,-1.801,-1.8213,-1.8415,-1.8468,-1.8325,-1.8527,-1.8982,-1.9768,-1.9768,-2.0233,-2.1011,-2.1216,-2.1369,0.0,0.0,0.0,-2.1011,-2.0865,-2.0447,-1.9768,-1.9717,-1.9465,-1.9013,-1.8615,-1.8318,-1.7994,0.0,0.0,0.0,0.0,0.0,0.0,0.0,0.0,0.0,0.0,0.0,-0.2686,-0.2914,-0.3314,0.0,0.0,0.0,0.0,0.0,0.0,0.0,0.0,0.0,-0.658,-0.6761,-0.7467,-0.7953,-0.8212,-0.9361,-0.9948,-1.0009,-1.046,-1.0447,-1.004,-0.9744,-0.9532,0.0,0.0,0.0,0.0,0.0,0.0,0.0,0.0,0.0,0.0,-1.1046,-1.1284,0.0,-1.1859,-1.2048,-1.2156,0.0,0.0,0.0,0.0,-1.221,-1.2192,-1.2131,-1.2392,-1.2754,-1.3044,-1.295,-1.2785,-1.2676,0.0,0.0,0.0,0.0,0.0,0.0,0.0,0.0,0.0,0.0,0.0,0.0,0.0,0.0,0.0,0.0,0.0,0.0,0.0,0.0,0.0,0.0,-1.7905,-1.8167,-1.8325,-1.8422,-1.8572,-1.9086,-1.925,-1.8997,-1.925,-1.9864,-2.085,-2.085,-2.1259,-2.2021,-2.2173,-2.2325,0.0,0.0,0.0,-2.1818,-2.1573,-2.1165,-2.0652,-2.0498,-2.03,-2.0004,-1.9669,-1.9326,-1.8935,0.0,0.0,0.0,0.0,0.0,0.0,0.0,0.0,0.0,0.0,0.0,0.0,0.0,0.0,0.0,0.0,0.0,0.0,0.0,0.0,0.0,0.0,0.0,-0.6636,-0.671,-0.7635,-0.8167,-0.8308,-0.9777,-1.0525,-1.0596,-1.1027,-1.0989,-1.053,-0.9736,-0.9457,0.0,0.0,0.0,0.0,0.0,0.0,0.0,0.0,0.0,0.0,0.0,0.0,0.0,-1.196,-1.2259,-1.2449,-1.2449,0.0,0.0,0.0,0.0,0.0,-1.2131,-1.24,-1.2797,-1.3131,-1.3303,-1.3403,-1.3354,0.0,0.0,0.0,0.0,0.0,0.0,0.0,0.0,0.0,0.0,0.0,0.0,0.0,0.0,0.0,0.0,0.0,0.0,0.0,0.0,0.0,0.0,-1.8272,-1.8632,-1.8885,-1.9034,-1.9138,-1.9923,-2.0241,-2.0086,-2.0241,-2.085,-2.1827,-2.1878,-2.2274,-2.2979,-2.3029,-2.3188,-2.3406,0.0,0.0,-2.2577,-2.2131,-2.1776,-2.1522,-2.1267,-2.1173,-2.1089,-2.0835,-2.0457,-1.9998,0.0,0.0,0.0,0.0,0.0,0.0,0.0,0.0,0.0,0.0,0.0,0.0,0.0,0.0,0.0,0.0,0.0,0.0,0.0,0.0,0.0,-0.672,-0.6634,-0.6808,-0.7267,-0.7808,-0.8467,-0.9199,-1.0077,-1.0676,-1.1022,-1.1525,-1.1462,-1.0883,-1.0084,-0.9833,-1.001,0.0,0.0,0.0,0.0,0.0,0.0,0.0,0.0,0.0,0.0,0.0,0.0,-1.1751,-1.2169,-1.2656,-1.2656,0.0,0.0,0.0,0.0,0.0,-1.215,-1.2486,-1.2926,-1.3152,-1.3335,-1.3407,-1.3132,0.0,0.0,0.0,0.0,0.0,0.0,0.0,0.0,0.0,0.0,0.0,0.0,0.0,0.0,0.0,0.0,0.0,0.0,0.0,0.0,0.0,0.0,-1.9042,-1.982,-1.9872,-2.0138,-2.0557,-2.1165,-2.1514,-2.1717,-2.1564,-2.1768,-2.2375,-2.2627,-2.2937,-2.3347,-2.3546,-2.3546,-2.3397,0.0,-2.3497,-2.3247,-2.3147,-2.2937,-2.2627,-2.2627,-2.2476,-2.2274,-2.2206,-2.1618,-2.0754,0.0,0.0,0.0,0.0,0.0,0.0,0.0,0.0,0.0,0.0,0.0,0.0,0.0,0.0,0.0,0.0,0.0,0.0,0.0,0.0,0.0,-0.6848,-0.6999,-0.722,-0.7509,-0.8184,-0.8844,-0.9448,-1.0376,-1.1031,-1.1442,-1.1481,-1.1407,-1.118,-1.0411,-1.0137,-1.0264,-1.0467,0.0,0.0,0.0,0.0,0.0,0.0,0.0,0.0,0.0,0.0,0.0,0.0,-1.2125,-1.2426,-1.2718,0.0,0.0,0.0,0.0,0.0,-1.221,-1.2708,-1.3277,-1.3208,-1.342,-1.3682,-1.3747,-1.3326,0.0,0.0,0.0,0.0,0.0,0.0,0.0,0.0,0.0,0.0,0.0,0.0,0.0,0.0,0.0,0.0,0.0,0.0,0.0,0.0,0.0,0.0,-1.9903,-2.0195,-2.0494,-2.0751,-2.1378,-2.1763,-2.1861,-2.2074,-2.2478,-2.3188,-2.3338,-2.3538,-2.3854,-2.3954,-2.3954,-2.3854,0.0,-2.3854,-2.3596,-2.3596,-2.3447,-2.3188,-2.3188,-2.3088,-2.2935,-2.2516,-2.2044,-2.1549,0.0,0.0,0.0,0.0,0.0,0.0,0.0,0.0,0.0,0.0,0.0,0.0,0.0,0.0,0.0,0.0,0.0,0.0,0.0,0.0,-0.6559,-0.6906,-0.7393,-0.7698,-0.7765,-0.8595,-0.9319,-0.9881,-1.0786,-1.1429,-1.1762,-1.1455,-1.133,-1.1342,-1.0725,-1.0525,-1.0668,-1.0935,-1.118,0.0,0.0,0.0,0.0,0.0,0.0,0.0,0.0,0.0,0.0,0.0,0.0,0.0,0.0,0.0,0.0,-1.2745,-1.2609,-1.2473,-1.2264,-1.2889,-1.3552,-1.3316,0.0,-1.4012,-1.4303,-1.3967,0.0,0.0,0.0,0.0,0.0,0.0,0.0,0.0,0.0,0.0,0.0,0.0,0.0,0.0,0.0,0.0,0.0,0.0,0.0,0.0,0.0,0.0,-2.0208,-2.0644,-2.0885,-2.0942,-2.1548,-2.1873,-2.1873,-2.2375,-2.2925,-2.366,-2.3709,-2.3903,-2.4202,-2.4202,-2.4202,-2.4202,-2.4202,-2.4102,-2.3895,-2.3895,-2.3746,-2.3605,-2.3605,-2.3605,-2.3498,-2.2604,-2.231,-2.2155,0.0,0.0,0.0,0.0,0.0,0.0,0.0,0.0,0.0,0.0,0.0,0.0,0.0,0.0,0.0,0.0,0.0,0.0,0.0,0.0,-0.639,-0.6969,-0.7731,-0.8174,-0.8244,-0.9046,-0.9965,-1.0972,-1.143,-1.1766,-1.1985,-1.1758,-1.153,-1.1276,-1.0989,-1.1067,-1.1423,-1.146,-1.1682,-1.1995,0.0,0.0,0.0,0.0,0.0,0.0,0.0,0.0,0.0,0.0,0.0,0.0,0.0,0.0,-1.3037,-1.278,-1.2609,-1.2473,-1.2264,-1.2889,-1.3572,-1.3431,-1.3883,-1.4343,-1.4313,-1.3877,0.0,-1.366,0.0,0.0,0.0,0.0,0.0,0.0,0.0,0.0,0.0,0.0,0.0,0.0,0.0,0.0,0.0,0.0,0.0,0.0,0.0,0.0,-2.1531,-2.1579,-2.1731,-2.1995,-2.228,-2.2422,-2.2422,-2.2715,-2.2971,-2.3147,-2.339,-2.3736,-2.4202,-2.4202,-2.4202,-2.4202,-2.4202,-2.4202,-2.4152,-2.4152,-2.4152,-2.4152,-2.4152,-2.4152,-2.4002,-2.2949,-2.2555,-2.2438,0.0,0.0,0.0,0.0,0.0,0.0,0.0,0.0,0.0,0.0,0.0,0.0,0.0,0.0,0.0,0.0,0.0,0.0,0.0,-0.6124,-0.6413,-0.6984,-0.7575,-0.8087,-0.848,-0.949,-1.037,-1.111,-1.2117,-1.2659,-1.2678,-1.2396,-1.2069,-1.1722,-1.145,-1.1468,-1.17,-1.1854,-1.2102,-1.2283,-1.1449,0.0,0.0,0.0,0.0,0.0,0.0,0.0,0.0,0.0,-1.1239,-1.1699,-1.2323,-1.2627,-1.2814,-1.2926,-1.2797,-1.2645,-1.2747,-1.317,-1.3652,-1.3858,-1.4372,0.0,0.0,-1.472,-1.4684,-1.4839,-1.4837,0.0,0.0,0.0,0.0,0.0,0.0,0.0,0.0,0.0,0.0,0.0,0.0,0.0,0.0,0.0,0.0,0.0,0.0,0.0,-2.1248,-2.1403,-2.155,-2.166,-2.188,-2.2062,-2.2245,-2.2335,-2.2621,-2.3057,-2.3099,-2.3206,-2.3409,-2.3409,-2.3409,-2.3409,-2.3409,-2.3547,-2.3776,-2.3776,-2.3923,-2.4202,-2.4202,-2.4202,-2.4137,-2.3423,-2.301,-2.2671,0.0,0.0,0.0,0.0,0.0,0.0,0.0,0.0,0.0,0.0,0.0,0.0,0.0,0.0,0.0,0.0,0.0,0.0,-0.5935,-0.6041,-0.6372,-0.7035,-0.7494,-0.7968,-0.8455,-0.9657,-1.0578,-1.1265,-1.253,-1.3086,-1.2931,-1.2626,-1.2299,-1.1962,-1.1808,-1.1884,-1.2095,-1.2282,-1.249,-1.2601,-1.1563,-1.1308,0.0,0.0,0.0,0.0,0.0,0.0,0.0,0.0,-1.1097,-1.1413,-1.2266,-1.26,-1.273,-1.304,-1.2943,-1.2782,-1.3031,-1.3372,-1.3785,-1.429,0.0,0.0,-1.5489,-1.5423,-1.535,-1.5562,-1.5657,0.0,0.0,0.0,0.0,0.0,0.0,0.0,0.0,0.0,0.0,0.0,0.0,0.0,0.0,0.0,0.0,0.0,0.0,0.0,0.0,-2.1517,-2.166,-2.1696,-2.1874,-2.1998,-2.2185,-2.2185,-2.2405,-2.2813,-2.275,-2.2843,-2.3054,-2.3054,-2.3007,-2.2904,-2.2904,-2.3059,-2.3306,-2.3306,-2.3519,-2.3776,-2.3776,-2.3776,-2.3721,-2.3308,-2.294,-2.2648,0.0,0.0,0.0,0.0,0.0,0.0,0.0,0.0,0.0,0.0,0.0,0.0,0.0,0.0,0.0,0.0,0.0,0.0,-0.5648,-0.5768,-0.6216,-0.7159,-0.7598,-0.7929,-0.8195,-0.9518,-1.0663,-1.1606,-1.2611,-1.2942,-1.2605,-1.2398,-1.2157,-1.1909,-1.2048,-1.2341,-1.2709,-1.2709,-1.285,-1.3007,-1.1952,-1.1638,0.0,0.0,0.0,0.0,0.0,0.0,0.0,0.0,-1.11,-1.1669,-1.2067,-1.2476,-1.2848,-1.312,-1.3005,-1.2853,-1.305,-1.3454,-1.3993,0.0,0.0,0.0,-1.6371,-1.5865,-1.536,-1.5571,0.0,-1.5835,-1.6248,0.0,0.0,0.0,0.0,0.0,0.0,0.0,0.0,0.0,0.0,0.0,0.0,0.0,0.0,0.0,0.0,0.0,0.0,-2.2097,-2.2185,-2.2388,-2.2397,-2.2397,-2.2397,-2.2397,-2.2397,-2.2397,-2.2397,-2.2706,-2.328,-2.328,-2.313,-2.2895,-2.2895,-2.2895,-2.2904,-2.2904,-2.2904,-2.2904,-2.2904,-2.2904,-2.2858,-2.2437,-2.2282,-2.2227,0.0,0.0,0.0,0.0,0.0,0.0,0.0,0.0,0.0,0.0,0.0,0.0,0.0,0.0,0.0,0.0,0.0,0.0,-0.5852,-0.5981,-0.643,-0.7369,-0.7618,-0.7965,-0.8466,-0.9708,-1.0964,-1.2234,-1.2722,-1.2857,-1.2669,-1.276,-1.2608,-1.2258,-1.2449,-1.2644,-1.2855,-1.3,-1.3173,-1.3327,-1.2733,-1.2314,0.0,0.0,0.0,0.0,0.0,0.0,0.0,0.0,0.0,0.0,-1.1642,-1.2054,-1.2432,-1.2692,-1.3096,-1.3472,-1.3689,-1.4009,0.0,-1.5267,0.0,0.0,0.0,-1.6247,0.0,0.0,0.0,-1.6991,0.0,0.0,0.0,0.0,0.0,0.0,0.0,0.0,0.0,0.0,0.0,0.0,0.0,0.0,0.0,0.0,0.0,0.0,0.0,-2.2309,-2.2353,-2.2397,-2.2397,-2.2485,-2.2662,-2.2662,-2.275,-2.2872,-2.2872,-2.2786,-2.2676,-2.2505,-2.2415,-2.2334,-2.2143,-2.2208,-2.2492,-2.2785,-2.2904,-2.2904,-2.2904,-2.2904,-2.2895,-2.2767,-2.2538,-2.2263,0.0,0.0,0.0,0.0,0.0,0.0,0.0,0.0,0.0,0.0,0.0,0.0,0.0,0.0,0.0,0.0,0.0,0.0,0.0,-0.6181,-0.6652,-0.7618,-0.7812,-0.8202,-0.8864,-0.9648,-1.0603,-1.1716,-1.2039,-1.2288,-1.2465,-1.2445,-1.257,-1.2835,-1.2758,-1.2995,-1.3415,-1.3381,-1.3484,-1.365,-1.3264,-1.2801,-1.2301,0.0,0.0,0.0,0.0,0.0,0.0,0.0,0.0,0.0,-1.1552,-1.1966,-1.2302,-1.259,-1.3187,-1.3809,-1.4026,-1.4467,0.0,-1.5791,-1.6071,-1.6243,-1.6466,0.0,0.0,0.0,0.0,0.0,0.0,0.0,0.0,0.0,0.0,0.0,0.0,0.0,0.0,0.0,0.0,0.0,0.0,0.0,0.0,0.0,0.0,0.0,0.0,-2.2574,-2.2618,-2.2696,-2.2696,-2.275,-2.2925,-2.2925,-2.2969,-2.3091,-2.3091,-2.296,-2.2662,-2.2353,-2.2185,-2.2097,-2.183,-2.1824,-2.2062,-2.2318,-2.2428,-2.2428,-2.2428,-2.2428,-2.2428,-2.2428,-2.2263,-2.2044,0.0,0.0,0.0,0.0,0.0,0.0,0.0,0.0,0.0,0.0,-0.3952,0.0,0.0,0.0,0.0,0.0,0.0,0.0,0.0,0.0,-0.6887,-0.7901,-0.8148,-0.8581,-0.927,-0.9403,-0.9777,-1.0388,-1.0832,-1.1392,-1.2043,-1.1815,-1.2342,-1.3506,-1.3113,-1.3412,-1.4215,-1.3758,-1.3707,-1.3915,-1.3508,-1.3029,-1.2485,-1.2068,0.0,0.0,0.0,0.0,0.0,0.0,0.0,0.0,-1.1671,-1.2006,-1.2309,-1.2638,-1.3298,-1.3964,-1.4156,0.0,0.0,0.0,0.0,0.0,0.0,0.0,0.0,0.0,0.0,0.0,0.0,0.0,0.0,0.0,0.0,0.0,0.0,0.0,0.0,0.0,0.0,0.0,0.0,0.0,0.0,0.0,0.0,0.0,0.0,-2.2838,-2.2969,-2.3144,-2.3178,-2.3178,-2.3178,-2.3178,-2.3135,-2.3144,-2.3144,-2.3135,-2.3091,-2.2662,-2.2309,-2.2097,-2.183,-2.1696,-2.1696,-2.1696,-2.1696,-2.1696,-2.1696,-2.1696,-2.1696,-2.1696,-2.1696,-2.1696,0.0,0.0,0.0,0.0,0.0,0.0,0.0,0.0,0.0,0.0,0.0,0.0,0.0,0.0,0.0,0.0,0.0,0.0,0.0,0.0,-0.7178,-0.8241,-0.8537,-0.8814,-0.9133,-0.9228,-0.9357,-0.9559,-1.0282,-1.0998,-1.1709,-1.224,-1.292,-1.3729,-1.3856,-1.4187,-1.4612,-1.3679,-1.3398,-1.3571,-1.3118,-1.2581,-1.2053,-1.1991,-1.1594,0.0,0.0,0.0,0.0,0.0,0.0,0.0,-1.1168,-1.1494,-1.1885,-1.2166,-1.3066,-1.4038,0.0,-1.4916,0.0,0.0,0.0,0.0,0.0,0.0,0.0,0.0,0.0,0.0,0.0,0.0,0.0,0.0,0.0,0.0,0.0,0.0,0.0,0.0,0.0,0.0,0.0,0.0,0.0,0.0,0.0,0.0,-2.3329,-2.3329,-2.345,-2.3624,-2.3667,-2.3667,-2.3667,-2.3667,-2.358,0.0,-2.3406,-2.3319,-2.3101,-2.2838,-2.2495,-2.2097,-2.183,-2.1696,-2.1696,-2.1696,-2.1696,-2.1696,-2.1696,-2.1696,-2.1696,-2.1696,-2.1696,-2.1696,0.0,0.0,0.0,0.0,0.0,0.0,0.0,0.0,0.0,0.0,0.0,0.0,0.0,0.0,0.0,0.0,0.0,0.0,0.0,-0.6941,-0.7503,-0.8695,-0.8894,-0.9071,-0.9232,-0.9311,-0.9378,-0.9446,-1.0117,-1.0763,-1.1379,-1.2375,-1.3415,-1.4412,-1.4363,-1.4535,-1.4777,-1.3767,-1.3259,-1.3161,-1.2969,-1.2521,-1.1948,-1.2,-1.1633,-1.1097,-1.1097,0.0,0.0,0.0,0.0,0.0,0.0,0.0,-1.1763,-1.2095,-1.2929,-1.3828,0.0,0.0,0.0,0.0,0.0,0.0,0.0,0.0,0.0,0.0,0.0,0.0,0.0,0.0,0.0,0.0,0.0,0.0,0.0,0.0,0.0,0.0,0.0,0.0,0.0,0.0,0.0,0.0,0.0,-2.3406,-2.3624,-2.3764,-2.3894,-2.398,-2.409,-2.4122,-2.4122,-2.4122,-2.4046,-2.3851,-2.3851,-2.3634,-2.3276,-2.2925,-2.2583,-2.223,-2.2087,-2.1998,-2.1874,-2.1874,-2.183,-2.1696,-2.1696,-2.1696,-2.1696,-2.1696,-2.1696,-2.1696,0.0,0.0,0.0,0.0,0.0,0.0,0.0,0.0,0.0,0.0,0.0,0.0,0.0,0.0,0.0,0.0,0.0,0.0,0.0,-0.722,-0.7935,-0.9101,-0.9232,-0.9339,-0.9448,-0.9526,-0.9604,-0.9645,-1.0279,-1.0829,-1.125,-1.2609,-1.3921,-1.5165,-1.4863,-1.484,-1.4923,-1.3831,-1.3106,-1.2663,-1.2659,-1.2334,-1.1844,-1.1844,-1.1535,-1.1097,-1.1097,-1.1097,-1.1097,-1.1097,0.0,0.0,0.0,0.0,-1.1652,-1.2046,-1.264,-1.3353,0.0,0.0,0.0,0.0,0.0,0.0,0.0,0.0,0.0,0.0,0.0,0.0,0.0,0.0,0.0,0.0,0.0,0.0,0.0,0.0,0.0,0.0,0.0,0.0,0.0,0.0,0.0,0.0,0.0,-2.3695,-2.378,-2.4004,-2.4142,-2.4227,-2.4408,-2.4513,-2.4587,-2.4587,-2.4522,-2.4368,-2.4249,-2.3991,-2.359,-2.3188,-2.2794,-2.2485,-2.2441,-2.2309,-2.2141,-2.2097,-2.1963,-2.1785,-2.1741,-2.1696,-2.1696,-2.1696,-2.1696,-2.1696,0.0,0.0,0.0,0.0,0.0,0.0,0.0,0.0,0.0,0.0,-0.4932,-0.5059,-0.5059,-0.5234,0.0,0.0,0.0,0.0,-0.653,0.0,0.0,-0.9331,-0.9539,-0.9645,-0.9658,-0.9776,-0.9854,-0.9867,-1.0917,-1.153,-1.1742,-1.3374,-1.4598,-1.5453,-1.5623,-1.5568,-1.5229,-1.3591,-1.2579,-1.2057,-1.1561,-1.1308,-1.1223,-1.1223,-1.1167,-1.1097,-1.1097,-1.1097,-1.1097,-1.1097,-1.1097,0.0,0.0,0.0,0.0,-1.152,-1.1877,-1.2383,0.0,0.0,0.0,0.0,0.0,0.0,0.0,0.0,0.0,0.0,0.0,0.0,0.0,0.0,0.0,0.0,0.0,0.0,0.0,0.0,0.0,0.0,0.0,0.0,0.0,0.0,0.0,0.0,-2.3094,-2.3339,-2.3694,-2.3745,-2.3947,-2.4371,-2.44,-2.4594,-2.5025,-2.5025,-2.5035,-2.5073,-2.4497,-2.4163,-2.412,-2.3797,-2.3319,-2.2706,-2.2485,-2.2397,-2.2353,-2.2185,-2.2097,-2.2008,-2.1776,-2.1696,-2.1696,-2.1696,-2.1696,-2.1696,0.0,0.0,0.0,0.0,0.0,0.0,0.0,0.0,0.0,0.0,0.0,-0.5281,-0.532,-0.5464,0.0,0.0,0.0,0.0,-0.7174,-0.8063,0.0,-0.9595,-0.9789,-0.9918,-1.0034,-1.0085,-1.0135,-1.0173,-1.1279,-1.1919,-1.2122,-1.4264,-1.5445,-1.5795,-1.5978,-1.5862,-1.5397,-1.3567,-1.2481,-1.1956,-1.1338,-1.1308,-1.1605,-1.1605,-1.1605,-1.1605,-1.1605,-1.138,-1.1097,-1.1097,-1.1097,-1.1097,-1.1097,0.0,0.0,0.0,0.0,0.0,-1.2814,0.0,0.0,0.0,0.0,0.0,0.0,0.0,0.0,0.0,0.0,0.0,0.0,0.0,0.0,0.0,0.0,0.0,0.0,0.0,0.0,0.0,0.0,0.0,0.0,0.0,0.0,0.0,-2.3646,-2.3887,-2.4086,-2.4205,-2.4403,-2.4708,-2.4837,-2.5043,-2.5374,-2.5255,-2.526,-2.5357,-2.465,-2.445,-2.4743,-2.4229,-2.3721,-2.3198,-2.3057,-2.2882,-2.2618,-2.2539,-2.2362,-2.2097,-2.1963,-2.183,-2.1696,-2.1696,-2.1696,-2.1696,0.0,0.0,0.0,0.0,0.0,0.0,0.0,0.0,0.0,0.0,0.0,0.0,-0.5826,0.0,0.0,0.0,0.0,0.0,-0.7818,0.0,0.0,0.0,0.0,-1.0211,-1.0362,-1.0387,-1.0424,-1.0486,-1.1572,-1.2212,-1.2437,-1.4921,-1.6118,-1.6136,-1.6226,-1.6038,-1.551,-1.3807,-1.2759,-1.2209,-1.1758,-1.1856,-1.2251,-1.2251,-1.2251,-1.2251,-1.2251,-1.187,0.0,0.0,0.0,0.0,0.0,0.0,0.0,0.0,0.0,0.0,0.0,0.0,0.0,0.0,0.0,0.0,0.0,0.0,0.0,0.0,0.0,0.0,0.0,0.0,0.0,0.0,0.0,0.0,0.0,0.0,0.0,0.0,0.0,0.0,0.0,0.0,0.0,0.0,-2.4043,-2.4327,-2.4404,-2.4559,-2.474,-2.4948,-2.5112,-2.5283,-2.5562,-2.5497,-2.5486,-2.5552,-2.4846,-2.4809,-2.5271,-2.4693,-2.4255,-2.3927,-2.3667,-2.3363,-2.3057,-2.2925,-2.2671,-2.2353,-2.223,-2.2008,-2.1785,-2.1785,-2.1785,-2.1696,0.0,0.0,0.0,0.0,0.0,0.0,0.0,0.0,0.0,0.0,0.0,0.0,-0.6712,-0.674,-0.6583,-0.6212,0.0,0.0,0.0,0.0,0.0,0.0,0.0,0.0,-1.0584,-1.0644,-1.0668,-1.0668,-1.1885,-1.251,-1.2649,-1.5189,-1.6405,-1.6476,-1.6476,-1.6194,-1.5621,-1.4373,-1.3502,-1.2953,-1.2911,-1.2925,-1.2953,-1.2953,-1.2953,-1.2953,-1.2953,0.0,0.0,0.0,0.0,0.0,0.0,0.0,-1.1087,0.0,0.0,0.0,0.0,0.0,0.0,0.0,0.0,0.0,0.0,0.0,0.0,0.0,0.0,0.0,0.0,0.0,0.0,0.0,0.0,0.0,0.0,0.0,0.0,0.0,0.0,0.0,0.0,0.0,0.0,0.0,-2.3793,-2.4086,-2.4462,-2.4499,-2.4607,-2.48,-2.4836,-2.5059,-2.5491,-2.5745,-2.582,-2.5673,-2.5211,-2.5165,-2.5451,-2.5196,-2.5054,-2.5073,-2.4176,-2.3754,-2.3711,-2.3276,-2.3057,-2.3013,-2.2574,-2.2264,-2.2097,-2.2097,-2.1919,-2.1696,0.0,0.0,0.0,0.0,0.0,0.0,0.0,0.0,0.0,0.0,0.0,0.0,0.0,-0.7203,-0.6948,-0.6852,-0.6963,0.0,0.0,0.0,0.0,0.0,0.0,0.0,0.0,-1.0837,-1.0849,-1.0885,-1.1674,-1.2306,-1.283,-1.4512,-1.5549,-1.6019,-1.6834,-1.688,-1.6255,-1.5005,-1.4135,0.0,-1.3572,-1.3811,-1.419,-1.4583,-1.4738,-1.4682,0.0,0.0,0.0,0.0,0.0,0.0,-1.1675,-1.1408,-1.1085,-1.1015,-1.1201,0.0,0.0,0.0,0.0,0.0,0.0,0.0,0.0,0.0,0.0,0.0,0.0,0.0,0.0,0.0,0.0,0.0,0.0,0.0,0.0,0.0,0.0,0.0,0.0,0.0,0.0,0.0,0.0,0.0,0.0,-2.4526,-2.4682,-2.4682,-2.4778,-2.4992,-2.4992,-2.5075,-2.5253,-2.5334,-2.5446,-2.555,-2.5275,-2.531,-2.5639,-2.5534,-2.5455,-2.5396,-2.5209,-2.4818,-2.4209,-2.3927,-2.3711,-2.3493,-2.3047,-2.2706,-2.2495,-2.223,-2.2052,-2.1919,0.0,0.0,0.0,0.0,0.0,0.0,0.0,0.0,0.0,-0.7329,0.0,0.0,0.0,0.0,-0.7714,-0.7648,-0.7825,-0.8243,-0.8946,-0.9461,0.0,0.0,0.0,0.0,0.0,-1.0991,-1.0991,-1.1027,-1.1592,-1.212,-1.2619,-1.3864,-1.4775,-1.5438,-1.6491,-1.6747,-1.6298,0.0,0.0,-1.4499,0.0,0.0,-1.5483,-1.589,-1.6045,-1.5972,0.0,0.0,0.0,0.0,0.0,0.0,0.0,-1.2069,-1.1382,-1.1322,-1.144,0.0,-1.2333,0.0,0.0,0.0,0.0,0.0,0.0,0.0,0.0,0.0,0.0,0.0,0.0,0.0,0.0,0.0,0.0,0.0,0.0,0.0,0.0,0.0,0.0,0.0,0.0,0.0,0.0,0.0,0.0,0.0,-2.4957,-2.4957,-2.5016,-2.5147,-2.5182,-2.5182,-2.5182,-2.5182,-2.5218,-2.5381,-2.5223,-2.5319,-2.5616,-2.5629,-2.5633,-2.5638,-2.601,-2.5721,-2.4935,-2.4658,-2.4444,-2.4219,-2.3667,-2.3276,-2.2979,-2.2583,-2.2362,-2.2185,0.0,0.0,0.0,0.0,0.0,0.0,0.0,0.0,-0.7922,-0.8537,0.0,0.0,0.0,0.0,0.0,-0.8557,-0.8724,-0.9123,-0.976,-0.9936,0.0,0.0,0.0,0.0,-1.1097,-1.1097,-1.1097,-1.1097,-1.1689,-1.1984,-1.2028,-1.3277,-1.4162,-1.478,-1.5354,-1.5621,-1.5593,-1.5045,-1.5158,-1.5705,0.0,-1.6143,-1.6737,0.0,0.0,0.0,-1.6779,-1.6354,0.0,-1.5761,0.0,0.0,0.0,-1.3038,-1.2028,-1.195,-1.1849,0.0,0.0,0.0,0.0,0.0,0.0,0.0,0.0,0.0,0.0,0.0,0.0,0.0,0.0,0.0,0.0,0.0,0.0,0.0,0.0,0.0,0.0,0.0,0.0,0.0,0.0,0.0,0.0,0.0,-2.5111,-2.5147,-2.5276,-2.5312,-2.5312,-2.5312,-2.5312,-2.5312,-2.5312,-2.5312,-2.5241,-2.5111,-2.5111,-2.5241,-2.5507,-2.5481,-2.5651,-2.5923,-2.6484,-2.6404,-2.5915,-2.5411,-2.5242,-2.5158,-2.4497,-2.3937,-2.3503,-2.3232,-2.2828,-2.2397,0.0,0.0,0.0,0.0,0.0,-0.837,-0.7975,-0.7879,-0.8081,0.0,0.0,0.0,-1.0271,-1.0224,-0.9948,-0.9424,-0.9554,-0.9741,-0.993,-1.0422,-1.0836,-1.1062,-1.1062,-1.1073,-1.1097,-1.1097,-1.1097,-1.1097,-1.128,-1.1563,-1.2012,-1.2364,-1.2869,-1.3502,-1.3671,-1.3755,-1.3825,-1.4977,0.0,-1.5747,-1.6227,-1.6789,0.0,0.0,0.0,0.0,0.0,-1.8259,-1.7656,0.0,-1.6238,-1.5045,0.0,0.0,-1.2714,-1.2701,-1.2634,0.0,-1.335,0.0,0.0,0.0,0.0,0.0,0.0,0.0,0.0,0.0,0.0,0.0,0.0,0.0,0.0,0.0,0.0,0.0,0.0,0.0,0.0,0.0,0.0,0.0,0.0,0.0,0.0,0.0,-2.5241,-2.5276,-2.5312,-2.5312,-2.5312,-2.5312,-2.5312,-2.5312,-2.5312,-2.5312,-2.5276,-2.5241,-2.5241,-2.5218,-2.5206,-2.5549,-2.5686,-2.5639,-2.6589,-2.6911,-2.6754,-2.63,-2.6071,-2.5863,-2.52,-2.4786,-2.4433,-2.3831,-2.3309,-2.2882,0.0,0.0,0.0,-0.9246,-0.9328,-0.9409,-0.9452,-0.9402,-0.9525,0.0,0.0,0.0,-1.1417,-1.1482,-1.1329,-1.0976,-1.0849,-1.078,-1.078,-1.0947,-1.105,-1.1097,-1.1097,-1.1097,-1.1097,-1.1097,-1.1097,-1.1097,-1.1097,-1.128,-1.1619,-1.1619,-1.197,-1.2574,-1.2574,-1.2742,-1.3094,-1.4387,0.0,0.0,-1.6705,0.0,0.0,-1.9438,-1.9817,0.0,0.0,0.0,-1.9248,-1.8883,-1.7927,0.0,0.0,0.0,0.0,0.0,0.0,0.0,0.0,0.0,0.0,0.0,0.0,0.0,0.0,-1.5474,0.0,0.0,0.0,0.0,0.0,0.0,0.0,0.0,0.0,0.0,0.0,0.0,0.0,0.0,0.0,0.0,0.0,-2.5051,-2.5206,-2.5276,-2.5312,-2.5312,-2.5312,-2.5312,-2.5312,-2.5312,-2.5312,-2.5312,-2.5312,-2.5312,-2.5312,-2.5312,-2.5312,-2.5276,-2.5194,-2.5469,-2.5528,-2.5467,-2.6308,-2.6768,-2.6901,-2.6868,-2.6787,-2.6558,-2.5988,-2.5485,-2.5073,-2.4562,-2.4046,-2.3537,0.0,0.0,-0.9875,-1.0365,-1.0556,-1.0854,-1.146,-1.155,-1.16,0.0,-1.1938,-1.2249,-1.2657,-1.2906,-1.2995,-1.2926,-1.2428,-1.2063,-1.1923,-1.1456,-1.1167,-1.1097,-1.1097,-1.1097,-1.1097,-1.1097,-1.1097,-1.1097,-1.1097,-1.1097,-1.1097,-1.1097,-1.138,-1.19,-1.19,-1.2223,-1.2826,-1.3516,0.0,-1.5719,-1.6986,-1.8259,0.0,0.0,-2.0442,-2.0512,-2.0569,-2.0555,-2.0484,-2.0414,-1.9536,0.0,0.0,0.0,0.0,0.0,-1.5392,0.0,0.0,0.0,0.0,0.0,0.0,0.0,-1.5442,-1.5614,-1.5913,0.0,0.0,0.0,0.0,0.0,0.0,0.0,0.0,0.0,0.0,0.0,0.0,0.0,0.0,0.0,-2.4422,-2.4867,-2.5168,-2.5216,-2.5276,-2.5312,-2.5312,-2.5312,-2.5312,-2.5312,-2.5312,-2.5312,-2.5312,-2.5312,-2.5312,-2.5312,-2.5312,-2.5312,-2.5312,-2.5312,-2.5312,-2.5336,-2.5865,-2.6259,-2.6612,-2.7195,-2.7375,-2.7226,-2.6775,-2.6238,-2.5622,-2.5411,-2.4914,-2.4282,0.0,-1.0175,-1.0621,-1.0766,-1.1213,-1.1642,-1.1877,-1.2262,-1.2574,-1.2716,-1.3711,-1.4651,-1.5231,-1.5122,-1.4848,-1.4347,-1.3822,-1.308,-1.2043,-1.1887,-1.1605,-1.1125,-1.1097,-1.1097,-1.1097,-1.1097,-1.1097,-1.1097,-1.1097,-1.1097,-1.1097,-1.1097,-1.1167,-1.128,-1.128,-1.135,-1.1547,-1.2699,0.0,-1.5089,-1.6354,0.0,-1.946,-2.0147,-2.0695,-2.1181,-2.1673,-2.1547,-2.1054,-2.0555,-1.9536,-1.8442,0.0,0.0,0.0,-1.6466,0.0,-1.6351,-1.6603,0.0,0.0,0.0,0.0,0.0,-1.5882,-1.5905,-1.5969,0.0,0.0,0.0,0.0,0.0,0.0,0.0,0.0,0.0,0.0,0.0,0.0,0.0,0.0,0.0,-2.3866,-2.4047,-2.4242,-2.4638,-2.5071,-2.5312,-2.5312,-2.5312,-2.5312,-2.5312,-2.5312,-2.5312,-2.5312,-2.5312,-2.5312,-2.5312,-2.5312,-2.5312,-2.5312,-2.5312,-2.5312,-2.5336,-2.5865,-2.6129,-2.626,-2.7244,-2.7676,-2.7708,-2.74,-2.7033,-2.6592,-2.6332,-2.5737,-2.4988,-1.0979,-1.1242,-1.1611,-1.1987,-1.2554,-1.3071,-1.3486,-1.3997,-1.4385,-1.4523,-1.524,-1.587,-1.6203,-1.6177,-1.6036,-1.5714,-1.4863,-1.4078,-1.3445,-1.2518,-1.1872,-1.1563,-1.1266,-1.1097,-1.1097,-1.1097,-1.1097,-1.1097,-1.1097,-1.1097,-1.1097,-1.1097,-1.1266,-1.1549,-1.1549,-1.1731,-1.2123,0.0,-1.4415,-1.5354,-1.6635,0.0,-1.9957,-2.0618,-2.1223,-2.1786,-2.2095,-2.2011,-2.1659,-2.1054,-2.0414,0.0,0.0,-1.8602,-1.766,0.0,-1.7618,-1.7211,-1.752,0.0,0.0,-1.7502,0.0,0.0,0.0,-1.6571,-1.6474,-1.6422,0.0,0.0,0.0,0.0,0.0,0.0,0.0,0.0,0.0,0.0,0.0,0.0,0.0,0.0,-2.2963,-2.3493,-2.3914,-2.4133,-2.4386,-2.465,-2.4903,-2.4915,-2.5035,-2.53,-2.5312,-2.5312,-2.5312,-2.5312,-2.5312,-2.5312,-2.5312,-2.5312,-2.5312,-2.5312,-2.5312,-2.5324,-2.5588,-2.5853,-2.6142,-2.6683,-2.7083,-2.7426,-2.7738,-2.7563,-2.7167,-2.694,-2.6445,-2.5821,-1.1993,-1.2118,-1.247,-1.3164,-1.3866,-1.4516,-1.5084,-1.5725,-1.6244,-1.6477,-1.6771,-1.6968,-1.7023,-1.7254,-1.7295,-1.7056,-1.6115,-1.5314,-1.4836,-1.3389,-1.2448,-1.2195,-1.173,-1.1406,-1.128,-1.128,-1.1223,-1.1097,-1.1097,-1.1097,-1.1097,-1.1097,-1.1422,-1.2012,-1.2139,-1.2559,0.0,0.0,0.0,-1.6,0.0,-1.8826,-2.047,-2.1068,-2.1659,-2.2208,-2.2208,-2.2208,-2.2137,-2.1631,-2.1392,-2.1195,-2.0731,-1.9796,0.0,0.0,0.0,0.0,0.0,0.0,0.0,0.0,0.0,-1.7781,0.0,0.0,0.0,-1.7045,0.0,0.0,0.0,0.0,0.0,0.0,0.0,0.0,0.0,0.0,0.0,0.0,0.0,0.0,0.0,-2.2814,-2.3465,-2.3637,-2.3649,-2.3878,-2.435,-2.4374,-2.4614,-2.5143,-2.5155,-2.5204,-2.5312,-2.5312,-2.5312,-2.5312,-2.5312,-2.5312,-2.5312,-2.5312,-2.5312,-2.5312,-2.5312,-2.5552,-2.5949,-2.6057,-2.637,-2.6837,-2.7738,-2.7865,-2.7463,-2.7395,-2.7103,-2.664,-1.1697,-1.2047,-1.2701,-1.3431,-1.4456,-1.5237,-1.5423,-1.6399,-1.735,-1.7887,-1.8551,-1.8966,-1.8986,-1.9586,-1.9529,-1.8386,-1.8161,-1.7136,-1.4949,-1.4612,-1.3993,-1.2939,-1.2826,-1.2503,-1.1914,-1.19,-1.1633,-1.1097,-1.1097,-1.1097,-1.1097,-1.1097,-1.1422,-1.2026,-1.2616,0.0,0.0,0.0,-1.5972,0.0,-1.7913,-1.9206,0.0,-2.1068,-2.1659,-2.2208,-2.2208,-2.2208,-2.2194,0.0,-2.1729,-2.1302,0.0,-2.0731,-2.0203,-2.0274,0.0,0.0,0.0,0.0,0.0,0.0,-1.9195,0.0,0.0,0.0,-1.7872,-1.7872,0.0,0.0,0.0,0.0,0.0,0.0,0.0,0.0,0.0,0.0,0.0,0.0,0.0,0.0,0.0,-2.1574,-2.2207,-2.3035,-2.3095,-2.3336,-2.3866,-2.389,-2.4085,-2.459,-2.4568,-2.4831,-2.53,-2.5312,-2.5312,-2.5312,-2.5312,-2.5312,-2.5312,-2.5312,-2.5312,-2.5312,-2.5312,-2.5336,-2.5432,-2.5901,-2.6142,-2.6298,-2.7342,-2.7606,-2.7459,-2.7921,-2.7805,-2.7348,-1.2705,-1.3036,-1.3481,-1.4166,-1.4971,-1.568,-1.6142,-1.7227,-1.8213,-1.8827,-1.9174,-1.9523,-1.9887,-2.021,-2.0189,-1.9655,0.0,-1.8428,0.0,0.0,-1.5342,-1.4107,-1.3713,-1.3038,-1.2026,-1.2012,-1.1703,-1.1097,-1.1097,-1.1097,-1.1111,-1.145,-1.1956,-1.2616,-1.3614,0.0,-1.5033,0.0,-1.7169,0.0,0.0,0.0,0.0,-2.1195,-2.1659,-2.2208,-2.2208,-2.2208,-2.2208,0.0,-2.2025,0.0,0.0,0.0,0.0,0.0,0.0,0.0,0.0,0.0,0.0,0.0,0.0,0.0,-1.8565,0.0,-1.8293,0.0,0.0,0.0,0.0,0.0,0.0,0.0,0.0,0.0,0.0,0.0,0.0,0.0,0.0,0.0,0.0,0.0,0.0,0.0,-2.2056,-2.2406,-2.297,-2.3212,-2.3688,-2.446,-2.4484,-2.4771,-2.53,-2.5312,-2.5312,-2.5312,-2.5312,-2.5312,-2.5312,-2.5312,-2.5312,-2.5312,-2.5312,-2.5312,-2.5324,-2.554,-2.5636,-2.5721,-2.6478,-2.7088,-2.7621,-2.8068,-2.8099,-2.7886,-1.3585,-1.3808,-1.4033,-1.4696,-1.5298,-1.5972,-1.6817,-1.7983,-1.8905,-1.9333,-1.9705,-2.0154,-2.0821,-2.1032,0.0,0.0,-2.0533,-1.9831,0.0,0.0,-1.6705,-1.5623,-1.4977,-1.4064,-1.2799,-1.2771,-1.2307,-1.1338,-1.1338,-1.1266,-1.1111,-1.1717,-1.2363,-1.3065,-1.4429,-1.548,-1.6294,0.0,-1.8442,-1.9121,-2.0203,-2.1012,-2.1547,-2.1547,-2.1814,-2.2208,-2.2208,-2.2208,-2.2208,-2.2208,-2.2208,0.0,-2.2208,0.0,0.0,0.0,0.0,0.0,-2.0892,0.0,0.0,0.0,0.0,0.0,0.0,0.0,0.0,0.0,0.0,0.0,0.0,0.0,0.0,0.0,0.0,0.0,0.0,0.0,0.0,0.0,0.0,0.0,0.0,0.0,0.0,0.0,0.0,-2.1513,-2.2134,-2.2423,-2.3027,-2.4061,-2.4242,-2.4566,-2.5083,-2.524,-2.5312,-2.5312,-2.5312,-2.5312,-2.5312,-2.5312,-2.5312,-2.5312,-2.5312,-2.5312,-2.5312,-2.5312,-2.5312,-2.536,-2.5889,-2.6683,-2.7534,-2.7932,-2.818,-2.8259,-1.387,-1.3939,-1.4092,-1.4696,-1.5298,-1.6126,-1.7379,-1.8596,-1.9376,-1.939,-2.047,0.0,0.0,0.0,0.0,0.0,0.0,-2.1617,-2.0414,0.0,-1.8147,-1.7534,-1.693,-1.6002,0.0,-1.471,-1.3811,-1.197,-1.197,-1.1675,-1.1111,-1.1717,-1.2363,-1.308,-1.4878,-1.6365,-1.7618,-1.8835,-1.9733,-2.0386,-2.1012,-2.1617,-2.218,0.0,-2.218,-2.2208,-2.2208,0.0,0.0,-2.2208,-2.2208,0.0,0.0,0.0,0.0,0.0,0.0,0.0,0.0,0.0,0.0,-2.1378,0.0,0.0,0.0,0.0,-1.8498,0.0,0.0,0.0,0.0,0.0,0.0,0.0,0.0,0.0,0.0,0.0,0.0,0.0,0.0,0.0,0.0,0.0,0.0,0.0,0.0,0.0,-2.1593,-2.15,-2.1945,-2.2991,-2.3553,-2.4037,-2.4508,-2.5059,-2.5312,-2.5312,-2.5312,-2.5312,-2.5312,-2.5312,-2.5312,-2.5312,-2.5312,-2.5312,-2.5312,-2.5312,-2.5312,-2.536,-2.5889,-2.6454,-2.6982,-2.751,-2.8026,-2.8471,-1.5125,-1.5309,-1.5206,-1.4963,-1.5476,-1.6295,-1.7489,-1.8649,-1.9705,0.0,-2.1378,0.0,0.0,-2.3642,-2.3769,0.0,0.0,-2.2925,-2.1673,-2.1195,0.0,-1.8849,-1.8203,-1.7323,0.0,0.0,0.0,0.0,-1.2855,-1.2559,-1.2376,0.0,0.0,0.0,0.0,-1.6817,0.0,0.0,0.0,0.0,0.0,-2.2615,-2.2746,0.0,-2.2461,-2.2788,-2.2788,-2.308,0.0,-2.3445,-2.3445,-2.3445,-2.3445,-2.3445,-2.3445,-2.3445,-2.3445,0.0,0.0,0.0,-2.2634,-2.2053,0.0,0.0,0.0,0.0,0.0,0.0,0.0,0.0,0.0,0.0,0.0,0.0,0.0,0.0,0.0,0.0,0.0,0.0,0.0,0.0,0.0,0.0,0.0,0.0,-2.0486,0.0,0.0,-2.1136,-2.1728,-2.2438,-2.3348,-2.4047,-2.4518,-2.5035,-2.5312,-2.5312,-2.5312,-2.5312,-2.5312,-2.5312,-2.5312,-2.5312,-2.5312,-2.5312,-2.5312,-2.5312,-2.5312,-2.5324,-2.5504,-2.5901,-2.649,-2.7392,-2.8053,-2.8471,-1.6221,-1.641,-1.628,-1.58,-1.6243,-1.6981,-1.7912,-1.9033,0.0,0.0,-2.2151,0.0,-2.4585,0.0,-2.4838,0.0,-2.4866,-2.4303,-2.3262,-2.2784,0.0,-2.0449,-1.9824,0.0,0.0,0.0,0.0,0.0,0.0,-1.353,0.0,0.0,0.0,0.0,0.0,-1.714,-1.8012,0.0,-2.0484,0.0,0.0,-2.3238,0.0,0.0,-2.3122,-2.3473,0.0,-2.3727,-2.4092,-2.4092,-2.4092,-2.4092,-2.4092,-2.4092,-2.4092,-2.4092,-2.4092,-2.4092,-2.4092,-2.3783,0.0,-2.2686,-2.1763,0.0,-2.0231,0.0,0.0,0.0,0.0,0.0,0.0,0.0,0.0,0.0,0.0,0.0,0.0,0.0,0.0,0.0,0.0,0.0,0.0,0.0,-1.9301,-1.9921,0.0,0.0,0.0,0.0,-2.1415,-2.1897,-2.2975,-2.3737,-2.4254,-2.4771,-2.5119,-2.5312,-2.5312,-2.5312,-2.5312,-2.5312,-2.5312,-2.5312,-2.5312,-2.5312,-2.5312,-2.5312,-2.5312,-2.5312,-2.5312,-2.5636,-2.6178,-2.6887,-2.7488,-2.7906,-1.7107,-1.725,0.0,0.0,-1.7605,0.0,0.0,0.0,-2.0973,0.0,-2.2817,-2.3926,-2.5739,-2.5964,-2.6217,-2.6807,-2.6329,-2.5711,-2.5091,-2.3898,0.0,0.0,-2.1701,-2.0815,-1.9578,0.0,0.0,0.0,0.0,0.0,0.0,0.0,0.0,0.0,-1.5879,0.0,-1.8602,-1.9866,-2.1125,-2.2306,-2.2953,-2.3586,-2.4134,-2.4177,-2.4177,-2.4177,-2.4149,-2.4149,-2.4177,-2.4177,-2.4177,-2.4177,-2.4177,-2.4177,-2.4177,-2.4177,-2.4177,-2.4177,-2.4177,-2.4163,-2.398,-2.3336,0.0,0.0,0.0,0.0,-2.0442,0.0,0.0,0.0,0.0,0.0,0.0,0.0,0.0,0.0,0.0,0.0,0.0,0.0,0.0,0.0,0.0,0.0,-1.8129,-1.9061,-1.8688,0.0,0.0,0.0,-2.0984,-2.1356,-2.2414,-2.3264,-2.3794,-2.4266,-2.4748,-2.5312,-2.5312,-2.5312,-2.5312,-2.5312,-2.5312,-2.5312,-2.5312,-2.5312,-2.5312,-2.5312,-2.5312,-2.5312,-2.5312,-2.5612,-2.6069,-2.6117,-2.6478,-2.6898,-1.7591,-1.8514,-1.9349,0.0,-1.9122,-1.8765,0.0,0.0,0.0,0.0,-2.4221,-2.5528,-2.6469,-2.7003,-2.7383,-2.7523,-2.7411,0.0,0.0,0.0,0.0,-2.3656,-2.2995,-2.2269,-2.1496,-1.9957,0.0,-1.8054,0.0,0.0,-1.5228,0.0,0.0,0.0,0.0,0.0,-1.8657,-1.9928,-2.1462,-2.3102,-2.4219,-2.4704,0.0,0.0,-2.5456,-2.5386,-2.4936,-2.5063,-2.5456,-2.5456,-2.5456,-2.5456,-2.5456,-2.5456,-2.5456,-2.5456,-2.5456,-2.5456,-2.5456,-2.5119,-2.4725,-2.457,-2.3674,-2.2704,0.0,0.0,0.0,0.0,0.0,0.0,0.0,0.0,0.0,0.0,0.0,0.0,0.0,0.0,0.0,0.0,0.0,0.0,0.0,0.0,-1.7529,-1.8124,0.0,0.0,0.0,0.0,0.0,-2.0947,-2.2283,-2.3264,-2.3794,-2.4266,-2.4748,-2.5312,-2.5312,-2.5312,-2.5312,-2.5312,-2.5312,-2.5312,-2.5312,-2.5312,-2.5312,-2.5312,-2.5312,-2.5312,-2.5312,-2.5396,-2.5612,-2.6381,-2.6777,-2.6898,-1.8608,-1.9548,0.0,-2.1118,0.0,0.0,-2.0841,-2.1923,0.0,-2.4165,-2.5233,0.0,-2.7495,-2.7959,-2.8199,-2.8199,-2.8199,0.0,-2.6778,0.0,0.0,-2.495,-2.4542,-2.3772,-2.263,-2.1299,0.0,-1.9326,0.0,0.0,-1.6202,0.0,0.0,0.0,0.0,-1.7413,0.0,-2.0542,-2.2349,-2.3914,-2.4895,0.0,0.0,-2.5956,-2.6056,-2.6041,-2.5687,-2.5706,-2.5893,-2.5893,-2.5893,-2.5893,-2.5893,-2.5893,-2.5893,-2.5893,-2.5893,-2.5893,-2.5893,-2.564,-2.5344,-2.5077,-2.4472,-2.3758,-2.3164,-2.2756,-2.2419,0.0,0.0,0.0,0.0,0.0,0.0,0.0,0.0,0.0,0.0,0.0,0.0,0.0,0.0,0.0,0.0,0.0,0.0,0.0,0.0,0.0,0.0,0.0,0.0,-2.0775,-2.1795,-2.2794,-2.3881,-2.4083,-2.4601,-2.5418,-2.5347,-2.5312,-2.5312,-2.5312,-2.5312,-2.5312,-2.5312,-2.5312,-2.5312,-2.5312,-2.5312,-2.5312,-2.5312,-2.5312,-2.5384,-2.5997,-2.6189,-2.6189,-2.0014,0.0,0.0,0.0,0.0,0.0,0.0,-2.3314,0.0,-2.5822,0.0,-2.6877,-2.8521,-2.8759,-2.8816,-2.8816,0.0,-2.8549,-2.7974,-2.7932,-2.7397,-2.6188,-2.6062,-2.5219,-2.3505,-2.2704,-2.1729,0.0,0.0,-1.7437,-1.6898,0.0,0.0,0.0,0.0,0.0,0.0,-2.147,-2.3416,-2.4576,-2.5266,-2.5854,-2.6313,-2.6313,-2.6313,-2.6313,-2.6313,-2.6138,-2.5921,-2.5921,-2.5921,-2.5893,-2.5893,-2.5893,-2.5893,-2.5893,-2.5893,-2.5893,-2.5893,-2.5893,-2.5767,-2.526,-2.5133,-2.4964,-2.4359,-2.4205,-2.4191,-2.4106,-2.3642,-2.3013,0.0,0.0,0.0,0.0,0.0,0.0,0.0,0.0,0.0,0.0,0.0,0.0,0.0,0.0,0.0,0.0,0.0,0.0,0.0,0.0,0.0,-2.0726,-2.1226,-2.2285,-2.4034,0.0,-2.4425,-2.5606,-2.5382,-2.5312,-2.5312,-2.5312,-2.5312,-2.5312,-2.5312,-2.5312,-2.5312,-2.5312,-2.5312,-2.5312,-2.5312,-2.5312,-2.5312,-2.5312,-2.5276,-2.5276,-2.1847,0.0,0.0,0.0,0.0,-2.5578,-2.5327,-2.5372,-2.5738,-2.654,-2.7551,-2.8324,-2.8661,-2.9139,-2.9448,-2.9448,-2.9448,0.0,0.0,0.0,0.0,-2.751,-2.6933,-2.6259,-2.5416,-2.3786,-2.2386,0.0,-1.8905,-1.7509,-1.6967,0.0,0.0,0.0,0.0,0.0,-2.052,-2.2637,0.0,-2.469,-2.5839,-2.6291,-2.6313,-2.6313,-2.6313,-2.6313,-2.6313,-2.6206,-2.6056,-2.6056,-2.5975,-2.5893,-2.5893,-2.5893,-2.5893,-2.5893,-2.5893,-2.5893,-2.5893,-2.5893,-2.5865,-2.5767,-2.5725,-2.557,-2.4978,-2.4838,-2.4697,-2.4191,-2.4008,-2.3572,-2.2419,0.0,0.0,0.0,0.0,0.0,0.0,0.0,0.0,0.0,0.0,0.0,0.0,0.0,0.0,0.0,0.0,0.0,0.0,0.0,0.0,0.0,-2.1367,0.0,0.0,0.0,-2.4526,-2.5606,-2.5382,-2.5312,-2.5312,-2.5312,-2.5312,-2.5312,-2.5312,-2.5312,-2.5312,-2.5312,-2.5312,-2.5312,-2.5312,-2.5312,-2.5312,-2.5312,-2.5241,-2.5111,-2.3369,0.0,0.0,0.0,0.0,0.0,0.0,-2.747,-2.7554,-2.7748,-2.831,-2.8816,-2.9125,-2.9434,-2.9602,-2.9602,-2.9602,-2.949,-2.9195,-2.9167,-2.89,-2.8282,-2.7959,-2.7186,-2.5921,-2.4777,-2.3479,-2.2022,-1.9938,-1.853,-1.7753,0.0,0.0,0.0,0.0,-1.9284,0.0,0.0,0.0,-2.4828,-2.6139,-2.6633,-2.6568,-2.6568,-2.6568,-2.6568,-2.6568,-2.6447,-2.6285,-2.6138,-2.6002,-2.5893,-2.5893,-2.5893,-2.5893,-2.5893,-2.5893,-2.5893,-2.5893,-2.5893,-2.5893,-2.5893,-2.5893,-2.5809,-2.5514,-2.5458,-2.5386,-2.5091,-2.4781,-2.4078,-2.2489,-2.1201,0.0,0.0,0.0,0.0,0.0,0.0,0.0,0.0,0.0,0.0,0.0,0.0,0.0,0.0,0.0,0.0,0.0,0.0,0.0,0.0,0.0,0.0,0.0,0.0,0.0,-2.5606,-2.5382,-2.5312,-2.5312,-2.5312,-2.5312,-2.5312,-2.5312,-2.5312,-2.5312,-2.5312,-2.5312,-2.5312,-2.5312,-2.5312,-2.5312,-2.5312,-2.5147,-2.4957,0.0,-2.5196,0.0,0.0,-2.7029,0.0,-2.8764,-2.9075,-2.91,-2.8916,-2.8886,-2.9069,-2.956,-2.9602,-2.9602,-2.9602,-2.9602,-2.9602,-2.9602,-2.9634,-2.9439,-2.8961,-2.885,-2.8119,-2.6637,-2.5868,-2.4715,0.0,-2.1352,-1.9937,0.0,0.0,0.0,0.0,0.0,0.0,0.0,0.0,-2.4457,-2.5114,-2.6315,-2.6806,-2.6806,-2.6806,-2.6806,-2.6806,-2.6806,-2.6686,-2.6457,-2.6218,-2.6056,-2.5948,-2.5921,-2.5893,-2.5893,-2.5893,-2.5893,-2.5893,-2.5893,-2.5893,-2.5893,-2.5893,-2.5893,-2.5893,-2.5893,-2.5893,-2.5893,-2.5893,-2.5428,-2.4514,-2.2897,-2.1983,0.0,0.0,0.0,0.0,0.0,0.0,0.0,0.0,0.0,0.0,0.0,0.0,0.0,0.0,0.0,0.0,-1.6447,-1.6362,-1.7484,0.0,0.0,-2.1666,-2.3983,0.0,-2.4582,-2.5606,-2.5382,-2.5312,-2.5312,-2.5312,-2.5312,-2.5312,-2.5312,-2.5312,-2.5312,-2.5312,-2.5312,-2.5312,-2.5312,-2.5312,-2.5312,-2.5312,-2.5087,-2.479,0.0,0.0,0.0,0.0,0.0,0.0,-2.9184,-2.9624,-2.9858,-2.9549,-2.9532,-2.9546,-2.9602,-2.9602,-2.9602,-2.9602,-2.9602,-2.9602,-2.9602,-2.9699,-2.9763,-2.9707,-2.9348,-2.9067,-2.8896,-2.7306,-2.583,0.0,0.0,-2.1372,0.0,0.0,0.0,0.0,0.0,0.0,0.0,-2.4272,-2.5139,-2.5763,-2.6489,-2.6806,-2.6806,-2.6806,-2.6806,-2.6806,-2.6806,-2.6686,-2.6484,-2.6326,-2.6206,-2.6056,-2.5948,-2.5893,-2.5893,-2.5893,-2.5893,-2.5893,-2.5893,-2.5893,-2.5893,-2.5893,-2.5893,-2.5893,-2.5893,-2.5893,-2.5893,-2.5893,-2.5428,-2.4781,-2.405,-2.2925,-2.1912,0.0,0.0,0.0,0.0,0.0,0.0,0.0,0.0,0.0,0.0,0.0,0.0,0.0,0.0,0.0,-1.5595,-1.639,-1.7283,-1.8313,0.0,-2.1769,-2.3094,-2.3836,-2.467,-2.5606,-2.5382,-2.5312,-2.5312,-2.5312,-2.5312,-2.5312,-2.5312,-2.5312,-2.5312,-2.5312,-2.5312,-2.5312,-2.5312,-2.5312,-2.5312,-2.5312,-2.5087,-2.479,0.0,0.0,0.0,0.0,0.0,0.0,0.0,-3.1272,-3.1335,-3.1066,-3.0381,-2.9896,-2.9896,-2.9896,-2.9896,-2.9896,-2.9896,-2.9896,-2.9896,-3.0021,-3.0099,-3.0099,-3.0051,-2.9838,-2.9434,-2.8576,-2.7513,0.0,0.0,0.0,0.0,0.0,0.0,0.0,0.0,-2.3807,-2.3998,-2.5111,-2.5933,-2.6575,-2.7111,-2.7578,-2.791,-2.749,-2.7345,-2.7302,-2.6924,-2.6738,-2.6645,-2.6486,-2.6272,-2.6084,-2.5948,-2.5893,-2.5893,-2.5893,-2.5893,-2.5893,-2.5893,-2.5893,-2.5893,-2.5893,-2.5893,-2.5893,-2.5893,-2.5893,-2.5893,-2.5893,-2.5428,-2.4824,-2.4205,-2.3361,-2.2545,0.0,0.0,0.0,0.0,0.0,0.0,0.0,0.0,0.0,0.0,0.0,0.0,0.0,0.0,0.0,0.0,-1.6354,0.0,-1.8711,0.0,-2.1444,-2.2866,-2.3754,-2.4603,-2.5418,-2.5347,-2.5312,-2.5312,-2.5312,-2.5312,-2.5312,-2.5312,-2.5312,-2.5312,-2.5312,-2.5119,-2.4831,-2.4831,-2.4831,-2.4831,-2.4831,-2.4872,-2.4957,-3.0017,0.0,-3.0726,0.0,-3.177,-3.1913,-3.2312,-3.2352,-3.232,-3.2177,-3.1369,-3.069,-3.0411,-3.0397,-3.0311,-3.0125,-3.0142,-3.0158,-3.0158,-3.0341,-3.0477,-3.0493,-3.0717,0.0,-3.0162,-2.9829,-2.9173,-2.8158,-2.7278,0.0,0.0,0.0,0.0,0.0,-2.5181,-2.5657,-2.5593,-2.6578,-2.7225,-2.7642,-2.7933,-2.8302,-2.8665,-2.8173,-2.7985,-2.7955,-2.7505,-2.7372,-2.7331,-2.714,-2.695,-2.6716,-2.6156,-2.5921,-2.5893,-2.5893,-2.5893,-2.5893,-2.5893,-2.5893,-2.5893,-2.5893,-2.5893,-2.5893,-2.5893,-2.5893,-2.5893,-2.5893,-2.5428,-2.4824,-2.4205,-2.3558,-2.2887,-2.2306,0.0,0.0,0.0,0.0,0.0,0.0,-1.8105,-1.7805,-1.7682,0.0,0.0,0.0,0.0,0.0,0.0,0.0,0.0,0.0,0.0,0.0,-2.2588,-2.3668,-2.4569,-2.5312,-2.5312,-2.5312,-2.5312,-2.5312,-2.5312,-2.5312,-2.5312,-2.5312,-2.5312,-2.5312,-2.4987,-2.4484,-2.4484,-2.4484,-2.4484,-2.4484,-2.4763,-2.5087,-3.2245,-3.2388,-3.2452,-3.2481,-3.2481,-3.2481,-3.2481,-3.2481,-3.2481,-3.2481,-3.2466,-3.2124,-3.1206,-3.1103,-3.0828,-3.0168,-3.0219,-3.0282,-3.0282,-3.0598,-3.0836,0.0,0.0,-3.135,-3.1465,-3.1147,-3.0646,-2.9959,0.0,0.0,-2.6642,0.0,-2.5743,-2.5557,-2.7356,-2.8091,-2.802,-2.8951,-2.9248,-2.9055,-2.8944,-2.882,-2.8709,-2.8694,-2.8694,-2.8694,-2.868,-2.868,-2.8652,-2.8539,-2.8468,-2.8195,-2.6617,-2.6002,-2.5893,-2.5893,-2.5893,-2.5893,-2.5893,-2.5893,-2.5893,-2.5893,-2.5893,-2.5893,-2.5893,-2.5893,-2.5893,-2.5893,-2.5428,-2.4824,-2.4205,-2.3558,-2.2887,-2.2306,0.0,0.0,0.0,0.0,0.0,0.0,-1.8484,-1.8264,-1.766,0.0,0.0,0.0,0.0,0.0,0.0,0.0,0.0,-1.7801,-1.9748,0.0,-2.2097,-2.3503,-2.4569,-2.5312,-2.5312,-2.5312,-2.5312,-2.5312,-2.5312,-2.5312,-2.5312,-2.5312,-2.5312,-2.5312,-2.4987,-2.4484,-2.4484,-2.4484,-2.4484,-2.4484,-2.4763,-2.5087,-3.3179,-3.341,-3.3621,-3.3944,-3.3984,-3.3951,-3.3819,-3.3819,-3.3837,-3.3984,-3.3984,-3.3769,-3.3144,-3.2596,-3.2167,0.0,-3.22,-3.2148,0.0,-3.199,-3.2003,-3.1712,-3.1824,-3.1994,-3.2104,-3.21,-3.1778,-3.1074,0.0,0.0,0.0,-2.8902,-2.8722,-2.8661,-2.9474,-2.9795,-2.976,-2.9807,-2.9952,-3.015,-2.9859,-2.9883,-3.0075,-2.9522,-2.9319,-2.9261,-2.884,-2.8709,-2.8681,-2.8652,-2.8582,-2.8396,-2.774,-2.7428,-2.7315,-2.7229,-2.7215,-2.7116,-2.6638,-2.6512,-2.6413,-2.5992,-2.5893,-2.5893,-2.5893,-2.5893,-2.5893,-2.5893,-2.5739,-2.5316,-2.4289,-2.3923,-2.3431,-2.2376,-2.1687,0.0,0.0,0.0,0.0,0.0,-1.8498,-1.8414,0.0,-1.8318,0.0,0.0,0.0,0.0,0.0,0.0,0.0,0.0,-2.0417,0.0,-2.2097,-2.3503,-2.4569,-2.5312,-2.5312,-2.5312,-2.5312,-2.5312,-2.5312,-2.5312,-2.5312,-2.5107,-2.4736,-2.4736,-2.4254,-2.3508,-2.3869,-2.4013,-2.4049,-2.4398,-2.4763,-2.5087,-3.4245,-3.4431,-3.4611,-3.4857,-3.4898,-3.4817,-3.4601,-3.4601,-3.465,-3.4865,-3.4898,-3.4787,-3.4555,-3.4233,0.0,-3.3063,-3.3331,-3.3381,-3.2976,-3.3259,-3.3326,-3.3014,-3.2852,-3.2826,-3.2949,-3.2905,0.0,-3.2253,-3.2258,-3.175,-3.0784,-3.0688,-3.0664,-3.0672,-3.1055,-3.1201,-3.1191,-3.1039,-3.1097,-3.123,-3.0853,-3.0762,-3.0792,-3.025,-3.0016,-2.9929,-2.9566,-2.9421,-2.9421,-2.9421,-2.9363,-2.9233,-2.8984,-2.8867,-2.8649,-2.799,-2.7805,-2.7721,-2.7284,-2.7172,-2.7017,-2.6399,-2.6245,-2.6174,-2.595,-2.5893,-2.5893,-2.5893,-2.5711,-2.5274,-2.4275,-2.3881,-2.3389,-2.2376,-2.1884,-2.135,-2.0512,0.0,0.0,0.0,0.0,0.0,0.0,-1.8914,-1.8897,0.0,0.0,0.0,0.0,0.0,0.0,-1.9353,-2.0913,0.0,-2.2226,-2.3368,-2.4246,-2.4826,-2.4757,-2.4831,-2.5011,-2.5011,-2.5011,-2.5011,-2.5011,-2.4711,-2.4242,-2.4242,-2.3857,-2.3348,-2.3673,-2.3914,-2.4097,-2.441,-2.4763,-2.5087,-3.5464,-3.5464,-3.5415,0.0,-3.5246,0.0,-3.5001,-3.492,-3.5001,-3.5213,-3.5246,-3.5329,-3.5479,-3.5816,-3.5378,-3.3693,0.0,0.0,0.0,-3.4432,-3.4666,-3.4736,-3.4159,-3.3902,-3.4025,-3.366,-3.3446,-3.3398,-3.2969,-3.2407,-3.1766,-3.1766,-3.1766,-3.1758,-3.2149,-3.2307,-3.2329,-3.2538,-3.2508,-3.2191,-3.1853,-3.1437,-3.1029,-3.0881,-3.0732,-3.0598,-3.0598,-3.0598,-3.0598,-3.0598,-3.0598,-3.0552,-3.0203,-3.008,-2.9822,-2.8358,-2.7932,-2.7932,-2.7876,-2.7862,-2.7721,-2.7045,-2.6835,-2.6652,-2.6034,-2.5893,-2.5893,-2.5893,-2.543,-2.4866,-2.4205,-2.36,-2.2943,-2.2306,-2.2208,-2.1777,-2.0625,0.0,0.0,0.0,0.0,0.0,0.0,-1.948,-1.9733,0.0,0.0,0.0,0.0,0.0,-1.974,-2.0555,-2.1291,-2.1924,-2.2463,-2.3164,-2.3695,-2.4013,-2.386,-2.4047,-2.4436,-2.4436,-2.4436,-2.4436,-2.4436,-2.4181,-2.3746,-2.3746,-2.3746,-2.3758,-2.3794,-2.4073,-2.4496,-2.4532,-2.4764,-2.5052,0.0,0.0,-3.6179,-3.599,-3.5863,-3.5735,-3.5527,-3.5382,-3.5429,-3.5782,-3.5814,-3.591,-3.6211,-3.6414,-3.6369,-3.5922,-3.6014,-3.5859,-3.5335,-3.5615,-3.5629,-3.5241,-3.5177,-3.5189,-3.5354,-3.5265,-3.4957,-3.4431,-3.378,-3.3358,-3.3198,-3.3198,-3.3198,-3.3214,-3.3297,-3.3284,-3.3196,-3.3161,-3.2888,-3.2465,-3.2079,-3.171,-3.135,-3.0969,-3.0791,-3.0732,-3.0642,-3.0598,-3.0598,-3.0598,-3.0598,-3.0552,-3.0203,-3.008,-2.9993,-2.9358,-2.9167,-2.9069,-2.8605,-2.8478,-2.8324,-2.7706,-2.7172,-2.6652,-2.6034,-2.5893,-2.5893,-2.5893,-2.5781,-2.5372,-2.4289,-2.3966,-2.3502,-2.2376,-2.2208,-2.194,-2.1181,-2.1082,0.0,0.0,-1.995,-2.0007,-2.0161,-2.0154,-2.0231,0.0,0.0,0.0,0.0,-2.1157,-2.1217,-2.1349,-2.2068,-2.2701,-2.3225,-2.3615,-2.3862,-2.4013,-2.398,-2.3954,-2.3986,-2.3986,-2.3986,-2.3986,-2.3986,-2.3685,-2.3204,-2.3204,-2.3204,-2.324,-2.3649,-2.4073,-2.4532,-2.4847,-2.4909,-2.4861,-3.6831,-3.6816,-3.6739,-3.6461,-3.6383,-3.6258,-3.6085,-3.5975,-3.6006,-3.6274,-3.632,-3.6414,-3.6693,-3.6907,-3.7013,-3.7013,-3.6952,-3.6796,-3.6512,-3.6717,-3.678,-3.6543,-3.6322,-3.623,-3.6297,-3.6016,-3.576,-3.5492,-3.5063,-3.4736,-3.4398,-3.4398,-3.422,-3.3873,-3.3822,-3.372,-3.3581,-3.345,-3.3171,-3.2796,-3.2441,-3.2092,-3.1781,-3.1292,-3.1073,-3.0999,-3.0762,-3.0702,-3.0672,-3.0612,-3.0598,-3.0538,-3.028,-3.0142,-3.005,-2.9775,-2.9665,-2.9532,-2.9195,-2.9111,-2.897,-2.8352,-2.772,-2.7088,-2.6455,-2.6315,-2.6231,-2.595,-2.5893,-2.5612,-2.4683,-2.4289,-2.3769,-2.2784,-2.239,-2.1997,-2.1364,-2.1316,0.0,-2.047,-2.04,-2.0512,-2.0787,-2.0815,-2.0942,-2.1187,-2.1215,0.0,-2.2095,-2.2176,-2.2162,-2.2027,-2.2762,-2.3221,-2.3351,-2.3482,-2.3524,-2.3506,-2.3347,-2.3353,-2.353,-2.3465,-2.3445,-2.3445,-2.3445,-2.3144,-2.2642,-2.2915,-2.3156,-2.3421,-2.3917,-2.4434,-2.488,-2.5039,-2.4957,-2.4754,-3.7344,-3.7314,-3.7224,-3.6922,-3.6861,-3.6816,-3.6708,-3.6677,-3.6693,-3.6846,-3.6846,-3.6907,-3.7121,-3.7329,-3.7476,-3.7476,-3.7373,-3.7358,-3.7476,-3.7655,-3.7817,-3.7934,-3.7415,-3.7138,-3.7138,-3.6511,-3.6292,-3.6465,-3.6351,-3.5979,-3.5373,-3.5373,-3.5024,-3.4441,-3.4297,-3.4185,-3.403,-3.3899,-3.3662,-3.3383,-3.3064,-3.2789,-3.2497,-3.2054,-3.1765,-3.1575,-3.1146,-3.0967,-3.0923,-3.0671,-3.0598,-3.0568,-3.0357,-3.0189,-3.005,-2.9822,-2.9682,-2.9602,-2.9602,-2.9602,-2.9462,-2.8844,-2.8296,-2.7748,-2.7102,-2.6877,-2.6652,-2.6132,-2.595,-2.5711,-2.5119,-2.45,-2.3881,-2.321,-2.2601,-2.2025,-2.1504,0.0,-2.1279,-2.0864,-2.0807,-2.1046,-2.1645,-2.1715,-2.1926,-2.2447,-2.2489,-2.2714,-2.321,-2.3075,-2.2931,-2.2805,-2.3407,-2.3612,-2.3369,-2.3284,-2.315,-2.2969,-2.2635,-2.2694,-2.3057,-2.2954,-2.2891,-2.2891,-2.2891,-2.2606,-2.2234,-2.2794,-2.3324,-2.3854,-2.4326,-2.4808,-2.5241,-2.5111,-2.4921,-2.4718,-3.7801,-3.7772,-3.7772,-3.7714,-3.7612,-3.7553,-3.7524,-3.7373,-3.7344,-3.7524,-3.7553,-3.7612,-3.7759,-3.7817,-3.7831,-3.7831,-3.7801,-3.7801,-3.7801,-3.802,-3.8135,-3.8135,-3.8153,-3.8173,-3.8173,-3.7462,-3.7117,-3.7134,-3.6594,-3.6254,-3.6141,-3.6141,-3.6076,-3.5963,-3.5936,-3.576,-3.5459,-3.5459,-3.5229,-3.4855,-3.461,-3.4381,-3.4094,-3.3754,-3.3427,-3.305,-3.2211,-3.1793,-3.1553,-3.0847,-3.0598,-3.0552,-3.0233,-3.0111,-3.005,-2.9727,-2.9602,-2.9602,-2.9602,-2.9602,-2.9462,-2.8844,-2.8619,-2.8394,-2.7762,-2.72,-2.6778,-2.6694,-2.6245,-2.5711,-2.5119,-2.45,-2.3881,-2.321,-2.2601,-2.218,-2.2067,0.0,-2.2222,-2.2634,-2.2676,-2.2929,-2.3586,-2.3681,-2.3698,-2.3783,-2.3797,-2.3839,-2.3938,-2.412,-2.4212,-2.4186,-2.3974,-2.3938,-2.4118,-2.3872,-2.3611,-2.3313,-2.2969,-2.2714,-2.2511,-2.2399,-2.2318,-2.2318,-2.2318,-2.227,-2.2234,-2.2794,-2.3324,-2.3854,-2.4326,-2.4751,-2.5111,-2.4921,-2.4718,-2.4538,-3.8078,-3.8049,-3.802,-3.7934,-3.7847,-3.7817,-3.7817,-3.7714,-3.7698,-3.7788,-3.7817,-3.7847,-3.7905,-3.7992,-3.8049,-3.8049,-3.8135,-3.8164,-3.8164,-3.8209,-3.8221,-3.8307,-3.8379,-3.8391,-3.8391,-3.8068,-3.7906,-3.7906,-3.7582,-3.7226,-3.6826,-3.6826,-3.6659,-3.6303,-3.6303,-3.6163,-3.5926,-3.5926,-3.5724,-3.5407,-3.5238,-3.5039,-3.4825,-3.4415,-3.4119,-3.3774,-3.3018,-3.2623,-3.2348,-3.1807,-3.155,-3.1368,-3.0912,-3.0611,-3.0384,-2.9874,-2.9665,-2.9602,-2.9602,-2.9602,-2.9532,-2.9251,-2.9181,-2.9026,-2.8408,-2.8043,-2.7636,-2.6947,-2.6582,-2.6202,-2.5584,-2.4992,-2.4486,-2.4177,-2.3294,0.0,0.0,-2.2676,-2.2774,-2.3069,-2.3431,-2.3755,-2.4064,-2.4092,-2.4092,-2.4092,-2.4092,-2.4233,-2.457,-2.4628,-2.4801,-2.5134,-2.4653,-2.4453,-2.4565,-2.42,-2.3878,-2.3641,-2.315,-2.2787,-2.2555,-2.2309,-2.2197,-2.2197,-2.2197,-2.2197,-2.2258,-2.3095,-2.3589,-2.3878,-2.4638,-2.5002,-2.5087,-2.4861,-2.4682,-2.4454,-3.8266,-3.8266,-3.8209,-3.8049,-3.802,-3.802,-3.802,-3.802,-3.802,-3.802,-3.802,-3.802,-3.802,-3.8164,-3.8266,-3.8266,-3.8351,-3.8391,-3.8391,-3.8307,-3.8278,-3.8408,-3.8391,-3.8391,-3.8391,-3.8391,-3.8391,-3.8391,-3.8391,-3.8116,-3.7566,-3.7566,-3.729,-3.6805,-3.6805,-3.6691,-3.6517,-3.6517,-3.6369,-3.6123,-3.5982,-3.584,-3.5668,-3.5291,-3.4951,-3.4652,-3.3953,-3.3522,-3.321,-3.273,-3.2417,-3.2123,-3.1616,-3.1254,-3.0899,-3.034,-3.002,-2.9785,-2.9645,-2.9602,-2.9602,-2.9602,-2.9602,-2.949,-2.9012,-2.8788,-2.8422,-2.7439,-2.713,-2.6835,-2.6217,-2.5612,-2.5161,-2.5021,0.0,0.0,0.0,-2.3322,-2.3364,-2.3519,-2.4008,-2.4359,-2.45,-2.4514,-2.4514,-2.4514,-2.4514,-2.4725,-2.5189,-2.5084,-2.5214,-2.5633,-2.5216,-2.4934,-2.4892,-2.4476,-2.4171,-2.3936,-2.3271,-2.2848,-2.269,-2.2352,-2.2197,-2.2197,-2.2197,-2.2197,-2.2258,-2.3228,-2.3697,-2.389,-2.4771,-2.5075,-2.5016,-2.4861,-2.4646,-2.4418,-3.8408,-3.8408,-3.8363,-3.8379,-3.8363,-3.8363,-3.8363,-3.8363,-3.8363,-3.8363,-3.8363,-3.8363,-3.8363,-3.8363,-3.8408,-3.8408,-3.8391,-3.8391,-3.8391,-3.8391,-3.8408,-3.8391,-3.8391,-3.8391,-3.8391,-3.8391,-3.8391,-3.8391,-3.8391,-3.8375,-3.8327,-3.8327,-3.8294,-3.8246,-3.8246,-3.8161,-3.8048,-3.8048,-3.7917,-3.7716,-3.7571,-3.7408,-3.72,-3.7067,-3.6721,-3.6199,-3.5231,-3.4554,-3.3976,-3.3067,-3.2513,-3.2177,-3.199,-3.1799,-3.1603,-3.1425,-3.0923,-3.0301,-2.9757,-2.9602,-2.9602,-2.9602,-2.9602,-2.9602,-2.9546,-2.9097,-2.8661,-2.8577,-2.8129,-2.7509,-2.6863,-2.6245,-2.564,-2.5091,0.0,0.0,-2.4022,-2.4022,-2.4233,-2.4795,-2.4908,-2.5161,-2.5697,-2.5767,-2.5767,-2.5767,-2.5767,-2.5781,-2.5823,-2.5714,-2.5591,-2.5522,-2.5467,-2.5369,-2.5174,-2.4892,-2.452,-2.4073,-2.3395,-2.2939,-2.269,-2.2352,-2.2197,-2.2197,-2.2197,-2.2197,-2.2234,-2.2811,-2.336,-2.3854,-2.4362,-2.4659,-2.4825,-2.479,-2.4562,-2.4236,-3.8391,-3.8391,-3.8391,-3.8391,-3.8391,-3.8391,-3.8391,-3.8391,-3.8391,-3.8391,-3.8391,-3.8391,-3.8391,-3.8391,-3.8391,-3.8391,-3.8391,-3.8391,-3.8391,-3.8391,-3.8391,-3.8391,-3.8391,-3.8391,-3.8391,-3.8391,-3.8391,-3.8391,-3.8391,-3.8391,-3.8391,-3.8391,-3.8391,-3.8391,-3.8391,-3.8363,-3.8307,-3.8307,-3.8221,-3.8078,-3.7905,-3.7714,-3.7567,-3.7314,-3.7029,-3.6723,-3.5998,-3.5484,-3.5011,-3.4319,-3.3853,-3.345,-3.2782,-3.2435,-3.2198,-3.1664,-3.1036,-3.0441,-3.0203,-2.9897,-2.9602,-2.9602,-2.9602,-2.9602,-2.9602,-2.942,-2.9153,-2.8774,-2.8507,-2.8185,-2.7523,-2.6891,-2.6385,-2.6146,0.0,-2.4655,-2.4655,-2.4655,-2.4739,-2.4978,-2.5344,-2.564,-2.5879,-2.5893,-2.5893,-2.5893,-2.5893,-2.5893,-2.5893,-2.5839,-2.5784,-2.5743,-2.5743,-2.5578,-2.5202,-2.492,-2.4565,-2.4102,-2.3424,-2.2969,-2.269,-2.2352,-2.2197,-2.2197,-2.2197,-2.2197,-2.2258,-2.3144,-2.3625,-2.3857,-2.4595,-2.4838,-2.479,-2.4646,-2.4454,-2.42,-3.8391,-3.8391,-3.8391,-3.8391,-3.8391,-3.8391,-3.8391,-3.8391,-3.8391,-3.8391,-3.8391,-3.8391,-3.8391,-3.8391,-3.8391,-3.8391,-3.8391,-3.8391,-3.8391,-3.8391,-3.8391,-3.8391,-3.8391,-3.8391,-3.8391,-3.8391,-3.8391,-3.8391,-3.8391,-3.8391,-3.8391,-3.8391,-3.8391,-3.8391,-3.8391,-3.8391,-3.8391,-3.8391,-3.8351,-3.8266,-3.8078,-3.7905,-3.773,-3.7478,-3.724,-3.7014,-3.66,-3.6211,-3.5784,-3.5314,-3.4868,-3.4375,-3.3624,-3.3191,-3.282,-3.203,-3.1471,-3.1078,-3.0881,-3.0375,-2.9855,-2.9659,-2.9602,-2.9602,-2.9602,-2.9602,-2.949,-2.9069,-2.897,-2.8788,-2.8199,-2.7706,-2.734,-2.7144,-2.6231,-2.5556,-2.5556,-2.5414,-2.5288,-2.5288,-2.564,-2.5893,-2.5893,-2.5893,-2.5893,-2.5893,-2.5893,-2.5893,-2.5893,-2.5893,-2.5893,-2.5893,-2.5893,-2.5702,-2.53,-2.5033,-2.4664,-2.4147,-2.3543,-2.309,-2.2739,-2.2432,-2.2247,-2.2197,-2.2197,-2.2197,-2.2258,-2.3192,-2.3649,-2.3857,-2.4562,-2.485,-2.4801,-2.4574,-2.4381,-2.42,-3.8391,-3.8391,-3.8391,-3.8391,-3.8391,-3.8391,-3.8391,-3.8391,-3.8391,-3.8391,-3.8391,-3.8391,-3.8391,-3.8391,-3.8391,-3.8391,-3.8391,-3.8391,-3.8391,-3.8391,-3.8391,-3.8391,-3.8391,-3.8391,-3.8391,-3.8391,-3.8391,-3.8391,-3.8391,-3.8391,-3.8391,-3.8391,-3.8391,-3.8391,-3.8391,-3.8391,-3.8391,-3.8391,-3.8391,-3.8408,-3.825,-3.8078,-3.7905,-3.7759,-3.7478,-3.7194,-3.706,-3.6677,-3.6164,-3.5816,-3.5249,-3.4664,-3.4481,-3.404,-3.3443,-3.2629,-3.2412,-3.2272,-3.1668,-3.1021,-3.0343,-2.9771,-2.9602,-2.9602,-2.9602,-2.9602,-2.9602,-2.9602,-2.9602,-2.942,-2.8816,-2.8689,-2.8493,-2.7904,-2.7242,-2.6821,-2.6821,-2.6287,-2.5907,-2.5907,-2.5893,-2.5893,-2.5893,-2.5893,-2.5893,-2.5893,-2.5893,-2.5893,-2.5893,-2.5893,-2.5893,-2.5893,-2.5893,-2.5771,-2.5494,-2.53,-2.4907,-2.4292,-2.3822,-2.336,-2.2878,-2.2543,-2.2328,-2.2197,-2.2197,-2.2197,-2.2246,-2.2806,-2.3324,-2.3833,-2.4179,-2.4495,-2.4754,-2.4574,-2.4381,-2.42,-3.8391,-3.8391,-3.8391,-3.8391,-3.8391,-3.8391,-3.8391,-3.8391,-3.8391,-3.8391,-3.8391,-3.8391,-3.8391,-3.8391,-3.8391,-3.8391,-3.8391,-3.8391,-3.8391,-3.8391,-3.8391,-3.8391,-3.8391,-3.8391,-3.8391,-3.8391,-3.8391,-3.8391,-3.8391,-3.8391,-3.8391,-3.8391,-3.8391,-3.8391,-3.8391,-3.8391,-3.8391,-3.8391,-3.8391,-3.8408,-3.825,-3.8164,-3.8078,-3.7788,-3.7642,-3.7508,-3.724,-3.6984,-3.6677,-3.6211,-3.5752,-3.5282,-3.4601,-3.4108,-3.3673,-3.3344,-3.2853,-3.237,-3.2188,-3.1682,-3.105,-3.0371,-2.9926,-2.9602,-2.9602,-2.9602,-2.9602,-2.9602,-2.9602,-2.9546,-2.9364,-2.8984,-2.8633,-2.845,-2.7902,-2.7481,-2.7481,-2.6933,-2.654,-2.654,-2.616,-2.5893,-2.5893,-2.5893,-2.5893,-2.5893,-2.5893,-2.5893,-2.5893,-2.5893,-2.5893,-2.5893,-2.5893,-2.5771,-2.5494,-2.53,-2.4907,-2.4292,-2.3822,-2.336,-2.2878,-2.2543,-2.2328,-2.2197,-2.2197,-2.2402,-2.2787,-2.3348,-2.3799,-2.4191,-2.4519,-2.4613,-2.4574,-2.4345,-2.4236,-2.42,-3.8391,-3.8391,-3.8391,-3.8391,-3.8391,-3.8391,-3.8391,-3.8391,-3.8391,-3.8391,-3.8391,-3.8391,-3.8391,-3.8391,-3.8391,-3.8391,-3.8391,-3.8391,-3.8391,-3.8391,-3.8391,-3.8391,-3.8391,-3.8391,-3.8391,-3.8391,-3.8391,-3.8391,-3.8391,-3.8391,-3.8391,-3.8391,-3.8391,-3.8391,-3.8391,-3.8391,-3.8391,-3.8391,-3.8391,-3.8391,-3.8307,-3.8266,-3.818,-3.7876,-3.7759,-3.7671,-3.7419,-3.7225,-3.7014,-3.6631,-3.6148,-3.5559,-3.4769,-3.423,-3.3888,-3.3675,-3.3198,-3.2778,-3.2778,-3.2328,-3.1766,-3.1359,-3.0614,-2.9897,-2.9659,-2.9602,-2.9602,-2.9602,-2.9602,-2.9602,-2.9602,-2.9307,-2.9055,-2.9055,-2.8535,-2.8171,-2.8171,-2.7593,-2.72,-2.72,-2.6638,-2.6259,-2.6259,-2.6034,-2.5893,-2.5893,-2.5893,-2.5893,-2.5893,-2.5893,-2.5893,-2.5893,-2.5893,-2.5771,-2.5494,-2.5369,-2.5033,-2.4478,-2.4073,-2.3645,-2.318,-2.2787,-2.2604,-2.2592,-2.2529,-2.2811,-2.3372,-2.3857,-2.4186,-2.4327,-2.4661,-2.4682,-2.4502,-2.4273,-2.42,-2.42,-3.8391,-3.8391,-3.8391,-3.8391,-3.8391,-3.8391,-3.8391,-3.8391,-3.8391,-3.8391,-3.8391,-3.8391,-3.8391,-3.8391,-3.8391,-3.8391,-3.8391,-3.8391,-3.8391,-3.8391,-3.8391,-3.8391,-3.8391,-3.8391,-3.8391,-3.8391,-3.8391,-3.8391,-3.8391,-3.8391,-3.8391,-3.8391,-3.8391,-3.8391,-3.8391,-3.8391,-3.8391,-3.8391,-3.8391,-3.8391,-3.8391,-3.8323,-3.8209,-3.7992,-3.7847,-3.77,-3.7569,-3.7389,-3.7194,-3.7014,-3.6445,-3.5655,-3.4983,-3.4481,-3.4094,-3.373,-3.3501,-3.3326,-3.329,-3.2918,-3.2483,-3.2412,-3.1541,-3.0484,-2.9841,-2.9645,-2.9602,-2.9602,-2.9602,-2.9602,-2.9602,-2.9602,-2.9602,-2.9602,-2.9139,-2.8774,-2.8774,-2.8269,-2.789,-2.789,-2.7284,-2.6891,-2.6891,-2.6385,-2.6062,-2.6062,-2.6062,-2.6062,-2.6062,-2.6062,-2.6062,-2.6062,-2.6062,-2.5938,-2.5688,-2.5688,-2.5395,-2.4806,-2.4503,-2.4151,-2.3675,-2.3276,-2.3133,-2.3283,-2.3136,-2.3384,-2.3914,-2.4326,-2.4451,-2.4398,-2.4673,-2.4682,-2.4454,-2.4273,-2.42,-2.42,-3.8391,-3.8391,-3.8391,-3.8391,-3.8391,-3.8391,-3.8391,-3.8391,-3.8391,-3.8391,-3.8391,-3.8391,-3.8391,-3.8391,-3.8391,-3.8391,-3.8391,-3.8391,-3.8391,-3.8391,-3.8391,-3.8391,-3.8391,-3.8391,-3.8391,-3.8391,-3.8391,-3.8391,-3.8391,-3.8391,-3.8391,-3.8391,-3.8391,-3.8391,-3.8391,-3.8391,-3.8391,-3.8391,-3.8391,-3.8391,-3.8391,-3.8363,-3.8351,-3.8193,-3.802,-3.7847,-3.77,-3.7553,-3.7375,-3.6923,-3.6569,-3.6195,-3.5554,-3.5049,-3.4635,-3.4128,-3.3764,-3.3501,-3.3361,-3.3178,-3.3002,-3.2525,-3.2202,-3.171,-3.0554,-2.9954,-2.9602,-2.9602,-2.9602,-2.9602,-2.9602,-2.9602,-2.9602,-2.9602,-2.949,-2.9406,-2.9406,-2.8886,-2.8493,-2.8493,-2.7974,-2.7594,-2.7594,-2.7453,-2.7397,-2.7397,-2.7397,-2.7397,-2.7397,-2.7397,-2.7397,-2.7397,-2.7397,-2.7268,-2.708,-2.708,-2.6306,-2.4791,-2.4928,-2.4812,-2.4464,-2.4406,-2.4258,-2.4046,-2.3875,-2.4014,-2.4362,-2.447,-2.4575,-2.4708,-2.479,-2.4574,-2.4273,-2.4236,-2.42,-2.42,-3.8391,-3.8391,-3.8391,-3.8391,-3.8391,-3.8391,-3.8391,-3.8391,-3.8391,-3.8391,-3.8391,-3.8391,-3.8391,-3.8391,-3.8391,-3.8391,-3.8391,-3.8391,-3.8391,-3.8391,-3.8391,-3.8391,-3.8391,-3.8391,-3.8391,-3.8391,-3.8391,-3.8391,-3.8391,-3.8391,-3.8391,-3.8391,-3.8391,-3.8391,-3.8391,-3.8391,-3.8391,-3.8391,-3.8391,-3.8391,-3.8391,-3.8391,-3.8408,-3.825,-3.8094,-3.7876,-3.7759,-3.7612,-3.7421,-3.6984,-3.6739,-3.6476,-3.5814,-3.5264,-3.4802,-3.4264,-3.3868,-3.357,-3.3361,-3.329,-3.3206,-3.2918,-3.2623,-3.2075,-3.0778,-3.0245,-2.9968,-2.9673,-2.9602,-2.9602,-2.9602,-2.9602,-2.9602,-2.9602,-2.9602,-2.9602,-2.9602,-2.9336,-2.9125,-2.9125,-2.8591,-2.8129,-2.7833,-2.7805,-2.7805,-2.7805,-2.7805,-2.7805,-2.7805,-2.7805,-2.7805,-2.7805,-2.7805,-2.7703,-2.7485,-2.7485,-2.6974,-2.5902,-2.5934,-2.5781,-2.5446,-2.5266,-2.5134,-2.504,-2.469,-2.4694,-2.5007,-2.4938,-2.4837,-2.479,-2.479,-2.4562,-2.42,-2.42,-2.42,-2.42,-3.8391,-3.8391,-3.8391,-3.8391,-3.8391,-3.8391,-3.8391,-3.8391,-3.8391,-3.8391,-3.8391,-3.8391,-3.8391,-3.8391,-3.8391,-3.8391,-3.8391,-3.8391,-3.8391,-3.8391,-3.8391,-3.8391,-3.8391,-3.8391,-3.8391,-3.8391,-3.8391,-3.8391,-3.8391,-3.8391,-3.8391,-3.8391,-3.8391,-3.8391,-3.8391,-3.8391,-3.8391,-3.8391,-3.8391,-3.8391,-3.8391,-3.8391,-3.8408,-3.8294,-3.8094,-3.7905,-3.7759,-3.7612,-3.745,-3.7151,-3.6923,-3.6631,-3.5975,-3.5429,-3.4887,-3.4332,-3.3902,-3.3605,-3.3361,-3.329,-3.329,-3.329,-3.2932,-3.2258,-3.1073,-3.0652,-3.0343,-2.9869,-2.9673,-2.9602,-2.9602,-2.9602,-2.9602,-2.9602,-2.9602,-2.9602,-2.9602,-2.9602,-2.9602,-2.9602,-2.9167,-2.8647,-2.8171,-2.8129,-2.8129,-2.8129,-2.8129,-2.8129,-2.8129,-2.8129,-2.8129,-2.8129,-2.8129,-2.8012,-2.7865,-2.7865,-2.773,-2.7487,-2.7338,-2.6965,-2.6485,-2.6128,-2.6026,-2.6095,-2.5606,-2.5492,-2.5653,-2.5418,-2.5147,-2.4861,-2.479,-2.4574,-2.4236,-2.42,-2.42,-2.42,-3.8391,-3.8391,-3.8391,-3.8391,-3.8391,-3.8391,-3.8391,-3.8391,-3.8391,-3.8391,-3.8391,-3.8391,-3.8391,-3.8391,-3.8391,-3.8391,-3.8391,-3.8391,-3.8391,-3.8391,-3.8391,-3.8391,-3.8391,-3.8391,-3.8391,-3.8391,-3.8391,-3.8391,-3.8391,-3.8391,-3.8391,-3.8391,-3.8391,-3.8391,-3.8391,-3.8391,-3.8391,-3.8391,-3.8391,-3.8391,-3.8391,-3.8391,-3.8391,-3.8363,-3.8164,-3.7905,-3.7876,-3.77,-3.748,-3.724,-3.7075,-3.6877,-3.6305,-3.5769,-3.5219,-3.4568,-3.4122,-3.3793,-3.3396,-3.329,-3.329,-3.329,-3.322,-3.3016,-3.2314,-3.1269,-3.0469,-3.0385,-2.9968,-2.9602,-2.9602,-2.9602,-2.9602,-2.9602,-2.9602,-2.9602,-2.9602,-2.9602,-2.9602,-2.9602,-2.9532,-2.9462,-2.9364,-2.9364,-2.9364,-2.9364,-2.9364,-2.9364,-2.9364,-2.9364,-2.9364,-2.9364,-2.9364,-2.9333,-2.9319,-2.9319,-2.9226,-2.907,-2.907,-2.8404,-2.7243,-2.7444,-2.736,-2.7085,-2.668,-2.6239,-2.5828,-2.5641,-2.5359,-2.5052,-2.4861,-2.4646,-2.4454,-2.4273,-2.42,-2.42,-3.8391,-3.8391,-3.8391,-3.8391,-3.8391,-3.8391,-3.8391,-3.8391,-3.8391,-3.8391,-3.8391,-3.8391,-3.8391,-3.8391,-3.8391,-3.8391,-3.8391,-3.8391,-3.8391,-3.8391,-3.8391,-3.8391,-3.8391,-3.8391,-3.8391,-3.8391,-3.8391,-3.8391,-3.8391,-3.8391,-3.8391,-3.8391,-3.8391,-3.8391,-3.8391,-3.8391,-3.8391,-3.8391,-3.8391,-3.8391,-3.8391,-3.8391,-3.8391,-3.8391,-3.825,-3.8049,-3.7847,-3.7671,-3.748,-3.7254,-3.7089,-3.6923,-3.6507,-3.6006,-3.5447,-3.4854,-3.4366,-3.3937,-3.357,-3.3396,-3.329,-3.329,-3.329,-3.322,-3.2974,-3.2216,-3.1485,-3.1134,-3.0558,-3.0091,-3.0091,-2.9841,-2.9602,-2.9602,-2.9602,-2.9602,-2.9602,-2.9602,-2.9602,-2.9602,-2.9602,-2.9602,-2.9602,-2.9602,-2.9602,-2.9602,-2.9602,-2.9602,-2.9602,-2.9602,-2.9602,-2.9602,-2.9602,-2.9602,-2.9602,-2.9602,-2.954,-2.9383,-2.9383,-2.8979,-2.8193,-2.8239,-2.7987,-2.7556,-2.7074,-2.6577,-2.6025,-2.5711,-2.5394,-2.5087,-2.4897,-2.461,-2.4309,-2.4236,-2.42,-2.42]},{"header":{"parameterUnit":"m.s-1","parameterCategory":1,"la1":30.6,"la2":28.766,"lo1":-90.7593,"lo2":-88.6598,"dy":0.0162,"dx":0.0183,"nx":116,"ny":114,"refTime":"2024-05-28T12:00:00:Z","depth":0,"parameterNumber":3,"parameterNumberName":"V-component_of_WINDS"},"data":[0.0,0.0,0.0,0.0,0.0,0.0,0.0,0.0,0.0,0.0,0.0,0.0,0.0,0.0,0.0,0.0,0.0,0.0,0.0,0.0,0.0,0.0,0.0,0.0,0.0,0.0,0.0,0.0,0.0,0.0,0.0,0.0,0.0,0.0,0.0,0.0,0.0,0.0,0.0,0.0,0.0,0.0,0.0,0.0,0.0,0.0,0.0,0.0,0.0,0.0,0.0,0.0,0.0,0.0,0.0,0.0,0.0,0.0,0.0,0.0,0.0,0.0,0.0,0.0,0.0,0.0,0.0,0.0,0.0,0.0,0.0,0.0,0.0,0.0,0.0,0.0,0.0,0.0,0.0,0.0,0.0,0.0,0.0,0.0,0.0,0.0,0.0,0.0,0.0,0.0,0.0,0.0,0.0,0.0,0.0,0.0,0.0,0.0,0.0,0.0,0.0,0.0,0.0,0.0,0.0,0.0,0.0,0.0,0.0,0.0,0.0,0.0,0.0,0.0,0.0,0.0,0.0,0.0,0.0,0.0,0.0,0.0,0.0,0.0,0.0,0.0,0.0,0.0,0.0,0.0,0.0,0.0,0.0,0.0,0.0,0.0,0.0,0.0,0.0,0.0,0.0,0.0,0.0,0.0,0.0,0.0,0.0,0.0,0.0,0.0,0.0,0.0,0.0,0.0,0.0,0.0,0.0,0.0,0.0,0.0,0.0,0.0,0.0,0.0,0.0,0.0,0.0,0.0,0.0,0.0,0.0,0.0,0.0,0.0,0.0,0.0,0.0,0.0,0.0,0.0,0.0,0.0,0.0,0.0,0.0,0.0,0.0,0.0,0.0,0.0,0.0,0.0,0.0,0.0,0.0,0.0,0.0,0.0,0.0,0.0,0.0,0.0,0.0,0.0,0.0,0.0,0.0,0.0,0.0,0.0,0.0,0.0,0.0,0.0,0.0,0.0,0.0,0.0,0.0,0.0,0.0,0.0,0.0,0.0,0.0,0.0,0.0,0.0,0.0,0.0,0.0,0.0,0.0,0.0,0.0,0.0,0.0,0.0,0.0,0.0,0.0,0.0,0.0,0.0,0.0,0.0,0.0,0.0,0.0,0.0,0.0,0.0,0.0,0.0,0.0,0.0,0.0,0.0,0.0,0.0,0.0,0.0,0.0,0.0,0.0,0.0,0.0,0.0,0.0,0.0,0.0,0.0,0.0,0.0,0.0,0.0,0.0,0.0,0.0,0.0,0.0,0.0,0.0,0.0,0.0,0.0,0.0,0.0,0.0,0.0,0.0,0.0,0.0,0.0,0.0,0.0,0.0,0.0,0.0,0.0,0.0,0.0,0.0,0.0,0.0,0.0,0.0,0.0,0.0,0.0,0.0,0.0,0.0,0.0,0.0,0.0,0.0,0.0,0.0,0.0,0.0,0.0,0.0,0.0,0.0,0.0,0.0,0.0,0.0,0.0,0.0,0.0,0.0,0.0,0.0,0.0,0.0,0.0,0.0,0.0,0.0,0.0,0.0,0.0,0.0,0.0,0.0,0.0,0.0,0.0,0.0,0.0,0.0,0.0,0.0,0.0,0.0,0.0,0.0,0.0,0.0,0.0,0.0,0.0,0.0,0.0,0.0,0.0,0.0,0.0,0.0,0.0,0.0,0.0,0.0,0.0,0.0,0.0,0.0,0.0,0.0,0.0,0.0,0.0,0.0,0.0,0.0,0.0,0.0,0.0,0.0,0.0,0.0,0.0,0.0,0.0,0.0,0.0,0.0,0.0,0.0,0.0,0.0,0.0,0.0,0.0,0.0,0.0,0.0,0.0,0.0,0.0,0.0,0.0,0.0,0.0,0.0,0.0,0.0,0.0,0.0,0.0,0.0,0.0,0.0,0.0,0.0,0.0,0.0,0.0,0.0,0.0,0.0,0.0,0.0,0.0,0.0,0.0,0.0,0.0,0.0,0.0,0.0,0.0,0.0,0.0,0.0,0.0,0.0,0.0,0.0,0.0,0.0,0.0,0.0,0.0,0.0,0.0,0.0,0.0,0.0,0.0,0.0,0.0,0.0,0.0,0.0,0.0,0.0,0.0,0.0,0.0,0.0,0.0,0.0,0.0,0.0,0.0,0.0,0.0,0.0,0.0,0.0,0.0,0.0,0.0,0.0,0.0,0.0,0.0,0.0,0.0,0.0,0.0,0.0,0.0,0.0,0.0,0.0,0.0,0.0,0.0,0.0,0.0,0.0,0.0,0.0,0.0,0.0,0.0,0.0,0.0,0.0,0.0,0.0,0.0,0.0,0.0,0.0,0.0,0.0,0.0,0.0,0.0,0.0,0.0,0.0,0.0,0.0,0.0,0.0,0.0,0.0,0.0,0.0,0.0,0.0,0.0,0.0,0.0,0.0,0.0,0.0,0.0,0.0,0.0,0.0,0.0,0.0,0.0,0.0,0.0,0.0,0.0,0.0,0.0,0.0,0.0,0.0,0.0,0.0,0.0,0.0,0.0,0.0,0.0,0.0,0.0,0.0,0.0,0.0,0.0,0.0,0.0,0.0,0.0,0.0,0.0,0.0,0.0,0.0,0.0,0.0,0.0,0.0,0.0,0.0,0.0,0.0,0.0,0.0,0.0,0.0,0.0,0.0,0.0,0.0,0.0,0.0,0.0,0.0,0.0,0.0,0.0,0.0,0.0,0.0,0.0,0.0,0.0,0.0,0.0,0.0,0.0,0.0,0.0,0.0,0.0,0.0,0.0,0.0,0.0,0.0,0.0,0.0,0.0,0.0,0.0,0.0,0.0,0.0,0.0,0.0,0.0,0.0,0.0,0.0,0.0,0.0,0.0,0.0,0.0,0.0,0.0,0.0,0.0,0.0,0.0,0.0,0.0,0.0,0.0,0.0,0.0,0.0,0.0,0.0,0.0,0.0,0.0,0.0,0.0,0.0,0.0,0.0,0.0,0.0,0.0,0.0,0.0,0.0,0.0,0.0,0.0,0.0,0.0,0.0,0.0,0.0,0.0,0.0,0.0,0.0,0.0,0.0,0.0,0.0,0.0,0.0,0.0,0.0,0.0,0.0,0.0,0.0,0.0,0.0,0.0,0.0,0.0,0.0,0.0,0.0,0.0,0.0,0.0,0.0,0.0,0.0,0.0,0.0,0.0,0.0,0.0,0.0,0.0,0.0,0.0,0.0,0.0,0.0,0.0,0.0,0.0,0.0,0.0,0.0,0.0,0.0,0.0,0.0,0.0,0.0,0.0,0.0,0.0,0.0,0.0,0.0,0.0,0.0,0.0,0.0,0.0,0.0,0.0,0.0,0.0,0.0,0.0,0.0,0.0,0.0,0.0,0.0,0.0,0.0,0.0,0.0,0.0,0.0,0.0,0.0,0.0,0.0,0.0,0.0,0.0,0.0,0.0,0.0,0.0,0.0,0.0,0.0,0.0,0.0,0.0,0.0,0.0,0.0,0.0,0.0,0.0,0.0,0.0,0.0,0.0,0.0,0.0,0.0,0.0,0.0,0.0,0.0,0.0,0.0,0.0,0.0,0.0,0.0,0.0,0.0,0.0,0.0,0.0,0.0,0.0,0.0,0.0,0.0,0.0,0.0,0.0,0.0,0.0,0.0,0.0,0.0,0.0,0.0,0.0,0.0,0.0,0.0,0.0,0.0,0.0,0.0,0.0,0.0,0.0,0.0,0.0,0.0,0.0,0.0,0.0,0.0,0.0,0.0,0.0,0.0,0.0,0.0,0.0,0.0,0.0,0.0,0.0,0.0,0.0,0.0,0.0,0.0,0.0,0.0,0.0,0.0,0.0,0.0,0.0,0.0,0.0,0.0,0.0,0.0,0.0,0.0,0.0,0.0,0.0,0.0,0.0,0.0,0.0,0.0,0.0,0.0,0.0,0.0,0.0,0.0,0.0,0.0,0.0,0.0,0.0,0.0,0.0,0.0,0.0,0.0,0.0,0.0,0.0,0.0,0.0,0.0,0.0,0.0,0.0,0.0,0.0,0.0,0.0,0.0,0.0,0.0,0.0,0.0,0.0,0.0,0.0,0.0,0.0,0.0,0.0,0.0,0.0,0.0,0.0,0.0,0.0,0.0,0.0,0.0,0.0,0.0,0.0,0.0,0.0,0.0,0.0,0.0,0.0,0.0,0.0,0.0,0.0,0.0,0.0,0.0,0.0,0.0,0.0,0.0,0.0,0.0,0.0,0.0,0.0,0.0,0.0,0.0,0.0,0.0,0.0,0.0,0.0,0.0,0.0,0.0,0.0,0.0,0.0,0.0,0.0,0.0,0.0,0.0,0.0,0.0,0.0,0.0,0.0,0.0,0.0,0.0,0.0,0.0,0.0,0.0,0.0,0.0,0.0,0.0,0.0,0.0,0.0,0.0,0.0,0.0,0.0,0.0,0.0,0.0,0.0,0.0,0.0,0.0,0.0,0.0,0.0,0.0,0.0,0.0,0.0,0.0,0.0,0.0,0.0,0.0,0.0,0.0,0.0,0.0,0.0,0.0,0.0,0.0,0.0,0.0,0.0,0.0,0.0,0.0,0.0,0.0,0.0,0.0,0.0,0.0,0.0,0.0,0.0,0.0,0.0,0.0,0.0,0.0,0.0,0.0,0.0,0.0,0.0,0.0,0.0,0.0,0.0,0.0,0.0,0.0,0.0,0.0,0.0,0.0,0.0,0.0,0.0,0.0,0.0,0.0,0.0,0.0,0.0,0.0,0.0,0.0,0.0,0.0,0.0,0.0,0.0,0.0,0.0,0.0,0.0,0.0,0.0,0.0,0.0,0.0,0.0,0.0,0.0,0.0,0.0,0.0,0.0,0.0,0.0,0.0,0.0,0.0,0.0,0.0,0.0,0.0,0.0,0.0,0.0,0.0,0.0,0.0,0.0,0.0,0.0,0.0,0.0,0.0,0.0,0.0,0.0,0.0,0.0,0.0,0.0,0.0,0.0,0.0,0.0,0.0,0.0,0.0,0.0,0.0,0.0,0.0,0.0,0.0,0.0,0.0,0.0,0.0,0.0,0.0,0.0,0.0,0.0,0.0,0.0,0.0,0.0,0.0,0.0,0.0,0.0,0.0,0.0,0.0,0.0,0.0,0.0,0.0,0.0,0.0,0.0,0.0,0.0,0.0,0.0,0.0,0.0,0.0,0.0,0.0,0.0,0.0,0.0,0.0,0.0,0.0,0.0,0.0,0.0,0.0,0.0,0.0,0.0,0.0,0.0,0.0,0.0,0.0,0.0,0.0,0.0,0.0,0.0,0.0,0.0,0.0,0.0,0.0,0.0,0.0,0.0,0.0,0.0,0.0,0.0,0.0,0.0,0.0,0.0,0.0,0.0,0.0,0.0,0.0,0.0,0.0,0.0,0.0,0.0,0.0,0.0,0.0,0.0,0.0,0.0,0.0,0.0,0.0,0.0,0.0,0.0,0.0,0.0,0.0,0.0,0.0,0.0,0.0,0.0,0.0,0.0,0.0,0.0,0.0,0.0,0.0,0.0,0.0,0.0,0.0,0.0,0.0,0.0,0.0,0.0,0.0,0.0,0.0,0.0,0.0,0.0,0.0,0.0,0.0,0.0,0.0,0.0,0.0,0.0,0.0,0.0,0.0,0.0,0.0,0.0,0.0,0.0,0.0,0.0,0.0,0.0,0.0,0.0,0.0,0.0,0.0,0.0,0.0,0.0,0.0,0.0,0.0,0.0,0.0,0.0,0.0,0.0,0.0,0.0,0.0,0.0,0.0,0.0,0.0,0.0,0.0,0.0,0.0,0.0,0.0,0.0,0.0,0.0,0.0,0.0,0.0,0.0,0.0,0.0,0.0,0.0,0.0,0.0,0.0,0.0,0.0,0.0,0.0,0.0,0.0,0.0,0.0,0.0,0.0,0.0,0.0,0.0,0.0,0.0,0.0,0.0,0.0,0.0,0.0,0.0,0.0,0.0,0.0,0.0,0.0,0.0,0.0,0.0,0.0,0.0,0.0,0.0,0.0,0.0,0.0,0.0,0.0,0.0,0.0,0.0,0.0,0.0,0.0,0.0,0.0,0.0,0.0,0.0,0.0,0.0,0.0,0.0,0.0,0.0,0.0,0.0,0.0,0.0,1.9333,0.0,0.0,0.0,0.0,0.0,0.0,0.0,0.0,0.0,0.0,0.0,0.0,0.0,0.0,0.0,0.0,0.0,0.0,0.0,0.0,0.0,0.0,0.0,0.0,1.0538,1.0785,1.078,1.1131,1.1345,1.1345,0.0,0.0,0.0,0.0,0.0,1.0775,1.0786,1.1408,1.2699,1.2699,1.3351,1.4638,1.4594,1.4415,1.4109,0.0,0.0,0.0,0.0,0.0,0.0,0.0,0.0,0.0,0.0,0.0,0.0,0.0,0.0,0.0,0.0,0.0,0.0,0.0,0.0,0.0,0.0,0.0,0.0,0.0,0.0,0.0,0.0,0.0,0.0,0.0,0.0,0.0,0.0,0.0,0.0,0.0,0.0,0.0,0.0,0.0,0.0,0.0,0.0,0.0,0.0,0.0,0.0,0.0,0.0,0.0,0.0,0.0,0.0,0.0,0.0,0.0,0.0,0.0,0.0,0.0,0.0,0.0,0.0,0.0,0.0,0.0,0.0,0.0,0.0,0.0,2.0534,0.0,0.0,0.0,0.0,0.0,0.0,0.0,0.0,0.0,0.0,0.0,0.0,0.0,0.0,0.0,0.0,0.0,0.0,0.0,0.0,0.0,1.0158,1.0292,1.0962,1.1455,1.1597,1.2214,1.2598,1.2598,1.1971,0.0,0.0,0.0,1.0867,1.1592,1.1765,1.2625,1.421,1.4656,1.5762,1.7486,1.8213,1.7883,1.6692,1.626,0.0,0.0,0.0,0.0,0.0,0.0,0.0,0.0,0.0,0.0,0.0,0.0,0.0,0.0,0.0,0.0,0.0,0.0,0.0,0.0,0.0,0.0,0.0,0.0,0.0,0.0,0.0,0.0,0.0,0.0,0.0,0.0,0.0,0.0,0.0,0.0,0.0,0.0,0.0,0.0,0.0,0.0,0.0,0.0,0.0,0.0,0.0,0.0,0.0,0.0,0.0,0.0,0.0,0.0,0.0,0.0,0.0,0.0,0.0,0.0,0.0,0.0,0.0,2.6515,2.6501,2.6512,2.6512,2.6979,2.7637,2.4591,2.3431,2.3612,2.2896,0.0,0.0,0.0,0.0,0.0,0.0,0.0,0.0,0.0,0.0,0.0,0.0,0.0,0.0,0.0,0.0,0.0,0.0,0.0,1.0378,1.1072,1.1293,1.1681,1.238,1.2533,1.2591,1.2591,1.2498,0.0,0.0,1.2325,1.2325,1.244,1.3174,1.4049,1.5049,1.727,1.9226,2.0936,2.1055,2.1398,2.1817,1.9661,1.7823,1.6316,0.0,0.0,0.0,0.0,0.0,0.0,0.0,0.0,0.0,0.0,0.0,0.0,0.0,0.0,0.0,0.0,0.0,0.0,0.0,0.0,0.0,0.0,0.0,0.0,0.0,0.0,0.0,0.0,0.0,0.0,0.0,0.0,0.0,0.0,0.0,0.0,0.0,0.0,0.0,0.0,0.0,1.5579,1.7433,0.0,0.0,0.0,0.0,0.0,0.0,0.0,0.0,0.0,0.0,0.0,0.0,0.0,2.5753,2.7505,2.7515,2.8396,3.011,3.0119,3.0104,3.0104,3.0104,3.0598,3.1348,3.0137,0.0,2.6373,2.6252,0.0,0.0,0.0,0.0,0.0,0.0,0.0,0.0,0.0,0.0,0.0,0.0,0.0,0.0,0.0,0.0,0.0,0.0,0.0,0.0,0.0,1.2898,1.3822,1.4667,1.5148,1.5225,1.4762,1.4287,1.3793,1.3296,1.2834,1.3044,1.3981,1.4386,1.5708,1.8018,2.0115,2.1532,2.2292,2.2774,2.2972,2.2861,2.2284,2.0835,1.8815,1.8423,0.0,0.0,0.0,0.0,0.0,0.0,0.0,0.0,0.0,0.0,0.0,0.0,0.0,0.0,0.0,0.0,0.0,0.0,0.0,0.0,0.0,0.0,0.0,0.0,0.0,0.0,0.0,0.0,0.0,0.0,0.0,0.0,0.0,0.0,0.0,0.0,0.0,0.0,0.0,1.6698,1.8788,2.0038,2.0586,2.0683,0.0,0.0,0.0,0.0,0.0,0.0,0.0,0.0,0.0,2.603,2.7659,2.9117,3.0383,3.0398,3.102,3.2268,3.276,3.2996,3.3015,3.3503,3.3934,3.423,3.3378,3.2338,3.1133,2.9164,2.7449,2.5969,0.0,0.0,0.0,0.0,2.4845,2.6007,0.0,0.0,0.0,0.0,0.0,0.0,0.0,0.0,0.0,0.0,0.0,0.0,1.3074,1.4343,1.5613,1.6923,1.737,1.7446,1.706,1.6029,1.5131,1.4484,1.3889,1.4153,1.5417,1.6062,1.796,2.1175,2.2698,2.3552,2.3781,2.4653,2.4743,2.4214,2.4865,2.3656,2.1102,2.0895,1.9216,0.0,0.0,0.0,0.0,0.0,0.0,0.0,0.0,0.0,0.0,0.0,0.0,0.0,0.0,0.0,0.0,0.0,0.0,0.0,0.0,0.0,0.0,0.0,0.0,0.0,0.0,0.0,0.0,0.0,0.0,0.0,0.0,0.0,0.0,0.0,0.0,0.0,0.0,1.957,2.1328,2.2401,2.328,2.3532,0.0,0.0,0.0,0.0,0.0,0.0,2.6618,2.8333,2.9268,2.9268,3.0904,3.2229,3.3086,3.3315,3.3879,3.4737,3.5381,3.5695,3.5715,3.6377,3.6669,3.663,3.5971,3.5699,3.5426,3.1945,3.0009,2.921,2.8569,2.7774,2.7037,2.7253,2.8158,2.9218,0.0,0.0,0.0,0.0,0.0,0.0,0.0,0.0,0.0,0.0,0.0,1.2208,1.4626,1.5007,1.6094,1.855,1.8039,1.7928,1.8727,1.7232,1.6311,1.6273,1.6235,1.6254,1.633,1.8711,2.1209,2.3803,2.4731,2.5596,2.6428,2.7299,2.7694,2.7643,2.7692,2.5884,2.273,2.1964,2.1094,2.0102,0.0,0.0,0.0,0.0,0.0,0.0,0.0,0.0,0.0,0.0,0.0,0.0,0.0,0.0,0.0,0.0,0.0,0.0,0.0,0.0,0.0,0.0,0.0,0.0,0.0,0.0,0.0,0.0,0.0,0.0,0.0,0.0,0.0,0.0,0.0,0.0,0.0,0.0,0.0,2.4077,2.5034,0.0,0.0,0.0,0.0,2.6737,2.7578,2.8437,2.9355,3.0993,3.191,3.191,3.3609,3.4917,3.5795,3.6615,3.7475,3.8334,3.8373,3.8392,3.8412,3.8451,3.8471,3.8471,3.8412,3.8393,3.8139,3.4637,3.2681,3.1898,3.1865,3.1302,3.0641,3.1462,3.1836,3.2024,0.0,0.0,0.0,0.0,0.0,0.99,0.989,0.9918,1.0231,1.1096,1.2202,1.3661,1.5617,1.7314,1.8919,2.037,2.0695,2.048,1.9716,1.91,1.8302,1.7217,1.7179,1.7672,1.8756,2.1278,2.3318,2.4833,2.5714,2.6586,2.7448,2.7755,2.7895,2.7906,2.7899,2.7233,2.6039,2.4717,2.3037,2.1166,1.998,1.8496,0.0,0.0,0.0,0.0,0.0,0.0,0.0,0.0,0.0,0.0,0.0,0.0,0.0,0.0,0.0,0.0,0.0,0.0,0.0,0.0,0.0,0.0,0.0,0.0,0.0,0.0,0.0,0.0,0.0,0.0,0.0,0.0,0.0,0.0,0.0,0.0,0.0,2.671,2.7685,0.0,2.821,2.872,2.9385,3.0226,3.0562,3.1366,3.2812,3.3984,3.4863,3.5429,3.6581,3.7361,3.7673,3.7984,3.8296,3.8609,3.9174,3.9448,3.9448,3.9975,4.0209,4.017,3.9663,3.9449,3.9295,3.7498,3.6228,3.5388,3.4822,3.4414,3.4178,3.451,3.495,3.5352,0.0,0.0,0.0,0.0,0.9903,0.991,0.99,1.0157,1.064,1.1487,1.3128,1.495,1.6927,1.8916,2.0671,2.2128,2.2467,2.2123,2.101,2.0418,1.9597,1.8497,1.8731,1.9663,2.1354,2.3315,2.4796,2.5694,2.6869,2.7742,2.8321,2.8615,2.8736,2.8736,2.8746,2.8584,2.8266,2.7215,2.531,2.2924,2.2343,2.0934,1.9015,0.0,0.0,0.0,0.0,0.0,0.0,0.0,0.0,0.0,0.0,0.0,0.0,0.0,0.0,0.0,0.0,0.0,0.0,0.0,0.0,0.0,0.0,0.0,0.0,0.0,0.0,0.0,0.0,0.0,0.0,0.0,0.0,0.0,0.0,0.0,2.7523,2.8968,3.0176,3.0877,3.088,3.1663,3.2407,3.2937,3.3525,3.4369,3.5524,3.6404,3.7284,3.8144,3.9023,3.9609,3.9882,4.0174,4.031,4.033,4.0915,4.1189,4.1208,4.1737,4.1971,4.1952,4.1406,4.1172,4.1113,4.0232,3.9547,3.8882,3.744,3.6869,3.6834,3.6834,3.7164,3.7525,0.0,0.0,0.0,0.9903,0.9903,0.9903,0.9903,1.0643,1.1493,1.2285,1.3948,1.6003,1.8521,1.9616,2.1186,2.3684,2.3155,2.2677,2.2639,2.1125,2.0208,2.0189,2.102,2.2243,2.3894,2.4793,2.5685,2.6584,2.8272,2.9108,2.9152,3.0008,3.0404,3.0404,3.04,2.9971,2.925,2.9308,2.7892,2.5611,2.5534,2.4015,2.1703,0.0,0.0,0.0,0.0,0.0,0.0,0.0,0.0,0.0,0.0,0.0,0.0,0.0,0.0,0.0,0.0,0.0,0.0,0.0,0.0,0.0,0.0,0.0,0.0,0.0,0.0,0.0,0.0,0.0,0.0,0.0,0.0,0.0,2.5814,2.7951,2.9869,3.0771,3.2428,3.3485,3.3473,3.4295,3.4825,3.4812,3.6412,3.739,3.7415,3.8258,3.9119,3.9998,4.0839,4.1641,4.2422,4.3301,4.373,4.373,4.3769,4.3789,4.3789,4.3749,4.3748,4.3748,4.3705,4.3699,4.3635,4.2788,4.242,4.2171,3.9662,3.864,3.8573,3.8573,3.8539,3.8471,0.0,0.0,0.9903,0.9903,0.9903,0.9903,0.9903,1.0643,1.1493,1.2285,1.446,1.6675,1.8583,2.0661,2.2442,2.3779,2.4268,2.4219,2.358,2.3103,2.2569,2.1939,2.2743,2.3709,2.4822,2.565,2.6815,2.8307,2.8785,2.9359,2.9978,3.022,3.0348,3.0404,3.04,3.0287,3.0062,3.0132,2.94,2.8024,2.6215,2.5058,2.4146,0.0,0.0,0.0,0.0,0.0,0.0,0.0,0.0,0.0,0.0,0.0,0.0,0.0,0.0,0.0,0.0,0.0,0.0,0.0,0.0,0.0,0.0,0.0,0.0,0.0,0.0,0.0,0.0,0.0,0.0,0.0,0.0,2.8311,2.8364,2.9528,3.0942,3.2502,3.4183,3.5223,3.5279,3.6609,3.7471,3.7519,3.8514,3.9396,4.0026,4.0888,4.175,4.2631,4.2886,4.3121,4.3336,4.4214,4.4644,4.4644,4.5288,4.5581,4.5562,4.4932,4.4635,4.4596,4.392,4.3634,4.3602,4.3323,4.3195,4.3011,4.1084,4.0337,4.0301,4.0252,4.02,4.0145,0.0,0.9897,0.9903,0.9903,0.9903,0.9903,0.9903,1.0929,1.187,1.2342,1.4984,1.735,1.8659,2.0761,2.2434,2.3288,2.4161,2.4297,2.3416,2.3671,2.3633,2.3168,2.4291,2.5187,2.5682,2.6842,2.7937,2.897,2.9327,2.9787,3.0305,3.0298,3.0342,3.0423,3.0774,3.0945,3.0956,3.0998,3.0719,3.0055,2.7917,2.6816,2.6249,2.4407,2.3484,2.3077,2.2169,2.1299,2.0446,1.9546,0.0,0.0,0.0,0.0,0.0,0.0,0.0,0.0,0.0,0.0,0.0,0.0,0.0,0.0,0.0,0.0,0.0,0.0,0.0,0.0,0.0,0.0,0.0,0.0,2.8606,3.0311,3.179,3.2458,3.32,3.4275,3.5906,3.6971,3.7037,3.8584,3.9605,3.9632,4.0764,4.1644,4.2157,4.2668,4.3492,4.4706,4.4749,4.5102,4.5824,4.633,4.6584,4.6604,4.7111,4.7344,4.7322,4.6823,4.6579,4.6528,4.5981,4.5508,4.5129,4.4677,4.4287,0.0,0.0,0.0,0.0,0.0,4.0833,4.0804,0.0,0.9897,0.9903,0.9903,0.9903,0.9903,0.9903,1.1325,1.2402,1.2402,1.544,1.7902,1.8716,2.0365,2.1727,2.2524,2.3305,2.3479,2.2787,2.3501,2.3978,2.4026,2.5545,2.6454,2.6536,2.8096,2.8949,2.9051,2.9823,3.0227,3.0292,3.0305,3.0393,3.0577,3.1346,3.1755,3.1836,3.1836,3.1771,3.1576,3.0083,2.8907,2.7952,2.7084,2.6309,2.5553,2.4615,2.377,2.2925,2.1991,0.0,0.0,0.0,0.0,0.0,0.0,0.0,0.0,0.0,0.0,0.0,0.0,0.0,0.0,0.0,0.0,0.0,0.0,0.0,0.0,0.0,0.0,0.0,0.0,3.0306,3.2114,3.5152,3.5899,3.6105,3.6083,3.763,3.8708,3.8781,4.0357,4.1379,4.1381,4.3002,4.3977,4.398,0.0,0.0,0.0,0.0,4.7227,4.8769,4.8884,4.8923,4.8923,4.9018,4.9069,4.9079,4.8967,4.8883,4.8822,4.8723,4.82,4.7348,4.6418,4.544,4.4414,4.281,4.215,4.1962,4.1116,4.0788,4.0782,0.0,0.9897,0.9903,0.9903,0.9903,0.9903,0.9903,1.1325,1.2402,1.2402,1.544,1.7902,1.8716,2.0365,2.1727,2.2524,2.2748,2.3081,2.3606,0.0,2.4853,2.4878,2.5843,2.6721,2.7434,2.8402,2.9242,2.9956,3.0115,3.0226,3.0292,3.0299,3.072,3.1468,3.1621,3.2064,3.2673,3.2673,3.2288,3.1672,3.1351,3.0304,2.8862,2.7985,2.7516,2.7223,2.6392,2.5501,2.4612,2.3788,2.3035,2.2398,2.2077,0.0,0.0,0.0,0.0,0.0,0.0,0.0,0.0,0.0,0.0,0.0,0.0,0.0,0.0,0.0,0.0,0.0,0.0,0.0,0.0,2.9957,3.2619,3.4757,3.5425,3.7295,3.8402,3.7885,3.9364,4.0438,4.0501,4.2096,4.3127,4.3124,4.4722,4.5722,4.5715,4.6989,4.7908,4.8295,4.8243,4.8373,4.8723,4.9352,4.9695,4.9695,0.0,0.0,5.0718,5.0014,4.9654,4.9554,4.8843,4.8406,4.8102,4.7161,4.5853,4.4279,4.2673,4.2009,4.1833,4.1023,4.072,4.072,0.9893,0.9897,0.9903,0.9903,0.9903,0.9903,0.9903,1.0986,1.1945,1.2345,1.4677,1.6626,1.7464,1.8724,1.984,2.0676,2.1883,2.2969,0.0,2.4625,2.5285,2.5723,2.6543,2.7415,2.8287,2.9127,2.9765,3.0211,3.0211,3.0226,3.0292,3.0292,3.0778,3.1667,3.2116,3.2756,3.3492,3.3492,3.3012,3.2218,3.1815,3.0887,2.9694,2.9264,2.8829,2.8397,2.7965,2.6964,2.5773,2.5359,2.4646,2.388,2.3435,2.2722,2.1971,0.0,0.0,0.0,0.0,0.0,0.0,0.0,0.0,0.0,0.0,0.0,0.0,0.0,0.0,2.603,0.0,0.0,3.0998,3.269,3.4385,3.5951,3.7209,3.8493,3.9185,3.8895,4.0383,4.1484,4.1544,4.352,4.4807,4.4801,4.6415,4.7392,4.7406,4.8195,4.8856,4.9298,4.9265,4.9464,4.9902,5.0295,5.0478,5.0462,5.0891,5.1093,5.1081,5.0655,5.0403,5.0329,4.9887,4.9417,4.8848,4.7491,4.6439,4.5472,4.3801,4.2919,4.249,4.2107,4.194,4.1967,0.9912,0.99,0.991,0.9903,0.9903,0.9903,0.9903,1.0643,1.1493,1.2285,1.3913,1.5323,1.6199,1.7074,1.7954,1.8818,2.0857,2.2533,0.0,2.4377,2.5266,2.6123,2.709,2.7955,2.8643,2.9669,3.0211,3.0211,3.0211,3.0219,3.0279,3.0279,3.0836,3.1859,3.255,3.3412,3.433,3.4323,3.3722,3.2725,3.2067,3.1205,3.0273,3.0273,2.9864,2.9269,2.8868,2.7861,2.6663,2.6282,2.5722,2.5053,2.436,2.4011,2.3744,2.3043,2.2214,0.0,0.0,0.0,0.0,0.0,0.0,0.0,0.0,0.0,2.5263,2.6897,2.794,2.905,3.0684,3.179,3.3115,3.5175,3.5925,3.6969,3.9015,3.9422,3.9613,3.9849,4.1261,4.2324,4.2536,4.4779,4.6205,4.6205,4.7816,4.8811,4.8817,4.8967,4.9355,5.0001,5.0015,5.0351,5.105,5.1056,5.1009,5.0954,5.092,5.0917,5.0933,5.0933,5.0885,5.0849,5.084,5.0312,4.9323,4.7766,4.7027,4.6722,4.5163,4.4185,4.3624,4.3304,4.3177,4.3177,0.0,0.989,0.9903,0.9906,0.9903,0.9903,0.9903,1.0643,1.1493,1.2285,1.3914,1.533,1.6208,1.7075,1.7939,1.8738,1.9769,0.0,2.2628,2.3545,2.4429,2.53,2.6861,2.7733,2.7829,2.9383,3.0211,3.0211,3.0211,3.0206,3.0214,3.0214,3.1083,3.267,3.2711,3.3635,3.5159,3.51,3.4155,3.271,3.2615,3.164,3.0192,3.0154,3.0092,2.9874,2.8312,2.7642,2.7246,2.5742,2.519,2.5095,2.5,2.4422,2.38,2.3686,0.0,2.2363,2.2363,2.2865,2.3379,2.3417,2.4605,2.5825,0.0,0.0,2.8617,2.966,3.0566,3.1493,3.2536,3.4019,3.5175,3.5456,3.7392,3.8977,3.9265,3.9919,4.0658,4.1447,4.2447,4.3361,4.4153,4.5909,4.6975,4.6975,4.8549,4.9512,4.956,5.0247,5.0712,5.0872,5.0809,5.0825,5.0921,5.0858,5.0836,5.0827,5.07,5.0635,5.0635,5.0635,5.0635,5.0633,5.0573,5.0043,4.9151,4.826,4.7463,4.6714,4.5799,4.5402,4.515,4.3662,4.3119,4.3127,0.0,0.992,0.9909,0.9903,0.9894,0.9903,0.9903,1.0204,1.075,1.1584,1.2781,1.3876,1.4756,1.6039,1.7164,1.7973,1.9307,2.0817,2.2479,2.3414,2.4494,2.5835,2.7052,2.7924,2.8383,2.9546,3.013,3.013,3.0135,3.0142,3.0152,3.0152,3.0796,3.1984,3.1962,3.2615,3.3737,3.3694,3.2991,3.1881,3.1881,3.1145,2.9977,2.9428,2.9223,2.9132,2.8476,2.7602,0.0,0.0,2.5404,2.4986,2.4986,2.474,2.4436,2.4436,2.4189,0.0,2.4477,2.5194,2.5823,0.0,2.67,2.774,2.8264,2.9388,3.0548,3.1506,3.2398,3.3137,3.3564,3.5032,3.6358,0.0,3.8277,3.9457,3.9938,4.0719,4.1585,4.245,4.3327,4.401,4.4392,4.6484,4.7793,4.7793,4.9346,5.0284,5.0276,5.0606,5.0782,5.0763,5.0745,5.0738,5.072,5.0702,5.0654,5.0625,5.0575,5.0535,5.0535,5.0535,5.0544,5.0532,5.0511,5.0289,4.9848,4.8537,4.7789,4.7377,4.606,4.5568,4.5518,4.4803,4.4542,4.457,0.0,0.9954,0.9918,0.9912,0.99,0.9891,0.9906,0.99,1.0213,1.1087,1.1947,1.2899,1.3971,1.5193,1.6255,1.7062,1.8512,2.0106,2.1803,2.2928,2.4179,2.5614,2.674,2.7593,2.8158,2.9205,2.9744,2.9729,2.9954,3.0068,3.0072,3.0072,3.0544,3.136,3.1371,3.1816,3.2564,3.2556,3.2047,3.1246,3.121,3.0516,2.9429,2.8747,2.8195,2.7756,2.7881,2.7146,0.0,0.0,2.5347,2.4811,2.4811,2.4811,2.4811,2.4825,2.4995,2.5321,2.5914,0.0,0.0,2.7999,2.8806,2.9784,3.0431,3.1305,3.2169,3.2855,3.3704,3.4343,3.4422,3.5659,3.6968,3.7831,3.8704,3.9558,4.0381,4.1258,4.2124,4.3008,4.3816,4.441,4.4694,4.6653,4.8,4.8232,4.9572,5.047,5.0664,5.0645,5.0625,5.0567,5.0567,5.0566,5.0582,5.0542,5.0511,5.0438,5.0416,5.0404,5.0382,5.0382,5.0382,5.0382,5.0382,5.0393,5.0301,4.8626,4.7959,4.7808,4.6129,4.5504,4.5531,4.5531,4.5568,4.5614,0.0,0.0,0.9973,0.9915,0.9893,0.9906,0.9906,0.99,1.021,1.1089,1.1897,1.3021,1.4696,1.4902,1.5287,1.6155,1.7064,1.8322,2.0068,2.1719,2.3014,2.3845,2.5463,2.6357,2.6376,2.8001,2.8843,2.8837,2.9616,2.9988,2.9996,2.9996,3.0475,3.1294,3.1304,3.1743,3.2495,3.2424,3.1896,3.1095,3.1042,2.9971,2.8434,2.8334,2.727,2.5799,2.5939,0.0,0.0,0.0,2.4634,2.4615,2.4615,2.4615,0.0,2.4599,2.526,0.0,0.0,0.0,2.9724,2.9724,3.0968,3.2213,3.2297,3.2995,3.3646,3.3743,3.4522,3.5179,3.5246,3.6002,3.6884,3.7755,3.8627,3.9507,4.0373,4.1258,4.2124,4.3008,4.3816,4.4624,0.0,4.6394,4.7278,4.8048,4.8885,4.972,5.0565,5.0542,5.0511,5.0511,5.0511,5.0511,5.05,5.0446,5.0359,5.0302,5.0243,5.0182,5.0108,5.0108,5.0108,5.0108,5.0108,5.0158,5.0078,4.8464,4.7832,4.7733,4.6052,4.541,4.541,4.541,4.5495,4.5594,0.0,0.0,0.0,0.9973,0.992,0.9909,0.9903,0.9909,1.0006,1.0304,1.1542,0.0,0.0,0.0,0.0,0.0,1.6966,1.8165,1.9919,2.1067,2.2302,2.3739,2.4847,2.5689,2.6214,2.7319,2.7873,2.7869,2.8104,2.8201,2.822,2.8788,2.9228,2.9534,3.0105,3.053,3.0774,3.0751,3.0557,3.0184,2.9529,2.8866,2.8138,2.6963,2.5792,2.469,0.0,0.0,0.0,2.3695,2.3603,2.3705,2.4235,0.0,0.0,2.5095,2.591,2.6859,2.8016,0.0,3.0593,3.1186,3.2221,3.3098,3.3108,3.3828,3.45,3.4528,3.4383,3.4281,3.4356,3.5076,3.5957,3.6826,3.8194,3.9454,4.0364,4.1717,4.2733,4.3066,4.4316,0.0,0.0,0.0,0.0,4.8048,4.8856,4.9661,5.0493,5.0468,5.0382,5.0294,5.0314,5.029,5.0243,5.0207,5.0194,5.017,5.0108,5.0025,4.9978,4.9978,5.0005,5.0031,5.0031,5.0082,5.0012,4.8348,4.7709,4.7594,4.5916,4.529,4.5339,4.5339,4.536,4.54,0.0,0.0,0.0,0.0,0.0,0.0,0.0,0.0,0.0,0.0,0.0,0.0,0.0,0.0,0.0,0.0,0.0,0.0,1.8935,2.0079,2.1323,2.2729,2.3593,2.4286,2.4809,2.5876,2.6446,2.6442,2.6968,2.7242,2.7277,2.7842,2.8102,2.8151,2.8726,2.8969,2.8966,2.8961,2.8938,2.8832,2.8181,2.7671,2.7121,2.5643,2.4543,0.0,0.0,0.0,2.2107,2.2445,2.2757,2.3069,0.0,0.0,2.4817,2.5636,2.675,2.8009,2.9427,3.0723,3.1796,3.2383,3.3223,3.3895,3.3915,3.4183,3.4394,3.4405,3.3818,3.3313,3.3354,3.4084,3.4965,3.5851,3.7434,3.8903,3.9849,4.1688,4.2961,4.306,4.4549,4.5712,0.0,0.0,0.0,4.8048,4.8817,4.963,5.0462,5.0382,5.029,5.02,5.0151,5.012,5.007,5.0044,5.0005,4.9952,4.9838,4.9769,4.9726,4.9726,4.9755,4.9797,4.9843,4.9898,4.9838,4.8479,4.7789,4.745,4.6062,4.5373,4.5159,4.5159,4.5159,4.5181,0.0,0.0,0.0,0.0,0.0,0.0,0.0,0.0,0.0,0.0,0.0,0.0,0.0,0.0,0.0,0.0,0.0,0.0,1.7183,1.8759,0.0,2.0896,2.1729,2.2199,2.2274,2.3776,2.4561,2.4562,2.6087,2.688,2.6933,2.6979,2.7048,2.711,2.7148,2.7185,2.7223,2.7242,2.7186,2.7121,2.7015,2.6358,2.5375,2.4441,0.0,0.0,0.0,0.0,0.0,0.0,0.0,0.0,0.0,0.0,0.0,2.6289,2.7761,2.9348,3.0309,3.1886,3.3273,3.3376,3.4041,3.465,3.4628,3.4037,3.3463,3.3382,3.277,3.2249,0.0,0.0,3.3817,3.4798,3.6396,3.7889,3.8931,4.1216,4.2852,0.0,0.0,0.0,0.0,0.0,0.0,4.8087,0.0,4.9569,5.0432,5.0314,5.0188,5.0175,5.005,4.9992,4.9978,4.9912,4.9816,4.9678,4.9476,4.9384,4.9384,4.9384,4.9384,4.9399,4.951,4.9619,4.9617,4.8824,4.8043,4.7289,4.6424,4.559,4.487,4.487,4.487,4.4926,0.0,0.0,0.0,0.0,0.0,0.0,0.0,0.0,0.0,0.0,0.0,0.0,0.0,0.0,0.0,0.0,0.0,0.0,0.0,0.0,0.0,0.0,2.0115,2.0782,2.1982,2.2449,2.268,2.2683,2.3148,2.3374,2.3412,2.4061,2.4433,2.4565,2.5126,2.5717,2.6324,2.6279,2.6249,2.6161,0.0,2.454,2.3638,0.0,0.0,0.0,0.0,0.0,0.0,0.0,0.0,0.0,0.0,0.0,2.688,0.0,0.0,3.0173,3.2346,3.3383,3.4048,3.4758,3.5177,3.5097,3.3866,3.3449,3.3004,3.1748,3.0904,3.0205,0.0,0.0,0.0,3.2769,3.4974,0.0,3.8575,4.1064,0.0,4.2842,0.0,4.6493,4.6743,4.7884,0.0,0.0,4.9071,4.9537,5.031,5.0207,5.0082,4.9973,4.9843,4.9764,4.9707,4.9581,4.9461,4.9343,4.9276,4.916,4.9027,4.9027,4.9094,4.926,4.9295,4.9371,4.942,4.8626,4.7814,4.7015,4.6135,4.5307,4.4605,4.4605,4.4605,4.4605,0.0,0.0,0.0,0.0,0.0,0.0,0.0,0.0,0.0,0.0,0.0,0.0,0.0,0.0,0.0,0.0,0.0,0.0,0.0,0.0,0.0,1.8918,1.891,1.9472,2.0734,2.1153,2.1345,2.1345,0.0,0.0,2.2021,2.2536,2.2832,2.2929,2.3337,2.3794,2.424,2.4204,0.0,0.0,0.0,0.0,0.0,0.0,0.0,0.0,0.0,0.0,0.0,0.0,0.0,2.45,2.5488,2.6684,2.7962,2.9121,0.0,3.1751,3.3674,3.4582,3.504,3.5264,3.5157,3.4667,3.3357,3.2284,3.1283,3.038,2.926,0.0,0.0,0.0,0.0,0.0,0.0,0.0,3.7893,4.0661,4.2561,0.0,4.4616,0.0,4.7027,4.7955,4.8781,0.0,4.961,4.9851,5.0181,5.0057,4.9912,4.9816,4.9585,4.9418,4.9292,4.9195,4.9113,4.9012,4.8959,4.8873,4.8767,4.8767,4.8838,4.8942,0.0,4.9062,4.909,4.8674,4.7831,4.6725,4.6243,4.5327,4.4277,4.4306,4.4321,4.4321,0.0,0.0,0.0,0.0,0.0,0.0,0.0,0.0,0.0,0.0,0.0,0.0,0.0,0.0,0.0,0.0,0.0,0.0,0.0,0.0,0.0,1.7944,1.795,1.8342,1.9248,1.9953,2.0309,0.0,0.0,0.0,0.0,0.0,0.0,0.0,0.0,0.0,0.0,0.0,0.0,0.0,0.0,0.0,0.0,0.0,0.0,0.0,0.0,0.0,0.0,0.0,2.3584,2.4335,2.6525,2.7875,2.8936,3.0395,3.2011,3.3532,3.4531,3.5423,3.5922,3.5349,3.4621,3.3783,3.2742,3.0805,2.9172,2.8901,0.0,2.6712,2.6738,2.811,2.9561,3.0481,0.0,3.5913,3.6944,3.9894,4.2089,4.2432,4.3973,4.5668,4.7407,4.7667,4.8352,4.9851,5.0114,5.017,5.0057,4.9857,4.9707,4.957,4.9292,4.9046,4.8855,4.8786,4.8769,4.8751,4.8624,4.8569,4.855,4.855,4.8569,4.8587,4.8697,0.0,4.8787,4.8839,4.7964,4.6609,4.6498,4.5514,4.4122,4.4085,4.4079,4.4094,0.0,0.0,0.0,0.0,0.0,0.0,0.0,0.0,0.0,0.0,1.43,1.491,0.0,0.0,0.0,0.0,0.0,0.0,0.0,0.0,0.0,0.0,1.6976,1.7624,1.9101,0.0,0.0,0.0,0.0,0.0,0.0,0.0,0.0,0.0,0.0,0.0,0.0,0.0,0.0,0.0,0.0,0.0,0.0,0.0,0.0,0.0,0.0,0.0,0.0,0.0,2.4175,2.5564,2.7301,2.8823,3.0148,3.1151,3.2618,3.4142,3.5109,3.5591,3.5841,3.5769,3.4724,3.3126,3.0998,2.9661,0.0,0.0,2.5831,2.5503,2.4967,2.6274,2.7718,2.8548,0.0,0.0,0.0,0.0,4.0686,0.0,0.0,0.0,0.0,0.0,0.0,0.0,0.0,4.9788,4.9778,4.9585,4.9305,4.8979,4.891,4.8804,4.8641,4.8642,4.8606,4.855,4.8532,4.8457,4.8363,4.8363,4.8401,4.8513,4.8532,0.0,4.8642,4.866,4.8105,4.7181,4.6515,4.5665,4.4741,4.4172,4.3945,4.3945,0.0,0.0,0.0,0.0,0.0,0.0,0.0,1.2364,1.3294,1.3649,1.4436,1.4944,1.4901,1.4896,1.4859,0.0,0.0,0.0,0.0,0.0,0.0,0.0,0.0,1.7902,0.0,0.0,0.0,0.0,0.0,0.0,0.0,0.0,0.0,0.0,0.0,0.0,0.0,0.0,0.0,0.0,0.0,0.0,0.0,0.0,0.0,0.0,0.0,0.0,0.0,0.0,2.3962,2.5275,2.7352,2.8765,2.993,3.1184,3.2403,3.3552,3.4433,3.5033,3.5365,3.5099,3.3858,3.2198,3.0251,0.0,0.0,0.0,2.4814,2.4496,2.4284,0.0,0.0,0.0,0.0,0.0,0.0,0.0,0.0,0.0,0.0,0.0,0.0,0.0,0.0,0.0,0.0,4.9371,4.9452,4.9228,4.896,4.8642,4.8642,4.8587,4.8458,4.8439,4.842,4.84,4.84,4.8363,4.8306,4.8306,4.8343,4.84,4.84,0.0,4.8439,4.8439,4.7979,4.7151,4.6359,4.5549,4.4757,4.4013,4.3783,4.3851,0.0,0.0,0.0,0.0,0.0,0.0,0.0,1.283,1.3901,1.4229,1.468,1.5058,1.5164,1.5004,1.4873,0.0,0.0,0.0,0.0,0.0,0.0,0.0,0.0,0.0,0.0,0.0,0.0,0.0,0.0,0.0,0.0,0.0,0.0,0.0,0.0,0.0,0.0,0.0,0.0,0.0,0.0,0.0,0.0,0.0,0.0,0.0,0.0,0.0,0.0,0.0,2.3603,2.4594,2.6545,2.7929,2.9092,3.0539,3.1775,3.28,3.3468,3.423,3.4673,3.4041,3.2711,3.1109,2.9398,2.7394,0.0,0.0,2.4151,2.3816,2.4009,0.0,0.0,0.0,0.0,0.0,0.0,0.0,0.0,0.0,0.0,0.0,0.0,0.0,0.0,0.0,0.0,0.0,4.9079,4.8875,4.8642,4.8457,4.8457,4.8419,4.8306,4.8306,4.8306,4.8306,4.8306,4.8306,4.8306,4.8306,4.8306,4.8306,4.8306,0.0,0.0,4.8306,4.792,4.7278,4.6471,4.5681,4.4874,4.4135,4.3832,4.3804,0.0,0.0,0.0,0.0,0.0,0.0,0.0,1.3186,1.4334,1.5862,1.544,1.5287,1.5993,1.5379,1.4908,0.0,0.0,0.0,0.0,0.0,0.0,0.0,0.0,0.0,0.0,0.0,0.0,0.0,0.0,0.0,0.0,0.0,0.0,0.0,0.0,0.0,0.0,0.0,0.0,0.0,0.0,0.0,0.0,0.0,0.0,0.0,0.0,0.0,0.0,0.0,0.0,2.4156,2.4378,2.6013,2.8009,2.8946,0.0,0.0,3.2747,3.3348,3.3737,3.301,3.1643,2.9852,2.7567,0.0,0.0,2.3827,2.358,2.3671,2.3795,2.4655,0.0,0.0,0.0,3.0134,0.0,0.0,0.0,0.0,0.0,0.0,0.0,0.0,0.0,0.0,0.0,0.0,4.8641,4.8569,4.8457,4.8325,4.8306,4.8306,4.8306,4.8306,4.8306,4.8306,4.8306,4.8306,4.8306,4.8306,4.8306,4.8306,4.8306,0.0,0.0,4.8306,4.8269,4.8122,4.7296,4.6507,4.57,4.4944,4.4311,4.3804,0.0,0.0,0.0,0.0,0.0,0.0,1.2432,1.3265,1.4207,1.5365,1.5228,1.5121,1.5435,1.5165,1.4947,1.4901,0.0,0.0,0.0,0.0,0.0,0.0,0.0,0.0,0.0,0.0,0.0,0.0,0.0,0.0,0.0,0.0,0.0,0.0,0.0,0.0,0.0,0.0,0.0,0.0,0.0,0.0,0.0,0.0,0.0,0.0,0.0,0.0,0.0,0.0,0.0,0.0,2.2516,2.3589,0.0,0.0,2.8765,2.9798,3.1215,3.1545,3.1508,3.175,3.0302,2.8476,2.7063,0.0,2.4572,2.3507,2.336,2.347,2.3642,2.4046,2.4574,2.5261,2.6667,2.8292,3.0038,0.0,0.0,0.0,0.0,0.0,0.0,0.0,0.0,0.0,0.0,0.0,4.842,4.8382,4.8363,4.8306,4.8306,4.8306,4.8306,4.8306,4.8306,4.8306,4.8306,4.8306,4.8306,4.8306,4.8306,4.8306,4.8306,0.0,0.0,4.8306,4.8306,4.8233,4.7406,4.6599,4.581,4.5038,4.4299,4.3684,0.0,0.0,0.0,0.0,0.0,1.1517,1.2114,1.3125,1.4107,1.4924,1.5038,1.5126,1.5368,1.5155,1.4971,1.491,1.4846,0.0,0.0,0.0,0.0,0.0,0.0,0.0,0.0,0.0,0.0,0.0,0.0,0.0,0.0,0.0,0.0,0.0,0.0,0.0,0.0,0.0,0.0,0.0,0.0,0.0,0.0,0.0,0.0,0.0,0.0,0.0,0.0,0.0,0.0,0.0,0.0,0.0,0.0,0.0,2.6911,2.7797,2.9396,2.9844,2.9928,3.0308,2.9092,2.7534,0.0,2.5293,2.4139,2.3339,2.3229,2.3324,2.347,2.3576,2.3909,2.4694,2.5795,2.7096,2.8664,0.0,0.0,0.0,0.0,0.0,0.0,0.0,0.0,0.0,0.0,0.0,4.8306,4.8306,4.8306,4.8306,4.8306,4.8306,4.8306,4.8306,4.8306,4.8306,4.8306,4.8287,4.8267,4.8267,4.8248,4.8209,4.8209,0.0,0.0,4.8267,4.8267,4.8251,4.7681,4.6947,4.6159,4.5351,4.4596,4.3928,0.0,0.0,0.0,0.0,0.0,0.0,1.131,1.2726,1.4115,1.498,1.5102,1.54,1.6208,1.5516,1.4975,1.4908,1.4832,0.0,0.0,0.0,0.0,0.0,0.0,0.0,0.0,0.0,1.8098,1.8905,1.8824,0.0,0.0,0.0,0.0,0.0,0.0,0.0,0.0,0.0,0.0,0.0,0.0,0.0,0.0,0.0,0.0,0.0,0.0,0.0,0.0,0.0,0.0,0.0,0.0,0.0,0.0,0.0,2.5532,2.7312,2.7329,2.85,2.952,2.8723,2.8053,2.72,0.0,2.4782,2.4062,2.3265,2.3139,2.3217,2.3289,2.3407,2.3555,2.3689,2.5234,2.6768,2.7764,0.0,0.0,0.0,0.0,0.0,0.0,0.0,0.0,0.0,0.0,0.0,4.8306,4.8306,4.8306,4.8306,4.8306,4.8306,4.8306,4.8306,4.8306,4.8306,4.8306,4.8267,4.8187,4.8187,4.813,0.0,0.0,0.0,0.0,4.8187,4.8228,4.8306,4.8306,4.7791,4.6984,4.6177,4.5423,4.4666,0.0,0.0,0.0,0.0,0.0,0.0,0.0,1.1752,1.2396,1.3284,1.3866,1.431,1.457,1.4832,1.4959,1.491,1.4832,0.0,0.0,0.0,0.0,0.0,0.0,0.0,0.0,0.0,1.8125,1.8824,1.8761,1.8697,0.0,0.0,0.0,0.0,0.0,0.0,0.0,0.0,0.0,0.0,0.0,0.0,0.0,0.0,0.0,0.0,0.0,0.0,0.0,0.0,0.0,0.0,0.0,0.0,0.0,0.0,0.0,0.0,2.5652,2.6137,2.6313,2.6682,2.5999,2.5094,2.4659,2.3994,2.3418,2.3142,2.2728,2.2553,2.3141,2.2853,2.2773,2.3497,2.4602,0.0,0.0,0.0,0.0,0.0,0.0,0.0,0.0,0.0,0.0,0.0,0.0,0.0,4.8306,4.8306,4.8306,4.8306,4.8306,4.8306,4.8306,4.8306,4.8286,4.8228,4.8228,4.8111,4.7913,4.7913,4.787,0.0,0.0,0.0,0.0,4.7913,4.8052,4.8228,4.8228,4.7771,4.7003,4.6195,4.5406,4.4616,0.0,0.0,0.0,0.0,0.0,0.0,0.0,1.1102,1.1498,1.2046,1.2836,1.3335,1.3311,1.4027,1.4474,1.4417,1.4621,0.0,0.0,0.0,0.0,0.0,0.0,0.0,0.0,1.6868,1.7627,1.8351,1.8865,1.9084,1.9045,1.9035,1.9025,0.0,0.0,0.0,0.0,0.0,0.0,0.0,0.0,0.0,0.0,0.0,0.0,0.0,0.0,0.0,0.0,0.0,0.0,0.0,0.0,0.0,0.0,0.0,1.9679,0.0,0.0,2.3814,2.4137,2.4749,2.4393,2.3905,2.3983,2.3258,2.267,2.2987,2.2486,2.2212,2.3015,2.2793,2.2706,2.3375,2.4491,0.0,0.0,0.0,0.0,0.0,0.0,0.0,0.0,0.0,0.0,0.0,0.0,0.0,4.8306,4.8306,4.8306,4.8306,4.8306,4.8287,4.8267,4.8267,4.8189,4.805,4.805,4.7911,4.7606,4.7606,4.7557,0.0,0.0,0.0,0.0,4.7708,4.787,4.8052,4.811,4.7838,4.7311,4.6194,4.548,4.4894,0.0,0.0,0.0,0.0,0.0,0.0,0.0,1.072,1.1209,1.1215,1.1972,1.2474,1.2405,1.3178,1.3664,1.3593,0.0,0.0,0.0,0.0,0.0,0.0,0.0,0.0,1.5286,1.6017,1.6787,1.7595,1.9064,1.9795,1.9785,1.979,1.9751,1.9663,1.8909,0.0,0.0,0.0,0.0,0.0,0.0,0.0,0.0,0.0,0.0,0.0,0.0,0.0,0.0,0.0,0.0,0.0,0.0,0.0,0.0,0.0,0.0,0.0,0.0,2.1503,0.0,0.0,2.3133,2.3369,2.3493,2.2565,0.0,2.2743,2.2309,2.2071,2.2925,2.3042,2.3061,2.3265,0.0,0.0,0.0,0.0,0.0,0.0,0.0,0.0,0.0,0.0,0.0,0.0,0.0,0.0,4.8287,4.8287,4.8287,4.8287,4.8267,4.8247,4.8187,4.8168,4.8032,4.7772,4.7772,4.7585,4.7258,4.7236,4.7143,0.0,0.0,0.0,0.0,4.7533,4.7702,4.7772,4.7893,4.7972,4.7789,4.624,4.5639,4.5384,0.0,0.0,0.0,0.0,0.0,0.0,0.0,0.0,0.0,0.0,1.106,1.1572,1.151,1.2768,1.361,0.0,0.0,0.0,0.0,0.0,0.0,0.0,0.0,0.0,1.5215,1.5962,1.6692,1.7453,1.897,1.9716,1.9728,2.0219,2.0155,1.9612,1.9356,1.8819,0.0,0.0,0.0,0.0,0.0,0.0,0.0,0.0,0.0,0.0,0.0,1.7203,0.0,0.0,0.0,0.0,0.0,0.0,0.0,0.0,1.6846,1.6936,1.7404,0.0,2.0334,2.1021,2.1429,2.1681,0.0,2.17,2.171,2.1948,0.0,2.1324,2.2696,2.2499,2.2326,0.0,0.0,0.0,0.0,0.0,0.0,0.0,0.0,0.0,0.0,0.0,0.0,0.0,0.0,4.8286,4.8226,4.8226,4.8169,4.8072,4.7974,4.7953,4.805,4.7951,4.7731,4.7432,4.7432,4.7236,4.6916,4.6824,4.6754,0.0,0.0,0.0,4.6916,4.7002,4.7165,4.7432,4.7454,4.7578,4.7656,4.6658,4.5914,4.5245,0.0,0.0,0.0,0.0,0.0,0.0,0.0,0.0,0.0,0.0,0.0,1.0824,1.1169,1.1951,0.0,0.0,0.0,0.0,0.0,0.0,0.0,0.0,0.0,1.4151,1.4583,1.5654,1.6396,1.6791,1.9034,2.0116,2.0129,2.0865,2.0784,2.0027,1.9279,1.8708,0.0,0.0,0.0,0.0,0.0,0.0,0.0,0.0,0.0,0.0,1.6415,1.6418,0.0,1.6587,1.662,1.6541,0.0,0.0,0.0,0.0,1.6501,1.6514,1.6583,1.7574,1.882,1.966,2.0327,2.0914,2.1412,0.0,0.0,0.0,0.0,0.0,0.0,0.0,0.0,0.0,0.0,0.0,0.0,0.0,0.0,0.0,0.0,0.0,0.0,0.0,0.0,0.0,0.0,4.8208,4.811,4.805,4.7992,4.7913,4.7689,4.7645,4.7767,4.7645,4.7371,4.6967,4.6967,4.6783,4.6429,4.6357,4.6284,0.0,0.0,0.0,4.6525,4.6661,4.6847,4.7075,4.7143,4.7249,4.727,4.6478,4.5669,4.488,0.0,0.0,0.0,0.0,0.0,0.0,0.0,0.0,0.0,0.0,0.0,0.0,0.0,0.0,0.0,0.0,0.0,0.0,0.0,0.0,0.0,0.0,0.0,1.3951,1.4068,1.5398,1.6203,1.6438,1.924,2.0657,2.0796,2.1584,2.1451,2.0501,1.8954,1.8263,0.0,0.0,0.0,0.0,0.0,0.0,0.0,0.0,0.0,0.0,0.0,0.0,0.0,1.6127,1.6343,1.6371,1.6371,0.0,0.0,0.0,0.0,0.0,1.6583,1.7185,1.7982,1.8797,1.9722,2.0639,2.1527,0.0,0.0,0.0,0.0,0.0,0.0,0.0,0.0,0.0,0.0,0.0,0.0,0.0,0.0,0.0,0.0,0.0,0.0,0.0,0.0,0.0,0.0,4.807,4.7911,4.779,4.771,4.7669,4.7367,4.7254,4.732,4.7254,4.6967,4.6542,4.6518,4.6308,4.5963,4.5938,4.5879,4.5812,0.0,0.0,4.6161,4.6398,4.6566,4.6684,4.6801,4.6865,4.6817,4.6117,4.5281,4.4395,0.0,0.0,0.0,0.0,0.0,0.0,0.0,0.0,0.0,0.0,0.0,0.0,0.0,0.0,0.0,0.0,0.0,0.0,0.0,0.0,0.0,1.3933,1.3909,1.4194,1.4818,1.5661,1.6707,1.7957,1.9723,2.0953,2.1631,2.2317,2.1843,2.036,1.8816,1.8063,1.7966,0.0,0.0,0.0,0.0,0.0,0.0,0.0,0.0,0.0,0.0,0.0,0.0,1.5454,1.5823,1.6236,1.6236,0.0,0.0,0.0,0.0,0.0,1.657,1.7146,1.7913,1.8783,1.9724,2.0497,2.0813,0.0,0.0,0.0,0.0,0.0,0.0,0.0,0.0,0.0,0.0,0.0,0.0,0.0,0.0,0.0,0.0,0.0,0.0,0.0,0.0,0.0,0.0,4.7728,4.741,4.7389,4.7298,4.7138,4.6847,4.6666,4.6572,4.6643,4.6548,4.6259,4.6137,4.6005,4.5821,4.5718,4.5718,4.5795,0.0,4.5744,4.5871,4.5922,4.6005,4.6137,4.6137,4.6211,4.6308,4.6167,4.5323,4.4004,0.0,0.0,0.0,0.0,0.0,0.0,0.0,0.0,0.0,0.0,0.0,0.0,0.0,0.0,0.0,0.0,0.0,0.0,0.0,0.0,0.0,1.3848,1.4231,1.4601,1.4938,1.6062,1.7173,1.8246,1.9722,2.0856,2.1633,2.148,2.1009,2.0221,1.8637,1.7872,1.7777,1.7681,0.0,0.0,0.0,0.0,0.0,0.0,0.0,0.0,0.0,0.0,0.0,0.0,1.5312,1.5622,1.5988,0.0,0.0,0.0,0.0,0.0,1.6501,1.7371,1.8358,1.8863,1.9618,2.0526,2.1579,2.207,0.0,0.0,0.0,0.0,0.0,0.0,0.0,0.0,0.0,0.0,0.0,0.0,0.0,0.0,0.0,0.0,0.0,0.0,0.0,0.0,0.0,0.0,4.591,4.5761,4.5628,4.5534,4.5199,4.4994,4.4946,4.4885,4.5208,4.5879,4.5803,4.5701,4.5581,4.5528,4.5528,4.5581,0.0,4.5581,4.5693,4.5693,4.577,4.5879,4.5879,4.593,4.5875,4.5037,4.4334,4.3576,0.0,0.0,0.0,0.0,0.0,0.0,0.0,0.0,0.0,0.0,0.0,0.0,0.0,0.0,0.0,0.0,0.0,0.0,0.0,0.0,1.375,1.3776,1.4668,1.5149,1.5158,1.6598,1.7807,1.8681,1.9969,2.0886,2.1439,2.0559,2.0025,1.9793,1.8345,1.7647,1.7537,1.7372,1.7216,0.0,0.0,0.0,0.0,0.0,0.0,0.0,0.0,0.0,0.0,0.0,0.0,0.0,0.0,0.0,0.0,1.6166,1.6248,1.6328,1.6461,1.7578,1.8738,1.893,0.0,2.0822,2.2452,2.3074,0.0,0.0,0.0,0.0,0.0,0.0,0.0,0.0,0.0,0.0,0.0,0.0,0.0,0.0,0.0,0.0,0.0,0.0,0.0,0.0,0.0,0.0,4.4471,4.4271,4.4158,4.4152,4.3816,4.3633,4.3633,4.3444,4.4039,4.5329,4.5304,4.5312,4.5397,4.5397,4.5397,4.5397,4.5397,4.545,4.5537,4.5537,4.5615,4.571,4.571,4.571,4.5502,4.4007,4.3433,4.3249,0.0,0.0,0.0,0.0,0.0,0.0,0.0,0.0,0.0,0.0,0.0,0.0,0.0,0.0,0.0,0.0,0.0,0.0,0.0,0.0,1.3138,1.3678,1.5132,1.5914,1.5922,1.7376,1.8791,2.0156,2.0997,2.1392,2.1292,2.0365,1.9526,1.8767,1.7845,1.7288,1.7055,1.703,1.6879,1.6586,0.0,0.0,0.0,0.0,0.0,0.0,0.0,0.0,0.0,0.0,0.0,0.0,0.0,0.0,1.5957,1.6139,1.6248,1.6328,1.6461,1.7578,1.8723,1.8873,2.0059,2.1517,2.2631,2.3152,0.0,2.4518,0.0,0.0,0.0,0.0,0.0,0.0,0.0,0.0,0.0,0.0,0.0,0.0,0.0,0.0,0.0,0.0,0.0,0.0,0.0,0.0,4.3781,4.3757,4.3704,4.3637,4.3492,4.3419,4.3419,4.3289,4.3662,4.4584,4.4457,4.476,4.5397,4.5397,4.5397,4.5397,4.5397,4.5397,4.5423,4.5423,4.5423,4.5423,4.5423,4.5423,4.526,4.385,4.3328,4.3103,0.0,0.0,0.0,0.0,0.0,0.0,0.0,0.0,0.0,0.0,0.0,0.0,0.0,0.0,0.0,0.0,0.0,0.0,0.0,1.2767,1.304,1.3671,1.4707,1.5453,1.5864,1.7849,1.935,2.0304,2.1307,2.149,2.0841,1.9983,1.9174,1.84,1.7506,1.7002,1.6866,1.6735,1.6581,1.63,1.5193,0.0,0.0,0.0,0.0,0.0,0.0,0.0,0.0,0.0,1.29,1.3458,1.4364,1.485,1.5203,1.5821,1.6125,1.6368,1.6954,1.788,1.8834,1.9384,2.0765,0.0,0.0,2.4559,2.5757,2.6633,2.7326,0.0,0.0,0.0,0.0,0.0,0.0,0.0,0.0,0.0,0.0,0.0,0.0,0.0,0.0,0.0,0.0,0.0,0.0,0.0,4.2155,4.212,4.2067,4.2055,4.1919,4.1823,4.1726,4.1677,4.199,4.2687,4.3329,4.3759,4.4027,4.4027,4.4027,4.4027,4.4027,4.4285,4.4716,4.4716,4.4992,4.5397,4.5397,4.5397,4.5276,4.4285,4.3619,4.3091,0.0,0.0,0.0,0.0,0.0,0.0,0.0,0.0,0.0,0.0,0.0,0.0,0.0,0.0,0.0,0.0,0.0,0.0,1.2338,1.2352,1.2711,1.3623,1.4397,1.4986,1.5411,1.7648,1.9281,2.0218,2.1113,2.1095,2.02,1.935,1.8537,1.7776,1.7101,1.6738,1.661,1.6448,1.6315,1.6056,1.4635,1.3964,0.0,0.0,0.0,0.0,0.0,0.0,0.0,0.0,1.2137,1.251,1.3713,1.4304,1.4709,1.5574,1.5983,1.636,1.7253,1.8071,1.893,1.9987,0.0,0.0,2.4313,2.5732,2.7063,2.793,2.8836,0.0,0.0,0.0,0.0,0.0,0.0,0.0,0.0,0.0,0.0,0.0,0.0,0.0,0.0,0.0,0.0,0.0,0.0,0.0,0.0,4.1006,4.0953,4.0912,4.0817,4.0728,4.0648,4.0648,4.084,4.1262,4.2009,4.2624,4.3131,4.3131,4.3156,4.3189,4.3189,4.3483,4.3949,4.3949,4.4234,4.4716,4.4716,4.4716,4.4613,4.3837,4.3258,4.2706,0.0,0.0,0.0,0.0,0.0,0.0,0.0,0.0,0.0,0.0,0.0,0.0,0.0,0.0,0.0,0.0,0.0,0.0,1.1391,1.1506,1.2133,1.3536,1.4364,1.4719,1.4595,1.6696,1.8516,2.0002,2.0379,2.0169,1.9364,1.8424,1.7524,1.6696,1.662,1.6452,1.6194,1.6194,1.6083,1.5779,1.4371,1.3717,0.0,0.0,0.0,0.0,0.0,0.0,0.0,0.0,1.1545,1.2217,1.2969,1.3734,1.4554,1.543,1.5882,1.6304,1.7239,1.8059,1.8997,0.0,0.0,0.0,2.5697,2.6469,2.708,2.7947,0.0,2.9782,3.0558,0.0,0.0,0.0,0.0,0.0,0.0,0.0,0.0,0.0,0.0,0.0,0.0,0.0,0.0,0.0,0.0,0.0,0.0,4.0697,4.0648,4.0493,4.051,4.051,4.051,4.051,4.051,4.051,4.051,4.1388,4.2988,4.2988,4.3047,4.3172,4.3172,4.3172,4.3189,4.3189,4.3189,4.3189,4.3189,4.3189,4.3103,4.2309,4.2016,4.1912,0.0,0.0,0.0,0.0,0.0,0.0,0.0,0.0,0.0,0.0,0.0,0.0,0.0,0.0,0.0,0.0,0.0,0.0,1.1332,1.1397,1.1999,1.3467,1.3709,1.4007,1.4372,1.5881,1.7631,1.9578,1.9591,1.9151,1.8262,1.7888,1.7275,1.649,1.6371,1.622,1.6053,1.5911,1.5769,1.5535,1.4551,1.3827,0.0,0.0,0.0,0.0,0.0,0.0,0.0,0.0,0.0,0.0,1.2188,1.2955,1.3747,1.4665,1.5782,1.6936,1.7881,1.8717,0.0,2.1305,0.0,0.0,0.0,2.731,0.0,0.0,0.0,3.1955,0.0,0.0,0.0,0.0,0.0,0.0,0.0,0.0,0.0,0.0,0.0,0.0,0.0,0.0,0.0,0.0,0.0,0.0,0.0,4.0558,4.0534,4.051,4.051,4.0461,4.0362,4.0362,4.0313,4.0221,4.0221,4.0584,4.1226,4.1342,4.1391,4.1457,4.1536,4.1878,4.2413,4.2965,4.3189,4.3189,4.3189,4.3189,4.3172,4.293,4.2499,4.1981,0.0,0.0,0.0,0.0,0.0,0.0,0.0,0.0,0.0,0.0,0.0,0.0,0.0,0.0,0.0,0.0,0.0,0.0,0.0,1.1267,1.1878,1.3328,1.3329,1.3551,1.4083,1.4857,1.5982,1.7494,1.7723,1.7671,1.7355,1.6934,1.672,1.669,1.633,1.6192,1.6202,1.5772,1.5477,1.5227,1.4443,1.3727,1.2991,0.0,0.0,0.0,0.0,0.0,0.0,0.0,0.0,0.0,1.1704,1.25,1.3337,1.4261,1.5681,1.7167,1.8115,1.9155,0.0,2.2036,2.3437,2.5013,2.727,0.0,0.0,0.0,0.0,0.0,0.0,0.0,0.0,0.0,0.0,0.0,0.0,0.0,0.0,0.0,0.0,0.0,0.0,0.0,0.0,0.0,0.0,0.0,0.0,4.0412,4.0387,4.032,4.032,4.0313,4.0213,4.0213,4.0188,4.0096,4.0096,4.0171,4.0362,4.0534,4.0648,4.0697,4.084,4.1153,4.1602,4.2085,4.2292,4.2292,4.2292,4.2292,4.2292,4.2292,4.1981,4.1567,0.0,0.0,0.0,0.0,0.0,0.0,0.0,0.0,0.0,0.0,0.9483,0.0,0.0,0.0,0.0,0.0,0.0,0.0,0.0,0.0,1.172,1.3117,1.3103,1.3245,1.3678,1.3682,1.3898,1.4397,1.5256,1.6008,1.6575,1.5822,1.6084,1.7133,1.6448,1.6306,1.6498,1.5653,1.5123,1.4824,1.408,1.3375,1.2705,1.1963,0.0,0.0,0.0,0.0,0.0,0.0,0.0,0.0,1.1419,1.2244,1.3171,1.4036,1.5535,1.7091,1.8038,0.0,0.0,0.0,0.0,0.0,0.0,0.0,0.0,0.0,0.0,0.0,0.0,0.0,0.0,0.0,0.0,0.0,0.0,0.0,0.0,0.0,0.0,0.0,0.0,0.0,0.0,0.0,0.0,0.0,0.0,4.0263,4.0188,4.0087,4.0045,4.0045,4.0045,4.0045,4.007,4.0087,4.0087,4.007,4.0096,4.0362,4.0558,4.0697,4.084,4.0912,4.0912,4.0912,4.0912,4.0912,4.0912,4.0912,4.0912,4.0912,4.0912,4.0912,0.0,0.0,0.0,0.0,0.0,0.0,0.0,0.0,0.0,0.0,0.0,0.0,0.0,0.0,0.0,0.0,0.0,0.0,0.0,0.0,1.1544,1.2905,1.2806,1.2735,1.2774,1.273,1.2732,1.2801,1.4185,1.5137,1.5681,1.5916,1.6352,1.6954,1.6623,1.6393,1.6121,1.483,1.4211,1.3992,1.3205,1.2499,1.1922,1.1707,1.1246,0.0,0.0,0.0,0.0,0.0,0.0,0.0,1.0927,1.157,1.2416,1.3277,1.5064,1.6954,0.0,1.9352,0.0,0.0,0.0,0.0,0.0,0.0,0.0,0.0,0.0,0.0,0.0,0.0,0.0,0.0,0.0,0.0,0.0,0.0,0.0,0.0,0.0,0.0,0.0,0.0,0.0,0.0,0.0,0.0,4.0003,4.0003,3.991,3.9807,3.9781,3.9781,3.9781,3.9781,3.9833,0.0,3.9935,3.9986,4.0113,4.0263,4.0478,4.0697,4.084,4.0912,4.0912,4.0912,4.0912,4.0912,4.0912,4.0912,4.0912,4.0912,4.0912,4.0912,0.0,0.0,0.0,0.0,0.0,0.0,0.0,0.0,0.0,0.0,0.0,0.0,0.0,0.0,0.0,0.0,0.0,0.0,0.0,1.0816,1.1336,1.2652,1.2585,1.2457,1.2363,1.2328,1.2277,1.22,1.3335,1.4218,1.4829,1.5662,1.6455,1.7176,1.6706,1.6321,1.5916,1.4507,1.3641,1.319,1.2717,1.2198,1.1639,1.1613,1.1234,1.0693,1.0693,0.0,0.0,0.0,0.0,0.0,0.0,0.0,1.2154,1.297,1.4613,1.6443,0.0,0.0,0.0,0.0,0.0,0.0,0.0,0.0,0.0,0.0,0.0,0.0,0.0,0.0,0.0,0.0,0.0,0.0,0.0,0.0,0.0,0.0,0.0,0.0,0.0,0.0,0.0,0.0,0.0,3.9935,3.9807,3.9746,3.9668,3.9616,3.9504,3.9461,3.9461,3.9461,3.953,3.9694,3.9694,3.9824,4.0011,4.0213,4.0429,4.0624,4.068,4.0728,4.0817,4.0817,4.084,4.0912,4.0912,4.0912,4.0912,4.0912,4.0912,4.0912,0.0,0.0,0.0,0.0,0.0,0.0,0.0,0.0,0.0,0.0,0.0,0.0,0.0,0.0,0.0,0.0,0.0,0.0,0.0,1.0679,1.1253,1.2412,1.2363,1.2282,1.2174,1.2138,1.2101,1.2044,1.2837,1.3523,1.4111,1.5398,1.6517,1.7407,1.6762,1.6231,1.5726,1.4229,1.3134,1.2416,1.2252,1.1885,1.1437,1.1437,1.1139,1.0693,1.0693,1.0693,1.0693,1.0693,0.0,0.0,0.0,0.0,1.1935,1.2694,1.4007,1.5565,0.0,0.0,0.0,0.0,0.0,0.0,0.0,0.0,0.0,0.0,0.0,0.0,0.0,0.0,0.0,0.0,0.0,0.0,0.0,0.0,0.0,0.0,0.0,0.0,0.0,0.0,0.0,0.0,0.0,3.9241,3.9189,3.9075,3.9013,3.896,3.8778,3.8758,3.8873,3.8873,3.9053,3.9379,3.9475,3.9633,3.9849,4.0062,4.0288,4.0461,4.0485,4.0558,4.0673,4.0697,4.0769,4.0864,4.0888,4.0912,4.0912,4.0912,4.0912,4.0912,0.0,0.0,0.0,0.0,0.0,0.0,0.0,0.0,0.0,0.0,0.9012,0.8942,0.8919,0.8863,0.0,0.0,0.0,0.0,0.9636,0.0,0.0,1.2215,1.2128,1.2044,1.2033,1.1912,1.1848,1.1837,1.3097,1.368,1.3627,1.5521,1.6683,1.7125,1.6864,1.6298,1.543,1.3561,1.2362,1.1694,1.114,1.0896,1.0815,1.0815,1.076,1.0693,1.0693,1.0693,1.0693,1.0693,1.0693,0.0,0.0,0.0,0.0,1.1981,1.2933,1.4027,0.0,0.0,0.0,0.0,0.0,0.0,0.0,0.0,0.0,0.0,0.0,0.0,0.0,0.0,0.0,0.0,0.0,0.0,0.0,0.0,0.0,0.0,0.0,0.0,0.0,0.0,0.0,0.0,3.7502,3.735,3.7103,3.7094,3.6964,3.6733,3.669,3.6983,3.7541,3.7541,3.8003,3.8887,3.9299,3.9528,3.9554,3.9703,3.9986,4.0337,4.0461,4.051,4.0534,4.0648,4.0697,4.0745,4.0847,4.0912,4.0912,4.0912,4.0912,4.0912,0.0,0.0,0.0,0.0,0.0,0.0,0.0,0.0,0.0,0.0,0.0,0.8789,0.8789,0.8723,0.0,0.0,0.0,0.0,0.9828,1.0725,0.0,1.2009,1.1902,1.1794,1.1722,1.1652,1.1608,1.1575,1.2917,1.3472,1.3316,1.5566,1.6709,1.6864,1.6691,1.6177,1.5263,1.3391,1.2211,1.1546,1.0949,1.0896,1.1207,1.1207,1.1207,1.1207,1.1207,1.099,1.0693,1.0693,1.0693,1.0693,1.0693,0.0,0.0,0.0,0.0,0.0,1.5305,0.0,0.0,0.0,0.0,0.0,0.0,0.0,0.0,0.0,0.0,0.0,0.0,0.0,0.0,0.0,0.0,0.0,0.0,0.0,0.0,0.0,0.0,0.0,0.0,0.0,0.0,0.0,3.6763,3.6607,3.6476,3.6397,3.6265,3.6034,3.5969,3.6016,3.6238,3.6321,3.684,3.7859,3.8323,3.8751,3.9121,3.9441,3.9772,4.0079,4.0138,4.0238,4.0387,4.0453,4.0551,4.0697,4.0769,4.084,4.0912,4.0912,4.0912,4.0912,0.0,0.0,0.0,0.0,0.0,0.0,0.0,0.0,0.0,0.0,0.0,0.0,0.8886,0.0,0.0,0.0,0.0,0.0,1.0052,0.0,0.0,0.0,0.0,1.1541,1.1433,1.141,1.1376,1.1319,1.2629,1.3182,1.3077,1.5485,1.6582,1.6564,1.6476,1.6003,1.5175,1.3509,1.2429,1.179,1.133,1.1424,1.1831,1.1831,1.1831,1.1831,1.1831,1.1438,0.0,0.0,0.0,0.0,0.0,0.0,0.0,0.0,0.0,0.0,0.0,0.0,0.0,0.0,0.0,0.0,0.0,0.0,0.0,0.0,0.0,0.0,0.0,0.0,0.0,0.0,0.0,0.0,0.0,0.0,0.0,0.0,0.0,0.0,0.0,0.0,0.0,0.0,3.573,3.5561,3.5508,3.5401,3.5251,3.5056,3.4963,3.496,3.5023,3.5336,3.5896,3.6662,3.7097,3.766,3.8362,3.876,3.9196,3.9625,3.9781,3.9961,4.0138,4.0213,4.0379,4.0534,4.0624,4.0745,4.0864,4.0864,4.0864,4.0912,0.0,0.0,0.0,0.0,0.0,0.0,0.0,0.0,0.0,0.0,0.0,0.0,0.9367,0.9298,0.8978,0.8281,0.0,0.0,0.0,0.0,0.0,0.0,0.0,0.0,1.1227,1.1143,1.112,1.112,1.2334,1.2898,1.2872,1.5222,1.6298,1.6226,1.6226,1.5845,1.5118,1.388,1.301,1.2454,1.2413,1.2427,1.2454,1.2454,1.2454,1.2454,1.2454,0.0,0.0,0.0,0.0,0.0,0.0,0.0,1.073,0.0,0.0,0.0,0.0,0.0,0.0,0.0,0.0,0.0,0.0,0.0,0.0,0.0,0.0,0.0,0.0,0.0,0.0,0.0,0.0,0.0,0.0,0.0,0.0,0.0,0.0,0.0,0.0,0.0,0.0,0.0,3.3744,3.3535,3.3286,3.326,3.3179,3.306,3.3033,3.333,3.3982,3.4792,3.5294,3.5498,3.5756,3.636,3.7206,3.7355,3.7943,3.8887,3.9451,3.9729,3.9755,4.0011,4.0138,4.0163,4.0412,4.0583,4.0697,4.0697,4.0793,4.0912,0.0,0.0,0.0,0.0,0.0,0.0,0.0,0.0,0.0,0.0,0.0,0.0,0.0,0.9515,0.9095,0.875,0.8637,0.0,0.0,0.0,0.0,0.0,0.0,0.0,0.0,1.0956,1.0944,1.0908,1.1776,1.236,1.2719,1.4324,1.5247,1.5605,1.6363,1.6372,1.5698,1.449,1.362,0.0,1.3078,1.3308,1.3703,1.4083,1.4232,1.4178,0.0,0.0,0.0,0.0,0.0,0.0,1.1275,1.1017,1.0705,1.0777,1.1448,0.0,0.0,0.0,0.0,0.0,0.0,0.0,0.0,0.0,0.0,0.0,0.0,0.0,0.0,0.0,0.0,0.0,0.0,0.0,0.0,0.0,0.0,0.0,0.0,0.0,0.0,0.0,0.0,0.0,0.0,3.3069,3.2978,3.2978,3.2881,3.2718,3.2718,3.2827,3.306,3.3391,3.3845,3.445,3.4628,3.5158,3.6027,3.6722,3.7298,3.7739,3.8542,3.905,3.9408,3.9625,3.9755,3.9884,4.0121,4.0337,4.0478,4.0624,4.0721,4.0793,0.0,0.0,0.0,0.0,0.0,0.0,0.0,0.0,0.0,0.986,0.0,0.0,0.0,0.0,0.9611,0.9237,0.9062,0.9215,0.9763,1.0058,0.0,0.0,0.0,0.0,0.0,1.0801,1.0801,1.0765,1.1416,1.191,1.2293,1.3506,1.4362,1.4941,1.596,1.6172,1.5738,0.0,0.0,1.4002,0.0,0.0,1.4951,1.5345,1.5494,1.5457,0.0,0.0,0.0,0.0,0.0,0.0,0.0,1.1654,1.1016,1.1078,1.154,0.0,1.3255,0.0,0.0,0.0,0.0,0.0,0.0,0.0,0.0,0.0,0.0,0.0,0.0,0.0,0.0,0.0,0.0,0.0,0.0,0.0,0.0,0.0,0.0,0.0,0.0,0.0,0.0,0.0,0.0,0.0,3.2746,3.2746,3.2676,3.2551,3.2523,3.2523,3.2523,3.2523,3.2865,3.3453,3.3548,3.4062,3.4935,3.5601,3.6103,3.653,3.7319,3.8132,3.8952,3.9175,3.9309,3.9425,3.9781,4.0011,4.0205,4.0429,4.0551,4.0648,0.0,0.0,0.0,0.0,0.0,0.0,0.0,0.0,1.0513,1.1126,0.0,0.0,0.0,0.0,0.0,0.9693,0.9437,0.9571,1.0151,1.0089,0.0,0.0,0.0,0.0,1.0693,1.0693,1.0693,1.0693,1.1288,1.1573,1.164,1.2793,1.3676,1.4273,1.486,1.5118,1.5091,1.4561,1.4669,1.5199,0.0,1.5589,1.6127,0.0,0.0,0.0,1.6168,1.5793,0.0,1.5254,0.0,0.0,0.0,1.2591,1.164,1.1692,1.1823,0.0,0.0,0.0,0.0,0.0,0.0,0.0,0.0,0.0,0.0,0.0,0.0,0.0,0.0,0.0,0.0,0.0,0.0,0.0,0.0,0.0,0.0,0.0,0.0,0.0,0.0,0.0,0.0,0.0,3.2578,3.2551,3.2425,3.2398,3.2398,3.2398,3.2398,3.2398,3.2398,3.2398,3.2453,3.2578,3.2578,3.3044,3.3848,3.3892,3.4351,3.5194,3.5873,3.7017,3.8331,3.8667,3.8777,3.8832,3.9299,3.9642,3.9901,4.0037,4.0246,4.051,0.0,0.0,0.0,0.0,0.0,1.1032,1.0276,1.0153,1.0367,0.0,0.0,0.0,1.2186,1.1556,1.0832,1.0173,0.9915,0.987,1.0039,1.0377,1.0625,1.0729,1.0729,1.0717,1.0693,1.0693,1.0693,1.0693,1.0869,1.1166,1.16,1.1939,1.2428,1.301,1.3173,1.3254,1.3322,1.4463,0.0,1.524,1.567,1.6213,0.0,0.0,0.0,0.0,0.0,1.7671,1.7087,0.0,1.5715,1.4561,0.0,0.0,1.2251,1.2265,1.2334,0.0,1.3525,0.0,0.0,0.0,0.0,0.0,0.0,0.0,0.0,0.0,0.0,0.0,0.0,0.0,0.0,0.0,0.0,0.0,0.0,0.0,0.0,0.0,0.0,0.0,0.0,0.0,0.0,0.0,3.2453,3.2425,3.2398,3.2398,3.2398,3.2398,3.2398,3.2398,3.2398,3.2398,3.2425,3.2453,3.2453,3.2643,3.2998,3.3522,3.3933,3.4335,3.5527,3.6285,3.674,3.7735,3.8201,3.8343,3.8805,3.9094,3.9292,3.9661,3.9969,4.0238,0.0,0.0,0.0,1.2132,1.202,1.1882,1.1672,1.1688,1.1815,0.0,0.0,0.0,1.2848,1.2259,1.1731,1.1366,1.0944,1.0709,1.0709,1.0734,1.0741,1.0693,1.0693,1.0693,1.0693,1.0693,1.0693,1.0693,1.0693,1.0869,1.122,1.122,1.156,1.2116,1.2116,1.2251,1.2589,1.3893,0.0,0.0,1.6132,0.0,0.0,1.8812,1.9179,0.0,0.0,0.0,1.8587,1.8235,1.7312,0.0,0.0,0.0,0.0,0.0,0.0,0.0,0.0,0.0,0.0,0.0,0.0,0.0,0.0,1.8605,0.0,0.0,0.0,0.0,0.0,0.0,0.0,0.0,0.0,0.0,0.0,0.0,0.0,0.0,0.0,0.0,0.0,3.2353,3.248,3.2425,3.2398,3.2398,3.2398,3.2398,3.2398,3.2398,3.2398,3.2398,3.2398,3.2398,3.2398,3.2398,3.2398,3.2425,3.2539,3.2968,3.3194,3.3339,3.4441,3.5122,3.5537,3.656,3.7295,3.7841,3.8258,3.8595,3.8887,3.9212,3.953,3.9858,0.0,0.0,1.236,1.2943,1.3065,1.3226,1.3688,1.3918,1.3978,0.0,1.3794,1.3754,1.3514,1.3249,1.3052,1.2983,1.232,1.1828,1.1692,1.1136,1.076,1.0693,1.0693,1.0693,1.0693,1.0693,1.0693,1.0693,1.0693,1.0693,1.0693,1.0693,1.099,1.1492,1.1492,1.1804,1.2332,1.3024,0.0,1.5213,1.6403,1.7671,0.0,0.0,1.9741,1.9809,1.9863,1.9849,1.9781,1.9714,1.8907,0.0,0.0,0.0,0.0,0.0,1.4961,0.0,0.0,0.0,0.0,0.0,0.0,0.0,1.7188,1.7922,1.8798,0.0,0.0,0.0,0.0,0.0,0.0,0.0,0.0,0.0,0.0,0.0,0.0,0.0,0.0,0.0,3.1259,3.1828,3.2213,3.2275,3.2351,3.2398,3.2398,3.2398,3.2398,3.2398,3.2398,3.2398,3.2398,3.2398,3.2398,3.2398,3.2398,3.2398,3.2398,3.2398,3.2398,3.2428,3.3106,3.3838,3.4603,3.5361,3.6328,3.7387,3.7711,3.8087,3.8528,3.8667,3.9013,3.9432,0.0,1.2343,1.2658,1.2689,1.3129,1.3481,1.3484,1.3951,1.4275,1.4123,1.4801,1.5473,1.5945,1.5288,1.4623,1.413,1.3465,1.2659,1.1681,1.1505,1.1207,1.072,1.0693,1.0693,1.0693,1.0693,1.0693,1.0693,1.0693,1.0693,1.0693,1.0693,1.076,1.0869,1.0869,1.0937,1.1126,1.221,0.0,1.4572,1.5793,0.0,1.8874,1.9456,1.9985,2.041,2.0884,2.0762,2.0288,1.9849,1.8907,1.7848,0.0,0.0,0.0,1.5901,0.0,1.5824,1.6068,0.0,0.0,0.0,0.0,0.0,1.6809,1.7664,1.8493,0.0,0.0,0.0,0.0,0.0,0.0,0.0,0.0,0.0,0.0,0.0,0.0,0.0,0.0,0.0,3.0479,3.0709,3.1028,3.1536,3.209,3.2398,3.2398,3.2398,3.2398,3.2398,3.2398,3.2398,3.2398,3.2398,3.2398,3.2398,3.2398,3.2398,3.2398,3.2398,3.2398,3.2428,3.3106,3.3519,3.3763,3.5027,3.6149,3.7105,3.7284,3.7551,3.7889,3.8046,3.8427,3.8942,1.2686,1.2819,1.3067,1.3255,1.3821,1.4328,1.4557,1.5175,1.5561,1.5405,1.5747,1.6114,1.6417,1.6001,1.5587,1.5274,1.4384,1.3595,1.2984,1.2089,1.1465,1.1166,1.0855,1.0693,1.0693,1.0693,1.0693,1.0693,1.0693,1.0693,1.0693,1.0693,1.0855,1.1152,1.1152,1.1329,1.1682,0.0,1.392,1.486,1.6064,0.0,1.9315,1.9867,2.045,2.0992,2.129,2.1209,2.087,2.0288,1.9714,0.0,0.0,1.7963,1.7054,0.0,1.7014,1.662,1.6919,0.0,0.0,1.7049,0.0,0.0,0.0,1.7501,1.8018,1.8039,0.0,0.0,0.0,0.0,0.0,0.0,0.0,0.0,0.0,0.0,0.0,0.0,0.0,0.0,2.9325,3.0002,3.054,3.0889,3.1213,3.1551,3.1874,3.189,3.2044,3.2382,3.2398,3.2398,3.2398,3.2398,3.2398,3.2398,3.2398,3.2398,3.2398,3.2398,3.2398,3.2413,3.2752,3.309,3.346,3.4152,3.4979,3.5824,3.6642,3.7164,3.7478,3.7594,3.7943,3.8371,1.3117,1.3109,1.3314,1.3841,1.4548,1.5197,1.5654,1.6391,1.6895,1.6914,1.6844,1.6784,1.6729,1.6772,1.6702,1.6471,1.5562,1.4789,1.4327,1.293,1.2021,1.1777,1.1303,1.0991,1.0869,1.0869,1.0815,1.0693,1.0693,1.0693,1.0693,1.0693,1.103,1.16,1.1722,1.2102,0.0,0.0,0.0,1.5484,0.0,1.818,1.9768,2.0301,2.087,2.1399,2.1399,2.1399,2.1331,2.0843,2.0613,2.0423,1.9976,1.9117,0.0,0.0,0.0,0.0,0.0,0.0,0.0,0.0,0.0,1.7435,0.0,0.0,0.0,1.7805,0.0,0.0,0.0,0.0,0.0,0.0,0.0,0.0,0.0,0.0,0.0,0.0,0.0,0.0,0.0,2.907,2.9899,3.0186,3.0202,3.0494,3.1166,3.1197,3.1505,3.2182,3.2198,3.2259,3.2398,3.2398,3.2398,3.2398,3.2398,3.2398,3.2398,3.2398,3.2398,3.2398,3.2398,3.2705,3.3213,3.3352,3.3752,3.4428,3.5905,3.6644,3.6946,3.7191,3.7476,3.7783,1.2326,1.2612,1.3095,1.3637,1.4711,1.5505,1.5457,1.647,1.7425,1.7965,1.835,1.8597,1.8576,1.8997,1.8859,1.7794,1.7576,1.6585,1.4436,1.411,1.3513,1.244,1.2332,1.2048,1.1505,1.1492,1.1234,1.0693,1.0693,1.0693,1.0693,1.0693,1.103,1.1614,1.2156,0.0,0.0,0.0,1.5457,0.0,1.7299,1.8547,0.0,2.0301,2.087,2.1399,2.1399,2.1399,2.1385,0.0,2.0938,2.0481,0.0,1.9976,1.951,1.9578,0.0,0.0,0.0,0.0,0.0,0.0,1.8699,0.0,0.0,0.0,1.8227,1.8227,0.0,0.0,0.0,0.0,0.0,0.0,0.0,0.0,0.0,0.0,0.0,0.0,0.0,0.0,0.0,2.7062,2.8106,2.9417,2.9494,2.9802,3.0479,3.0509,3.0828,3.1474,3.1516,3.1782,3.2382,3.2398,3.2398,3.2398,3.2398,3.2398,3.2398,3.2398,3.2398,3.2398,3.2398,3.2428,3.2552,3.3152,3.346,3.366,3.5075,3.5735,3.5947,3.6552,3.6983,3.7298,1.2817,1.3093,1.3422,1.3951,1.4776,1.5476,1.5759,1.6855,1.7859,1.846,1.8719,1.8977,1.9331,1.9559,1.9497,1.8981,0.0,1.7834,0.0,0.0,1.4816,1.3593,1.3213,1.2591,1.1614,1.16,1.1302,1.0693,1.0693,1.0693,1.0706,1.1058,1.1546,1.2156,1.3119,0.0,1.4517,0.0,1.658,0.0,0.0,0.0,0.0,2.0423,2.087,2.1399,2.1399,2.1399,2.1399,0.0,2.1223,0.0,0.0,0.0,0.0,0.0,0.0,0.0,0.0,0.0,0.0,0.0,0.0,0.0,1.8085,0.0,1.8055,0.0,0.0,0.0,0.0,0.0,0.0,0.0,0.0,0.0,0.0,0.0,0.0,0.0,0.0,0.0,0.0,0.0,0.0,0.0,2.7852,2.8422,2.9072,2.9577,3.032,3.1378,3.1409,3.1705,3.2382,3.2398,3.2398,3.2398,3.2398,3.2398,3.2398,3.2398,3.2398,3.2398,3.2398,3.2398,3.2413,3.269,3.2813,3.2921,3.3891,3.4827,3.5674,3.6414,3.6785,3.6922,1.3233,1.3452,1.3641,1.4192,1.4805,1.5457,1.624,1.7366,1.8296,1.8752,1.907,1.9505,2.0107,2.0311,0.0,0.0,1.9872,1.9193,0.0,0.0,1.6132,1.5087,1.4463,1.3581,1.236,1.2333,1.1885,1.0949,1.0949,1.0855,1.0706,1.1315,1.1912,1.2562,1.3934,1.4982,1.577,0.0,1.7848,1.8465,1.951,2.0247,2.0762,2.0762,2.1019,2.1399,2.1399,2.1399,2.1399,2.1399,2.1399,0.0,2.1399,0.0,0.0,0.0,0.0,0.0,2.0175,0.0,0.0,0.0,0.0,0.0,0.0,0.0,0.0,0.0,0.0,0.0,0.0,0.0,0.0,0.0,0.0,0.0,0.0,0.0,0.0,0.0,0.0,0.0,0.0,0.0,0.0,0.0,0.0,2.6986,2.7889,2.8507,2.9473,3.0797,3.1028,3.1443,3.2105,3.2305,3.2398,3.2398,3.2398,3.2398,3.2398,3.2398,3.2398,3.2398,3.2398,3.2398,3.2398,3.2398,3.2398,3.2459,3.3136,3.4152,3.5321,3.6075,3.6477,3.6662,1.3191,1.3373,1.3579,1.4192,1.4805,1.5607,1.6783,1.7997,1.8793,1.8806,1.9768,0.0,0.0,0.0,0.0,0.0,0.0,2.083,1.9714,0.0,1.7563,1.6932,1.6349,1.5453,0.0,1.4205,1.3337,1.156,1.156,1.1275,1.0706,1.1315,1.1912,1.2576,1.4368,1.5838,1.7014,1.8228,1.9097,1.9686,2.0247,2.083,2.1372,0.0,2.1372,2.1399,2.1399,0.0,0.0,2.1399,2.1399,0.0,0.0,0.0,0.0,0.0,0.0,0.0,0.0,0.0,0.0,2.0599,0.0,0.0,0.0,0.0,1.7902,0.0,0.0,0.0,0.0,0.0,0.0,0.0,0.0,0.0,0.0,0.0,0.0,0.0,0.0,0.0,0.0,0.0,0.0,0.0,0.0,0.0,2.7147,2.7395,2.8088,2.9427,3.0079,3.0766,3.1439,3.2074,3.2398,3.2398,3.2398,3.2398,3.2398,3.2398,3.2398,3.2398,3.2398,3.2398,3.2398,3.2398,3.2398,3.2459,3.3136,3.386,3.4613,3.529,3.5953,3.6523,1.4166,1.4369,1.4336,1.4138,1.459,1.543,1.6669,1.797,1.907,0.0,2.0599,0.0,0.0,2.2781,2.2903,0.0,0.0,2.209,2.0884,2.0423,0.0,1.8242,1.7617,1.6729,0.0,0.0,0.0,0.0,1.2387,1.2102,1.1899,0.0,0.0,0.0,0.0,1.624,0.0,0.0,0.0,0.0,0.0,2.1792,2.1966,0.0,2.1643,2.2007,2.2007,2.2239,0.0,2.2591,2.2591,2.2591,2.2591,2.2591,2.2591,2.2591,2.2591,0.0,0.0,0.0,2.1857,2.125,0.0,0.0,0.0,0.0,0.0,0.0,0.0,0.0,0.0,0.0,0.0,0.0,0.0,0.0,0.0,0.0,0.0,0.0,0.0,0.0,0.0,0.0,0.0,0.0,2.4522,0.0,0.0,2.6811,2.7811,2.8719,2.9817,3.0709,3.1382,3.2044,3.2398,3.2398,3.2398,3.2398,3.2398,3.2398,3.2398,3.2398,3.2398,3.2398,3.2398,3.2398,3.2398,3.2413,3.2644,3.3152,3.3906,3.506,3.5907,3.6523,1.4995,1.5136,1.5017,1.4702,1.5114,1.587,1.6961,1.822,0.0,0.0,2.1345,0.0,2.3689,0.0,2.3933,0.0,2.396,2.3418,2.2415,2.1955,0.0,1.979,1.9144,0.0,0.0,0.0,0.0,0.0,0.0,1.3037,0.0,0.0,0.0,0.0,0.0,1.6552,1.7394,0.0,1.9781,0.0,0.0,2.2441,0.0,0.0,2.228,2.2619,0.0,2.2863,2.3215,2.3215,2.3215,2.3215,2.3215,2.3215,2.3215,2.3215,2.3215,2.3215,2.3215,2.2917,0.0,2.186,2.1016,0.0,1.9537,0.0,0.0,0.0,0.0,0.0,0.0,0.0,0.0,0.0,0.0,0.0,0.0,0.0,0.0,0.0,0.0,0.0,0.0,0.0,2.1202,2.2222,0.0,0.0,0.0,0.0,2.7287,2.8027,2.9341,3.0381,3.1043,3.1705,3.2151,3.2398,3.2398,3.2398,3.2398,3.2398,3.2398,3.2398,3.2398,3.2398,3.2398,3.2398,3.2398,3.2398,3.2398,3.2813,3.3506,3.4414,3.5183,3.5799,1.5676,1.5635,0.0,0.0,1.6346,0.0,0.0,0.0,2.0034,0.0,2.2034,2.3105,2.4856,2.5073,2.5317,2.5887,2.5426,2.4829,2.4177,2.3078,0.0,0.0,2.0911,2.0057,1.8948,0.0,0.0,0.0,0.0,0.0,0.0,0.0,0.0,0.0,1.53,0.0,1.7963,1.9184,2.0355,2.1494,2.2117,2.2727,2.3256,2.3296,2.3296,2.3296,2.3269,2.3269,2.3296,2.3296,2.3296,2.3296,2.3296,2.3296,2.3296,2.3296,2.3296,2.3296,2.3296,2.3283,2.3106,2.2536,0.0,0.0,0.0,0.0,1.9741,0.0,0.0,0.0,0.0,0.0,0.0,0.0,0.0,0.0,0.0,0.0,0.0,0.0,0.0,0.0,0.0,0.0,1.9146,2.0575,2.1123,0.0,0.0,0.0,2.6558,2.7334,2.8688,2.971,3.0386,3.1059,3.1747,3.2398,3.2398,3.2398,3.2398,3.2398,3.2398,3.2398,3.2398,3.2398,3.2398,3.2398,3.2398,3.2398,3.2398,3.2782,3.3367,3.3429,3.3891,3.4505,1.6332,1.7002,1.7652,0.0,1.7754,1.7537,0.0,0.0,0.0,0.0,2.339,2.4652,2.5561,2.6077,2.6386,2.6579,2.6413,0.0,0.0,0.0,0.0,2.2795,2.2158,2.1505,2.0758,1.9315,0.0,1.7434,0.0,0.0,1.4737,0.0,0.0,0.0,0.0,0.0,1.7821,1.9035,2.0455,2.2019,2.3083,2.3649,0.0,0.0,2.4529,2.4462,2.4028,2.415,2.4529,2.4529,2.4529,2.4529,2.4529,2.4529,2.4529,2.4529,2.4529,2.4529,2.4529,2.4204,2.3825,2.3676,2.2861,2.1925,0.0,0.0,0.0,0.0,0.0,0.0,0.0,0.0,0.0,0.0,0.0,0.0,0.0,0.0,0.0,0.0,0.0,0.0,0.0,0.0,1.8152,1.9016,0.0,0.0,0.0,0.0,0.0,2.6512,2.8394,2.971,3.0386,3.1059,3.1747,3.2398,3.2398,3.2398,3.2398,3.2398,3.2398,3.2398,3.2398,3.2398,3.2398,3.2398,3.2398,3.2398,3.2398,3.2505,3.2782,3.3842,3.4351,3.4505,1.739,1.807,0.0,1.9393,0.0,0.0,1.9605,2.0849,0.0,2.3336,2.4367,0.0,2.6552,2.6999,2.7172,2.7172,2.7172,0.0,2.586,0.0,0.0,2.4042,2.3649,2.2956,2.1805,2.0568,0.0,1.8704,0.0,0.0,1.5443,0.0,0.0,0.0,0.0,1.638,0.0,1.9324,2.1024,2.2496,2.3419,0.0,0.0,2.4685,2.4835,2.4766,2.443,2.4608,2.5005,2.5005,2.5005,2.5005,2.5005,2.5005,2.5005,2.5005,2.5005,2.5005,2.5005,2.4761,2.4421,2.4164,2.3581,2.2943,2.232,2.1927,2.1602,0.0,0.0,0.0,0.0,0.0,0.0,0.0,0.0,0.0,0.0,0.0,0.0,0.0,0.0,0.0,0.0,0.0,0.0,0.0,0.0,0.0,0.0,0.0,0.0,2.6176,2.7709,2.911,3.0293,3.0755,3.1417,3.2315,3.237,3.2398,3.2398,3.2398,3.2398,3.2398,3.2398,3.2398,3.2398,3.2398,3.2398,3.2398,3.2398,3.2398,3.249,3.3275,3.3596,3.3596,1.8745,0.0,0.0,0.0,0.0,0.0,0.0,2.2221,0.0,2.4882,0.0,2.5955,2.7542,2.7773,2.7827,2.7827,0.0,2.7569,2.6955,2.6915,2.64,2.529,2.5168,2.4354,2.2698,2.1925,2.0938,0.0,0.0,1.6439,1.5758,0.0,0.0,0.0,0.0,0.0,0.0,1.9934,2.1741,2.2817,2.3509,2.411,2.4591,2.4591,2.4591,2.4591,2.4591,2.475,2.4977,2.4977,2.4977,2.5005,2.5005,2.5005,2.5005,2.5005,2.5005,2.5005,2.5005,2.5005,2.4883,2.434,2.4218,2.4055,2.3472,2.3323,2.331,2.3228,2.2781,2.2224,0.0,0.0,0.0,0.0,0.0,0.0,0.0,0.0,0.0,0.0,0.0,0.0,0.0,0.0,0.0,0.0,0.0,0.0,0.0,0.0,0.0,2.594,2.6865,2.8268,3.0147,0.0,3.0983,3.2191,3.2342,3.2398,3.2398,3.2398,3.2398,3.2398,3.2398,3.2398,3.2398,3.2398,3.2398,3.2398,3.2398,3.2398,3.2398,3.2398,3.2425,3.2425,2.0417,0.0,0.0,0.0,0.0,2.4062,2.4298,2.4448,2.48,2.5629,2.6606,2.7352,2.7678,2.8139,2.8438,2.8438,2.8438,0.0,0.0,0.0,0.0,2.6508,2.6009,2.5358,2.4544,2.297,2.1524,0.0,1.7901,1.6363,1.5684,0.0,0.0,0.0,0.0,0.0,1.8803,2.0743,0.0,2.2723,2.3781,2.4357,2.4591,2.4591,2.4591,2.4591,2.4591,2.4706,2.4835,2.4835,2.492,2.5005,2.5005,2.5005,2.5005,2.5005,2.5005,2.5005,2.5005,2.5005,2.4978,2.4883,2.4842,2.4693,2.4069,2.3933,2.3798,2.331,2.3134,2.2713,2.1602,0.0,0.0,0.0,0.0,0.0,0.0,0.0,0.0,0.0,0.0,0.0,0.0,0.0,0.0,0.0,0.0,0.0,0.0,0.0,0.0,0.0,2.6327,0.0,0.0,0.0,3.0903,3.2191,3.2342,3.2398,3.2398,3.2398,3.2398,3.2398,3.2398,3.2398,3.2398,3.2398,3.2398,3.2398,3.2398,3.2398,3.2398,3.2398,3.2453,3.2578,2.1792,0.0,0.0,0.0,0.0,0.0,0.0,2.6239,2.6377,2.6796,2.7339,2.7827,2.8125,2.8424,2.8587,2.8587,2.8587,2.8478,2.8193,2.8166,2.7908,2.7311,2.6999,2.6253,2.5032,2.3771,2.233,2.0716,1.8512,1.6869,1.5776,0.0,0.0,0.0,0.0,1.7287,0.0,0.0,0.0,2.2601,2.3743,2.4245,2.4345,2.4345,2.4345,2.4345,2.4345,2.4447,2.4565,2.475,2.4892,2.5005,2.5005,2.5005,2.5005,2.5005,2.5005,2.5005,2.5005,2.5005,2.5005,2.5005,2.5005,2.4924,2.4639,2.4584,2.4462,2.4177,2.3879,2.3201,2.167,2.0473,0.0,0.0,0.0,0.0,0.0,0.0,0.0,0.0,0.0,0.0,0.0,0.0,0.0,0.0,0.0,0.0,0.0,0.0,0.0,0.0,0.0,0.0,0.0,0.0,0.0,3.2191,3.2342,3.2398,3.2398,3.2398,3.2398,3.2398,3.2398,3.2398,3.2398,3.2398,3.2398,3.2398,3.2398,3.2398,3.2398,3.2398,3.2551,3.2746,0.0,2.324,0.0,0.0,2.4767,0.0,2.7117,2.7471,2.7615,2.7863,2.7895,2.8071,2.8546,2.8587,2.8587,2.8587,2.8587,2.8587,2.8587,2.8554,2.8306,2.7845,2.7678,2.6918,2.5499,2.4494,2.3098,0.0,1.931,1.7523,0.0,0.0,0.0,0.0,0.0,0.0,0.0,0.0,2.2021,2.2663,2.3694,2.4083,2.4083,2.4083,2.4083,2.4083,2.4083,2.4187,2.435,2.4664,2.4835,2.4948,2.4977,2.5005,2.5005,2.5005,2.5005,2.5005,2.5005,2.5005,2.5005,2.5005,2.5005,2.5005,2.5005,2.5005,2.5005,2.5005,2.4502,2.3621,2.2063,2.1182,0.0,0.0,0.0,0.0,0.0,0.0,0.0,0.0,0.0,0.0,0.0,0.0,0.0,0.0,0.0,0.0,1.7106,1.7856,1.9893,0.0,0.0,2.6283,2.9485,0.0,3.0834,3.2191,3.2342,3.2398,3.2398,3.2398,3.2398,3.2398,3.2398,3.2398,3.2398,3.2398,3.2398,3.2398,3.2398,3.2398,3.2398,3.2398,3.2621,3.2897,0.0,0.0,0.0,0.0,0.0,0.0,2.7155,2.7685,2.8149,2.8473,2.8519,2.8532,2.8587,2.8587,2.8587,2.8587,2.8587,2.8587,2.8587,2.843,2.8306,2.8252,2.7608,2.7165,2.7005,2.5187,2.3617,0.0,0.0,1.8132,0.0,0.0,0.0,0.0,0.0,0.0,0.0,2.1759,2.2635,2.3197,2.3851,2.4083,2.4083,2.4083,2.4083,2.4083,2.4083,2.4187,2.4321,2.4549,2.4706,2.4835,2.4948,2.5005,2.5005,2.5005,2.5005,2.5005,2.5005,2.5005,2.5005,2.5005,2.5005,2.5005,2.5005,2.5005,2.5005,2.5005,2.4502,2.3879,2.3174,2.209,2.1114,0.0,0.0,0.0,0.0,0.0,0.0,0.0,0.0,0.0,0.0,0.0,0.0,0.0,0.0,0.0,1.5561,1.6972,1.8574,2.0384,0.0,2.5432,2.7891,2.9303,3.0738,3.2191,3.2342,3.2398,3.2398,3.2398,3.2398,3.2398,3.2398,3.2398,3.2398,3.2398,3.2398,3.2398,3.2398,3.2398,3.2398,3.2398,3.2621,3.2897,0.0,0.0,0.0,0.0,0.0,0.0,0.0,2.8781,2.9029,2.9288,2.8705,2.8308,2.8308,2.8308,2.8308,2.8308,2.8308,2.8308,2.8308,2.8118,2.8006,2.8006,2.7597,2.7222,2.6854,2.5561,2.4288,0.0,0.0,0.0,0.0,0.0,0.0,0.0,0.0,2.0333,2.077,2.2168,2.3095,2.3667,2.4357,2.4831,2.5075,2.4753,2.4622,2.4583,2.4243,2.4128,2.4203,2.4376,2.4607,2.4806,2.4948,2.5005,2.5005,2.5005,2.5005,2.5005,2.5005,2.5005,2.5005,2.5005,2.5005,2.5005,2.5005,2.5005,2.5005,2.5005,2.4502,2.392,2.3323,2.251,2.1724,0.0,0.0,0.0,0.0,0.0,0.0,0.0,0.0,0.0,0.0,0.0,0.0,0.0,0.0,0.0,0.0,1.657,0.0,2.0419,0.0,2.4887,2.78,2.9269,3.0792,3.2315,3.237,3.2398,3.2398,3.2398,3.2398,3.2398,3.2398,3.2398,3.2398,3.2398,3.2151,3.1782,3.1782,3.1782,3.1782,3.1782,3.2195,3.2746,2.7808,0.0,2.7727,0.0,2.8669,2.8861,2.935,2.9451,2.9487,2.9614,2.8934,2.8432,2.8359,2.8345,2.8266,2.8092,2.8046,2.8,2.8,2.7802,2.7623,2.7577,2.7356,0.0,2.6568,2.5702,2.4697,2.3627,2.1991,0.0,0.0,0.0,0.0,0.0,2.0391,2.1197,2.1428,2.2952,2.3875,2.4348,2.4931,2.5427,2.5754,2.5367,2.5254,2.5171,2.4766,2.4592,2.4609,2.4761,2.4967,2.5132,2.4985,2.4977,2.5005,2.5005,2.5005,2.5005,2.5005,2.5005,2.5005,2.5005,2.5005,2.5005,2.5005,2.5005,2.5005,2.5005,2.4502,2.392,2.3323,2.27,2.2101,2.1494,0.0,0.0,0.0,0.0,0.0,0.0,1.7522,1.7157,1.689,0.0,0.0,0.0,0.0,0.0,0.0,0.0,0.0,0.0,0.0,0.0,2.7523,2.9163,3.0819,3.2398,3.2398,3.2398,3.2398,3.2398,3.2398,3.2398,3.2398,3.2398,3.2398,3.2398,3.1982,3.1409,3.1409,3.1409,3.1409,3.1409,3.1909,3.2621,2.9482,2.9354,2.9284,2.931,2.931,2.931,2.931,2.931,2.931,2.931,2.9297,2.918,2.891,2.8877,2.8685,2.8132,2.7934,2.7809,2.7809,2.749,2.7222,0.0,0.0,2.6598,2.6402,2.5562,2.4816,2.4206,0.0,0.0,2.0076,0.0,1.9223,1.9567,2.1517,2.2445,2.269,2.4293,2.509,2.5313,2.544,2.561,2.5793,2.578,2.578,2.578,2.5767,2.5767,2.5798,2.5923,2.5972,2.5836,2.5039,2.4892,2.5005,2.5005,2.5005,2.5005,2.5005,2.5005,2.5005,2.5005,2.5005,2.5005,2.5005,2.5005,2.5005,2.5005,2.4502,2.392,2.3323,2.27,2.2101,2.1494,0.0,0.0,0.0,0.0,0.0,0.0,1.7889,1.7638,1.7054,0.0,0.0,0.0,0.0,0.0,0.0,0.0,0.0,1.8595,2.1269,0.0,2.6687,2.8894,3.0819,3.2398,3.2398,3.2398,3.2398,3.2398,3.2398,3.2398,3.2398,3.2398,3.2398,3.2398,3.1982,3.1409,3.1409,3.1409,3.1409,3.1409,3.1909,3.2621,2.9613,2.9559,2.9615,3.0164,3.0266,3.0303,3.0451,3.0451,3.0401,3.0266,3.0266,3.0008,2.9388,2.9093,2.89,0.0,2.8363,2.8007,0.0,2.7262,2.6854,2.6258,2.606,2.5851,2.5652,2.5249,2.4772,2.4278,0.0,0.0,0.0,2.1095,2.1108,2.1257,2.2515,2.3122,2.3199,2.4083,2.48,2.5355,2.5728,2.6265,2.6784,2.6524,2.6399,2.6347,2.5968,2.5793,2.5824,2.5855,2.5905,2.5963,2.5868,2.5915,2.6034,2.618,2.6223,2.6129,2.5724,2.5602,2.5507,2.51,2.5005,2.5005,2.5005,2.5005,2.5005,2.5005,2.4856,2.4394,2.3405,2.3052,2.2578,2.1562,2.0897,0.0,0.0,0.0,0.0,0.0,1.7902,1.7821,0.0,1.7497,0.0,0.0,0.0,0.0,0.0,0.0,0.0,0.0,2.1847,0.0,2.6687,2.8894,3.0819,3.2398,3.2398,3.2398,3.2398,3.2398,3.2398,3.2398,3.2398,3.2136,3.1732,3.1732,3.1043,3.0089,3.0551,3.0735,3.0782,3.1228,3.1909,3.2621,2.9703,2.9667,2.9757,3.0368,3.047,3.0533,3.0748,3.0748,3.0723,3.0508,3.047,3.024,2.9643,2.9238,0.0,2.8741,2.8279,2.7824,2.7487,2.7113,2.6688,2.6202,2.584,2.5589,2.5397,2.4908,0.0,2.4249,2.3652,2.2856,2.1857,2.1991,2.2024,2.208,2.298,2.3405,2.3451,2.4196,2.4847,2.5459,2.5946,2.6565,2.7183,2.6999,2.6968,2.6948,2.6563,2.6432,2.6432,2.6432,2.6497,2.6611,2.691,2.7037,2.7068,2.6854,2.6793,2.6711,2.6348,2.624,2.609,2.5493,2.5344,2.5276,2.5059,2.5005,2.5005,2.5005,2.4829,2.4353,2.3391,2.3012,2.2537,2.1562,2.1087,2.0572,1.9809,0.0,0.0,0.0,0.0,0.0,0.0,1.8146,1.8051,0.0,0.0,0.0,0.0,0.0,0.0,2.0084,2.2426,0.0,2.6606,2.8601,3.0277,3.1562,3.1616,3.1782,3.2013,3.2013,3.2013,3.2013,3.2013,3.1628,3.1028,3.1028,3.0535,2.9817,3.0233,3.054,3.0843,3.1243,3.1909,3.2621,2.9626,2.9626,2.9716,0.0,3.0037,0.0,3.0292,3.0355,3.0292,3.0075,3.0037,2.9908,2.9639,2.9263,2.8841,2.8334,0.0,0.0,0.0,2.7022,2.6721,2.6534,2.6034,2.5663,2.5466,2.468,2.4244,2.421,2.33,2.2639,2.2191,2.2191,2.2191,2.2237,2.3037,2.3419,2.3488,2.4519,2.517,2.5606,2.6025,2.6496,2.6973,2.7201,2.7369,2.749,2.749,2.749,2.749,2.749,2.749,2.757,2.798,2.8112,2.7931,2.7147,2.6915,2.6915,2.686,2.6847,2.6711,2.6117,2.5914,2.5738,2.5141,2.5005,2.5005,2.5005,2.4557,2.396,2.3323,2.2741,2.2156,2.1494,2.1399,2.103,1.9917,0.0,0.0,0.0,0.0,0.0,0.0,1.8853,1.9097,0.0,0.0,0.0,0.0,0.0,1.9869,2.1285,2.2982,2.4727,2.6534,2.8162,2.9392,3.0188,3.0334,3.0709,3.1347,3.1347,3.1347,3.1347,3.1347,3.0951,3.0325,3.0325,3.0325,3.034,3.0386,3.0812,3.1424,3.147,3.1983,3.2648,0.0,0.0,2.8843,2.9079,2.9236,2.9392,2.9613,2.9755,2.9729,2.9365,2.9326,2.9209,2.8803,2.8578,2.835,2.8255,2.8074,2.7828,2.7421,2.696,2.6485,2.5958,2.5616,2.5333,2.5102,2.4923,2.4648,2.4277,2.3708,2.3358,2.3245,2.3245,2.3245,2.3257,2.3478,2.3632,2.3788,2.4204,2.4671,2.5194,2.5746,2.6198,2.6598,2.71,2.7302,2.7369,2.7469,2.749,2.749,2.749,2.749,2.757,2.798,2.8112,2.8091,2.8165,2.8166,2.8071,2.7623,2.7501,2.7352,2.6755,2.624,2.5738,2.5141,2.5005,2.5005,2.5005,2.4896,2.4448,2.3405,2.3093,2.2646,2.1562,2.1399,2.1141,2.041,2.0315,0.0,0.0,1.9266,1.932,1.9469,1.9505,1.9537,0.0,0.0,0.0,0.0,2.0882,2.1403,2.182,2.3459,2.5212,2.7014,2.8143,2.9206,3.0188,3.0215,3.0385,3.0632,3.0632,3.0632,3.0632,3.0632,3.0248,2.9633,2.9633,2.9633,2.9679,3.0202,3.0812,3.147,3.2091,3.2536,3.2843,2.8007,2.8059,2.8127,2.8486,2.8618,2.8776,2.8961,2.9067,2.9028,2.8724,2.8697,2.8578,2.8283,2.7938,2.7765,2.7765,2.7846,2.7728,2.7327,2.6984,2.66,2.6126,2.5729,2.5487,2.5357,2.5043,2.4692,2.4393,2.4155,2.3873,2.3641,2.3641,2.3519,2.3335,2.3409,2.3556,2.3787,2.397,2.4322,2.4826,2.5288,2.5699,2.6082,2.6667,2.6952,2.7066,2.7335,2.7403,2.7436,2.7503,2.749,2.7556,2.7868,2.8046,2.8145,2.8379,2.8522,2.8519,2.8193,2.8112,2.7976,2.7379,2.6769,2.6158,2.5548,2.5412,2.5331,2.5059,2.5005,2.4734,2.3784,2.3405,2.2903,2.1955,2.1575,2.1196,2.0586,2.0495,0.0,1.9768,1.97,1.9809,2.003,2.0057,2.0179,2.046,2.0487,0.0,2.129,2.1935,2.2308,2.2414,2.4039,2.5452,2.6568,2.7616,2.8473,2.9093,2.922,2.949,2.9848,2.9899,2.994,2.994,2.994,2.9556,2.8981,2.9264,2.9571,2.991,3.0612,3.1274,3.1917,3.2412,3.2746,3.2924,2.7319,2.736,2.7482,2.7886,2.7966,2.8059,2.8231,2.8271,2.8219,2.8018,2.8018,2.7938,2.7719,2.7371,2.7103,2.7103,2.7278,2.7267,2.7103,2.6921,2.6727,2.6561,2.6077,2.5824,2.5824,2.5152,2.4711,2.4596,2.4519,2.4268,2.3804,2.3804,2.3624,2.323,2.3407,2.3605,2.3828,2.4013,2.4345,2.4759,2.5086,2.5445,2.5849,2.6365,2.6713,2.6967,2.7254,2.7398,2.7419,2.7496,2.749,2.7523,2.7756,2.7967,2.8145,2.83,2.8476,2.8587,2.8587,2.8587,2.8451,2.7854,2.7325,2.6796,2.6172,2.5955,2.5738,2.5236,2.5059,2.4829,2.4204,2.3608,2.3012,2.2414,2.1778,2.1223,2.0721,0.0,2.0504,2.0148,2.0093,2.0324,2.0857,2.0925,2.1128,2.1629,2.167,2.1887,2.2414,2.2775,2.3031,2.3156,2.4612,2.5543,2.5897,2.6963,2.759,2.774,2.8014,2.8467,2.9052,2.9183,2.9233,2.9233,2.9233,2.8935,2.8458,2.911,2.9787,3.0463,3.1136,3.1824,3.2453,3.2578,3.2773,3.2951,2.6715,2.6757,2.6757,2.6839,2.7015,2.7097,2.7138,2.7278,2.7319,2.7138,2.7097,2.7015,2.6809,2.6727,2.6674,2.6674,2.6715,2.6715,2.6715,2.6437,2.6271,2.6271,2.6038,2.587,2.587,2.5387,2.5095,2.5106,2.4683,2.4454,2.4377,2.4377,2.4334,2.4257,2.4296,2.452,2.4886,2.4886,2.5244,2.5791,2.6021,2.6322,2.6757,2.7091,2.7494,2.7855,2.7755,2.782,2.7915,2.7592,2.749,2.757,2.7947,2.8079,2.8145,2.8457,2.8587,2.8587,2.8587,2.8587,2.8451,2.7854,2.7637,2.742,2.6809,2.6267,2.586,2.5778,2.5344,2.4829,2.4204,2.3608,2.3012,2.2414,2.1778,2.1372,2.1263,0.0,2.1412,2.1857,2.1898,2.2142,2.2727,2.2769,2.2835,2.2917,2.293,2.2971,2.3066,2.3858,2.4318,2.4345,2.4934,2.5614,2.6378,2.6864,2.7222,2.7478,2.774,2.805,2.8363,2.8477,2.8565,2.8565,2.8565,2.8504,2.8458,2.911,2.9787,3.0463,3.1136,3.1894,3.2578,3.2773,3.2951,3.3085,2.6354,2.6396,2.6437,2.6561,2.6685,2.6727,2.6727,2.6839,2.6828,2.6768,2.6727,2.6685,2.6603,2.6479,2.6396,2.6396,2.6271,2.6229,2.6229,2.6199,2.6146,2.6021,2.5948,2.5895,2.5895,2.5677,2.5568,2.5568,2.5349,2.5109,2.4898,2.4898,2.4727,2.4486,2.4486,2.4623,2.4865,2.4865,2.5189,2.5665,2.5897,2.6165,2.6482,2.6949,2.7322,2.7656,2.8014,2.8234,2.8431,2.8452,2.8533,2.8618,2.845,2.8545,2.8645,2.8473,2.8522,2.8587,2.8587,2.8587,2.8519,2.8248,2.818,2.803,2.7434,2.7081,2.6687,2.6022,2.567,2.5303,2.4706,2.4082,2.3594,2.3296,2.2495,0.0,0.0,2.1898,2.1993,2.2278,2.2578,2.289,2.3188,2.3215,2.3215,2.3215,2.3215,2.335,2.3676,2.4149,2.4585,2.4915,2.5418,2.5881,2.6285,2.67,2.6989,2.7196,2.759,2.789,2.8103,2.8299,2.8411,2.8411,2.8411,2.8411,2.8488,2.9494,3.0125,3.0494,3.1536,3.2218,3.2621,3.2843,3.2978,3.3123,2.6115,2.6115,2.6199,2.6396,2.6437,2.6437,2.6437,2.6437,2.6437,2.6437,2.6437,2.6437,2.6437,2.6229,2.6115,2.6115,2.599,2.5895,2.5895,2.6021,2.6063,2.5906,2.5895,2.5895,2.5895,2.5895,2.5895,2.5895,2.5895,2.571,2.5338,2.5338,2.5153,2.4825,2.4825,2.4923,2.5039,2.5039,2.5289,2.5707,2.5903,2.6099,2.6333,2.6836,2.7246,2.7563,2.8176,2.8567,2.8869,2.9149,2.9381,2.95,2.9098,2.9145,2.9322,2.8918,2.8801,2.8763,2.8627,2.8587,2.8587,2.8587,2.8587,2.8478,2.8017,2.78,2.7447,2.6497,2.6199,2.5914,2.5317,2.4734,2.4245,2.4109,0.0,0.0,0.0,2.2522,2.2563,2.2712,2.3134,2.3472,2.3608,2.3621,2.3621,2.3621,2.3621,2.3825,2.4272,2.4436,2.4723,2.5244,2.5716,2.5989,2.6002,2.642,2.6727,2.6937,2.7488,2.784,2.802,2.829,2.8411,2.8411,2.8411,2.8411,2.8488,2.9664,3.0263,3.0509,3.1705,3.2384,3.2676,3.2843,3.3005,3.315,2.5906,2.5906,2.5937,2.5948,2.5937,2.5937,2.5937,2.5937,2.5937,2.5937,2.5937,2.5937,2.5937,2.5937,2.5906,2.5906,2.5895,2.5895,2.5895,2.5895,2.5906,2.5895,2.5895,2.5895,2.5895,2.5895,2.5895,2.5895,2.5895,2.5884,2.5852,2.5852,2.583,2.5797,2.5797,2.5922,2.6088,2.6088,2.6243,2.6532,2.6737,2.693,2.7151,2.7366,2.786,2.8409,2.8339,2.8675,2.9147,2.9063,2.9274,2.9614,2.9701,2.9848,3.0056,3.0214,2.9862,2.9325,2.8736,2.8587,2.8587,2.8587,2.8587,2.8587,2.8532,2.8098,2.7678,2.7596,2.7104,2.6565,2.5941,2.5344,2.4761,2.4177,0.0,0.0,2.3147,2.3147,2.335,2.3892,2.4001,2.4245,2.4815,2.4883,2.4883,2.4883,2.4883,2.4896,2.4937,2.505,2.5258,2.5467,2.5522,2.5592,2.5729,2.6002,2.6353,2.6736,2.7331,2.7765,2.802,2.829,2.8411,2.8411,2.8411,2.8411,2.8458,2.9196,2.9833,3.0463,3.1182,3.2064,3.287,3.2897,3.3043,3.3282,2.5895,2.5895,2.5895,2.5895,2.5895,2.5895,2.5895,2.5895,2.5895,2.5895,2.5895,2.5895,2.5895,2.5895,2.5895,2.5895,2.5895,2.5895,2.5895,2.5895,2.5895,2.5895,2.5895,2.5895,2.5895,2.5895,2.5895,2.5895,2.5895,2.5895,2.5895,2.5895,2.5895,2.5895,2.5895,2.5937,2.6021,2.6021,2.6146,2.6354,2.6603,2.6839,2.7044,2.736,2.7777,2.8179,2.8506,2.8927,2.9377,2.9767,3.0149,3.0451,3.037,3.0512,3.0621,3.0444,2.9971,2.9461,2.923,2.8872,2.8587,2.8587,2.8587,2.8587,2.8587,2.841,2.8153,2.7786,2.7528,2.7159,2.6579,2.5968,2.548,2.5249,0.0,2.3757,2.3757,2.3757,2.3838,2.4069,2.4421,2.4761,2.4991,2.5005,2.5005,2.5005,2.5005,2.5005,2.5005,2.5061,2.5118,2.5188,2.5188,2.5355,2.5702,2.5975,2.6285,2.6709,2.7306,2.774,2.802,2.829,2.8411,2.8411,2.8411,2.8411,2.8488,2.9556,3.0171,3.0535,3.1693,3.2443,3.2897,3.3005,3.3123,3.3309,2.5895,2.5895,2.5895,2.5895,2.5895,2.5895,2.5895,2.5895,2.5895,2.5895,2.5895,2.5895,2.5895,2.5895,2.5895,2.5895,2.5895,2.5895,2.5895,2.5895,2.5895,2.5895,2.5895,2.5895,2.5895,2.5895,2.5895,2.5895,2.5895,2.5895,2.5895,2.5895,2.5895,2.5895,2.5895,2.5895,2.5895,2.5895,2.599,2.6115,2.6354,2.6603,2.685,2.7167,2.7493,2.7829,2.8339,2.8803,2.9302,2.9896,3.0444,3.0884,3.0811,3.1019,3.1213,3.0796,3.0391,3.0011,2.9821,2.9333,2.8831,2.8641,2.8587,2.8587,2.8587,2.8587,2.8478,2.8071,2.7976,2.78,2.7172,2.6755,2.6402,2.6212,2.5331,2.4679,2.4679,2.4489,2.4367,2.4367,2.4761,2.5005,2.5005,2.5005,2.5005,2.5005,2.5005,2.5005,2.5005,2.5005,2.5005,2.5005,2.5005,2.5202,2.5633,2.5866,2.6218,2.6642,2.7203,2.764,2.7955,2.8201,2.8348,2.8411,2.8411,2.8411,2.8488,2.9617,3.0202,3.0535,3.1793,3.2532,3.2912,3.3058,3.3176,3.3309,2.5895,2.5895,2.5895,2.5895,2.5895,2.5895,2.5895,2.5895,2.5895,2.5895,2.5895,2.5895,2.5895,2.5895,2.5895,2.5895,2.5895,2.5895,2.5895,2.5895,2.5895,2.5895,2.5895,2.5895,2.5895,2.5895,2.5895,2.5895,2.5895,2.5895,2.5895,2.5895,2.5895,2.5895,2.5895,2.5895,2.5895,2.5895,2.5895,2.5906,2.6104,2.6354,2.6603,2.6809,2.7167,2.7522,2.78,2.8271,2.8831,2.9263,2.9973,3.0736,3.0911,3.1397,3.1806,3.1441,3.13,3.1165,3.0581,2.9957,2.9366,2.875,2.8587,2.8587,2.8587,2.8587,2.8587,2.8587,2.8587,2.841,2.7827,2.7705,2.7515,2.6888,2.6307,2.59,2.59,2.5385,2.5018,2.5018,2.5005,2.5005,2.5005,2.5005,2.5005,2.5005,2.5005,2.5005,2.5005,2.5005,2.5005,2.5005,2.5005,2.5159,2.5494,2.5633,2.5961,2.651,2.6985,2.7412,2.7815,2.8088,2.8259,2.8411,2.8411,2.8411,2.8473,2.9125,2.9787,3.0505,3.1299,3.214,3.2924,3.3058,3.3176,3.3309,2.5895,2.5895,2.5895,2.5895,2.5895,2.5895,2.5895,2.5895,2.5895,2.5895,2.5895,2.5895,2.5895,2.5895,2.5895,2.5895,2.5895,2.5895,2.5895,2.5895,2.5895,2.5895,2.5895,2.5895,2.5895,2.5895,2.5895,2.5895,2.5895,2.5895,2.5895,2.5895,2.5895,2.5895,2.5895,2.5895,2.5895,2.5895,2.5895,2.5906,2.6104,2.6229,2.6354,2.6768,2.6974,2.7126,2.7493,2.7869,2.8271,2.8803,2.9341,2.9934,3.0748,3.1323,3.1676,3.1711,3.1519,3.126,3.1083,3.0595,2.9984,2.9393,2.8899,2.8587,2.8587,2.8587,2.8587,2.8587,2.8587,2.8532,2.8356,2.799,2.7651,2.7474,2.6945,2.6538,2.6538,2.6009,2.5629,2.5629,2.5263,2.5005,2.5005,2.5005,2.5005,2.5005,2.5005,2.5005,2.5005,2.5005,2.5005,2.5005,2.5005,2.5159,2.5494,2.5633,2.5961,2.651,2.6985,2.7412,2.7815,2.8088,2.8259,2.8411,2.8411,2.8673,2.9166,2.9817,3.0531,3.1314,3.2171,3.2737,3.3058,3.3203,3.3282,3.3309,2.5895,2.5895,2.5895,2.5895,2.5895,2.5895,2.5895,2.5895,2.5895,2.5895,2.5895,2.5895,2.5895,2.5895,2.5895,2.5895,2.5895,2.5895,2.5895,2.5895,2.5895,2.5895,2.5895,2.5895,2.5895,2.5895,2.5895,2.5895,2.5895,2.5895,2.5895,2.5895,2.5895,2.5895,2.5895,2.5895,2.5895,2.5895,2.5895,2.5895,2.6021,2.6115,2.624,2.6644,2.6809,2.6933,2.7249,2.7545,2.7829,2.8299,2.8882,2.9574,3.0558,3.1161,3.1532,3.1817,3.178,3.1653,3.1653,3.1219,3.0676,3.0283,2.9564,2.8872,2.8641,2.8587,2.8587,2.8587,2.8587,2.8587,2.8587,2.8302,2.8058,2.8058,2.7556,2.7145,2.7145,2.6647,2.6267,2.6267,2.5724,2.5358,2.5358,2.5141,2.5005,2.5005,2.5005,2.5005,2.5005,2.5005,2.5005,2.5005,2.5005,2.5159,2.5494,2.5592,2.5866,2.6365,2.6736,2.7141,2.7564,2.789,2.829,2.8722,2.8772,2.9196,2.9848,3.0535,3.1096,3.1703,3.2578,3.2978,3.3112,3.3256,3.3309,3.3309,2.5895,2.5895,2.5895,2.5895,2.5895,2.5895,2.5895,2.5895,2.5895,2.5895,2.5895,2.5895,2.5895,2.5895,2.5895,2.5895,2.5895,2.5895,2.5895,2.5895,2.5895,2.5895,2.5895,2.5895,2.5895,2.5895,2.5895,2.5895,2.5895,2.5895,2.5895,2.5895,2.5895,2.5895,2.5895,2.5895,2.5895,2.5895,2.5895,2.5895,2.5895,2.6032,2.6199,2.6479,2.6685,2.6891,2.7108,2.729,2.7522,2.7829,2.8538,2.9457,3.0343,3.0911,3.131,3.173,3.2,3.2182,3.2218,3.1789,3.1368,3.13,3.0459,2.9502,2.8817,2.8627,2.8587,2.8587,2.8587,2.8587,2.8587,2.8587,2.8587,2.8587,2.8139,2.7786,2.7786,2.724,2.6874,2.6874,2.6348,2.5968,2.5968,2.548,2.5168,2.5168,2.5168,2.5168,2.5168,2.5168,2.5168,2.5168,2.5168,2.5323,2.5632,2.5632,2.5786,2.6084,2.6449,2.6823,2.7296,2.7739,2.844,2.9271,2.9413,2.9863,3.054,3.1136,3.1508,3.1796,3.2594,3.2978,3.3123,3.3256,3.3309,3.3309,2.5895,2.5895,2.5895,2.5895,2.5895,2.5895,2.5895,2.5895,2.5895,2.5895,2.5895,2.5895,2.5895,2.5895,2.5895,2.5895,2.5895,2.5895,2.5895,2.5895,2.5895,2.5895,2.5895,2.5895,2.5895,2.5895,2.5895,2.5895,2.5895,2.5895,2.5895,2.5895,2.5895,2.5895,2.5895,2.5895,2.5895,2.5895,2.5895,2.5895,2.5895,2.5937,2.599,2.6188,2.6437,2.6685,2.6891,2.7097,2.7342,2.795,2.8379,2.8855,2.9702,3.0267,3.071,3.1272,3.1693,3.2,3.2146,3.211,3.187,3.1409,3.1097,3.0622,2.957,2.8926,2.8587,2.8587,2.8587,2.8587,2.8587,2.8587,2.8587,2.8587,2.8478,2.8397,2.8397,2.7895,2.7515,2.7515,2.6955,2.6589,2.6589,2.6511,2.64,2.64,2.64,2.64,2.64,2.64,2.64,2.64,2.64,2.6505,2.667,2.667,2.6478,2.6125,2.6907,2.7436,2.7774,2.8702,2.9362,2.9761,2.9948,3.0462,3.1182,3.132,3.1882,3.264,3.2823,3.3058,3.3256,3.3282,3.3309,3.3309,2.5895,2.5895,2.5895,2.5895,2.5895,2.5895,2.5895,2.5895,2.5895,2.5895,2.5895,2.5895,2.5895,2.5895,2.5895,2.5895,2.5895,2.5895,2.5895,2.5895,2.5895,2.5895,2.5895,2.5895,2.5895,2.5895,2.5895,2.5895,2.5895,2.5895,2.5895,2.5895,2.5895,2.5895,2.5895,2.5895,2.5895,2.5895,2.5895,2.5895,2.5895,2.5895,2.5906,2.6104,2.6365,2.6644,2.6809,2.7015,2.7313,2.7869,2.8191,2.8498,2.9326,2.9985,3.052,3.1123,3.1582,3.1927,3.2146,3.2218,3.2137,3.1789,3.1504,3.0975,2.9787,2.9271,2.894,2.8655,2.8587,2.8587,2.8587,2.8587,2.8587,2.8587,2.8587,2.8587,2.8587,2.8329,2.8125,2.8125,2.761,2.7104,2.682,2.6793,2.6793,2.6793,2.6793,2.6793,2.6793,2.6793,2.6793,2.6793,2.6793,2.687,2.701,2.701,2.6915,2.6764,2.7329,2.7768,2.8075,2.8811,2.9493,3.0108,3.0421,3.1044,3.1793,3.1847,3.2296,3.2897,3.2897,3.3043,3.3309,3.3309,3.3309,3.3309,2.5895,2.5895,2.5895,2.5895,2.5895,2.5895,2.5895,2.5895,2.5895,2.5895,2.5895,2.5895,2.5895,2.5895,2.5895,2.5895,2.5895,2.5895,2.5895,2.5895,2.5895,2.5895,2.5895,2.5895,2.5895,2.5895,2.5895,2.5895,2.5895,2.5895,2.5895,2.5895,2.5895,2.5895,2.5895,2.5895,2.5895,2.5895,2.5895,2.5895,2.5895,2.5895,2.5906,2.6074,2.6365,2.6603,2.6809,2.7015,2.7272,2.7679,2.795,2.8299,2.9067,2.9729,3.0394,3.1048,3.1545,3.189,3.2146,3.2218,3.2218,3.2218,3.1802,3.1151,3.0072,2.9665,2.9366,2.8845,2.8655,2.8587,2.8587,2.8587,2.8587,2.8587,2.8587,2.8587,2.8587,2.8587,2.8587,2.8587,2.8166,2.7664,2.7145,2.7104,2.7104,2.7104,2.7104,2.7104,2.7104,2.7104,2.7104,2.7104,2.7104,2.7169,2.7264,2.7264,2.7429,2.7728,2.7819,2.8046,2.834,2.8828,2.9547,3.0419,3.0857,3.148,3.2178,3.2315,3.2551,3.2843,3.2897,3.3058,3.3282,3.3309,3.3309,3.3309,2.5895,2.5895,2.5895,2.5895,2.5895,2.5895,2.5895,2.5895,2.5895,2.5895,2.5895,2.5895,2.5895,2.5895,2.5895,2.5895,2.5895,2.5895,2.5895,2.5895,2.5895,2.5895,2.5895,2.5895,2.5895,2.5895,2.5895,2.5895,2.5895,2.5895,2.5895,2.5895,2.5895,2.5895,2.5895,2.5895,2.5895,2.5895,2.5895,2.5895,2.5895,2.5895,2.5895,2.5937,2.6229,2.6603,2.6644,2.6891,2.7231,2.7493,2.7748,2.8042,2.8685,2.9289,2.9947,3.0785,3.1336,3.172,3.2109,3.2218,3.2218,3.2218,3.2151,3.1884,3.1205,3.0263,2.9488,2.9407,2.894,2.8587,2.8587,2.8587,2.8587,2.8587,2.8587,2.8587,2.8587,2.8587,2.8587,2.8587,2.8519,2.8451,2.8356,2.8356,2.8356,2.8356,2.8356,2.8356,2.8356,2.8356,2.8356,2.8356,2.8356,2.8388,2.8375,2.8375,2.847,2.8629,2.8629,2.8716,2.8834,2.9688,3.032,3.0749,3.1101,3.1549,3.2038,3.2163,3.2385,3.2648,3.2843,3.3005,3.3123,3.3256,3.3309,3.3309,2.5895,2.5895,2.5895,2.5895,2.5895,2.5895,2.5895,2.5895,2.5895,2.5895,2.5895,2.5895,2.5895,2.5895,2.5895,2.5895,2.5895,2.5895,2.5895,2.5895,2.5895,2.5895,2.5895,2.5895,2.5895,2.5895,2.5895,2.5895,2.5895,2.5895,2.5895,2.5895,2.5895,2.5895,2.5895,2.5895,2.5895,2.5895,2.5895,2.5895,2.5895,2.5895,2.5895,2.5895,2.6104,2.6396,2.6685,2.6933,2.7231,2.7441,2.7696,2.8014,2.8459,2.9028,2.9678,3.0432,3.1011,3.1508,3.1927,3.2109,3.2218,3.2218,3.2218,3.2151,3.1843,3.111,3.0405,3.0066,2.9509,2.9122,2.9122,2.8817,2.8587,2.8587,2.8587,2.8587,2.8587,2.8587,2.8587,2.8587,2.8587,2.8587,2.8587,2.8587,2.8587,2.8587,2.8587,2.8587,2.8587,2.8587,2.8587,2.8587,2.8587,2.8587,2.8587,2.8587,2.8651,2.8812,2.8812,2.8916,2.9195,2.9692,3.0144,3.0538,3.094,3.1394,3.1853,3.2107,3.2358,3.2621,3.2816,3.3032,3.3229,3.3282,3.3309,3.3309]}]]